[[{"header":{"parameterUnit":"m.s-1","parameterCategory":1,"la1":31.0,"la2":29.5877,"lo1":-88.7671,"lo2":-86.6584,"dy":0.0162,"dx":0.0185,"nx":115,"ny":88,"refTime":"2023-09-07T18:00:00:Z","depth":0,"parameterNumber":2,"parameterNumberName":"U-component_of_WINDS"},"data":[0.0,0.0,0.0,0.0,0.0,0.0,0.0,0.0,0.0,0.0,0.0,0.0,0.0,0.0,0.0,0.0,0.0,0.0,0.0,0.0,0.0,0.0,0.0,0.0,0.0,0.0,0.0,0.0,0.0,0.0,0.0,0.0,0.0,0.0,0.0,0.0,0.0,0.0,0.0,0.0,0.0,0.0,0.0,0.0,0.0,0.0,0.0,0.0,0.0,0.0,0.0,0.0,0.0,0.0,0.0,0.0,0.0,0.0,0.0,0.0,0.0,0.0,0.0,0.0,0.0,0.0,0.0,0.0,0.0,0.0,0.0,0.0,0.0,0.0,0.0,0.0,0.0,0.0,0.0,0.0,0.0,0.0,0.0,0.0,0.0,0.0,0.0,0.0,0.0,0.0,0.0,0.0,0.0,0.0,0.0,0.0,0.0,0.0,0.0,0.0,0.0,0.0,0.0,0.0,0.0,0.0,0.0,0.0,0.0,0.0,0.0,0.0,0.0,0.0,0.0,0.0,0.0,0.0,0.0,0.0,0.0,0.0,0.0,0.0,0.0,0.0,0.0,0.0,0.0,0.0,0.0,0.0,0.0,0.0,0.0,0.0,0.0,0.0,0.0,0.0,0.0,0.0,0.0,0.0,0.0,0.0,0.0,0.0,0.0,0.0,0.0,0.0,0.0,0.0,0.0,0.0,0.0,0.0,0.0,0.0,0.0,0.0,0.0,0.0,0.0,0.0,0.0,0.0,0.0,0.0,0.0,0.0,0.0,0.0,0.0,0.0,0.0,0.0,0.0,0.0,0.0,0.0,0.0,0.0,0.0,0.0,0.0,0.0,0.0,0.0,0.0,0.0,0.0,0.0,0.0,0.0,0.0,0.0,0.0,0.0,0.0,0.0,0.0,0.0,0.0,0.0,0.0,0.0,0.0,0.0,0.0,0.0,0.0,0.0,0.0,0.0,0.0,0.0,0.0,0.0,0.0,0.0,0.0,0.0,0.0,0.0,0.0,0.0,0.0,0.0,0.0,0.0,0.0,0.0,0.0,0.0,0.0,0.0,0.0,0.0,0.0,0.0,0.0,0.0,0.0,0.0,0.0,0.0,0.0,0.0,0.0,0.0,0.0,0.0,0.0,0.0,0.0,0.0,0.0,0.0,0.0,0.0,0.0,0.0,0.0,0.0,0.0,0.0,0.0,0.0,0.0,0.0,0.0,0.0,0.0,0.0,0.0,0.0,0.0,0.0,0.0,0.0,0.0,0.0,0.0,0.0,0.0,0.0,0.0,0.0,0.0,0.0,0.0,0.0,0.0,0.0,0.0,0.0,0.0,0.0,0.0,0.0,0.0,0.0,0.0,0.0,0.0,0.0,0.0,0.0,0.0,0.0,0.0,0.0,0.0,0.0,0.0,0.0,0.0,0.0,0.0,0.0,0.0,0.0,0.0,0.0,0.0,0.0,0.0,0.0,0.0,0.0,0.0,0.0,0.0,0.0,0.0,0.0,0.0,0.0,0.0,0.0,0.0,0.0,0.0,0.0,0.0,0.0,0.0,0.0,0.0,0.0,0.0,0.0,0.0,0.0,0.0,0.0,0.0,0.0,0.0,0.0,0.0,0.0,0.0,0.0,0.0,0.0,0.0,0.0,0.0,0.0,0.0,0.0,0.0,0.0,0.0,0.0,0.0,0.0,0.0,0.0,0.0,0.0,0.0,0.0,0.0,0.0,0.0,0.0,0.0,0.0,0.0,0.0,0.0,0.0,0.0,0.0,0.0,0.0,0.0,0.0,0.0,0.0,0.0,0.0,0.0,0.0,0.0,0.0,0.0,0.0,0.0,0.0,0.0,0.0,0.0,0.0,0.0,0.0,0.0,0.0,0.0,0.0,0.0,0.0,0.0,0.0,0.0,0.0,0.0,0.0,0.0,0.0,0.0,0.0,0.0,0.0,0.0,0.0,0.0,0.0,0.0,0.0,0.0,0.0,0.0,0.0,0.0,0.0,0.0,0.0,0.0,0.0,0.0,0.0,0.0,0.0,0.0,0.0,0.0,0.0,0.0,0.0,0.0,0.0,0.0,0.0,0.0,0.0,0.0,0.0,0.0,0.0,0.0,0.0,0.0,0.0,0.0,0.0,0.0,0.0,0.0,0.0,0.0,0.0,0.0,0.0,0.0,0.0,0.0,0.0,0.0,0.0,0.0,0.0,0.0,0.0,0.0,0.0,0.0,0.0,0.0,0.0,0.0,0.0,0.0,0.0,0.0,0.0,0.0,0.0,0.0,0.0,0.0,0.0,0.0,0.0,0.0,0.0,0.0,0.0,0.0,0.0,0.0,0.0,0.0,0.0,0.0,0.0,0.0,0.0,0.0,0.0,0.0,0.0,0.0,0.0,0.0,0.0,0.0,0.0,0.0,0.0,0.0,0.0,0.0,0.0,0.0,0.0,0.0,0.0,0.0,0.0,0.0,0.0,0.0,0.0,0.0,0.0,0.0,0.0,0.0,0.0,0.0,0.0,0.0,0.0,0.0,0.0,0.0,0.0,0.0,0.0,0.0,0.0,0.0,0.0,0.0,0.0,0.0,0.0,0.0,0.0,0.0,0.0,0.0,0.0,0.0,0.0,0.0,0.0,0.0,0.0,0.0,0.0,0.0,0.0,0.0,0.0,0.0,0.0,0.0,0.0,0.0,0.0,0.0,0.0,0.0,0.0,0.0,0.0,0.0,0.0,0.0,0.0,0.0,0.0,0.0,0.0,0.0,0.0,0.0,0.0,0.0,0.0,0.0,0.0,0.0,0.0,0.0,0.0,0.0,0.0,0.0,0.0,0.0,0.0,0.0,0.0,0.0,0.0,0.0,0.0,0.0,0.0,0.0,0.0,0.0,0.0,0.0,0.0,0.0,0.0,0.0,0.0,0.0,0.0,0.0,0.0,0.0,0.0,0.0,0.0,0.0,0.0,0.0,0.0,0.0,0.0,0.0,0.0,0.0,0.0,0.0,0.0,0.0,0.0,0.0,0.0,0.0,0.0,0.0,0.0,0.0,0.0,0.0,0.0,0.0,0.0,0.0,0.0,0.0,0.0,0.0,0.0,0.0,0.0,0.0,0.0,0.0,0.0,0.0,0.0,0.0,0.0,0.0,0.0,0.0,0.0,0.0,0.0,0.0,0.0,0.0,0.0,0.0,0.0,0.0,0.0,0.0,0.0,0.0,0.0,0.0,0.0,0.0,0.0,0.0,0.0,0.0,0.0,0.0,0.0,0.0,0.0,0.0,0.0,0.0,0.0,0.0,0.0,0.0,0.0,0.0,0.0,0.0,0.0,0.0,0.0,0.0,0.0,0.0,0.0,0.0,0.0,0.0,0.0,0.0,0.0,0.0,0.0,0.0,0.0,0.0,0.0,0.0,0.0,0.0,0.0,0.0,0.0,0.0,0.0,0.0,0.0,0.0,0.0,0.0,0.0,0.0,0.0,0.0,0.0,0.0,0.0,0.0,0.0,0.0,0.0,0.0,0.0,0.0,0.0,0.0,0.0,0.0,0.0,0.0,0.0,0.0,0.0,0.0,0.0,0.0,0.0,0.0,0.0,0.0,0.0,0.0,0.0,0.0,0.0,0.0,0.0,0.0,0.0,0.0,0.0,0.0,0.0,0.0,0.0,0.0,0.0,0.0,0.0,0.0,0.0,0.0,0.0,0.0,0.0,0.0,0.0,0.0,0.0,0.0,0.0,0.0,0.0,0.0,0.0,0.0,0.0,0.0,0.0,0.0,0.0,0.0,0.0,0.0,0.0,0.0,0.0,0.0,0.0,0.0,0.0,0.0,0.0,0.0,0.0,0.0,0.0,0.0,0.0,0.0,0.0,0.0,0.0,0.0,0.0,0.0,0.0,0.0,0.0,0.0,0.0,0.0,0.0,0.0,0.0,0.0,0.0,0.0,0.0,0.0,0.0,0.0,0.0,0.0,0.0,0.0,0.0,0.0,0.0,0.0,0.0,0.0,0.0,0.0,0.0,0.0,0.0,0.0,0.0,0.0,0.0,0.0,0.0,0.0,0.0,0.0,0.0,0.0,0.0,0.0,0.0,0.0,0.0,0.0,0.0,0.0,0.0,0.0,0.0,0.0,0.0,0.0,0.0,0.0,0.0,0.0,0.0,0.0,0.0,0.0,0.0,0.0,0.0,0.0,0.0,0.0,0.0,0.0,0.0,0.0,0.0,0.0,0.0,0.0,0.0,0.0,0.0,0.0,0.0,0.0,0.0,0.0,0.0,0.0,0.0,0.0,0.0,-2.8837,0.0,0.0,0.0,0.0,0.0,0.0,0.0,0.0,0.0,0.0,0.0,0.0,0.0,0.0,0.0,0.0,0.0,0.0,0.0,0.0,0.0,0.0,0.0,0.0,0.0,0.0,0.0,0.0,0.0,0.0,0.0,0.0,0.0,0.0,0.0,0.0,0.0,0.0,0.0,0.0,0.0,0.0,0.0,0.0,0.0,0.0,0.0,0.0,0.0,0.0,0.0,0.0,0.0,0.0,0.0,0.0,0.0,0.0,0.0,0.0,0.0,0.0,0.0,0.0,0.0,0.0,0.0,0.0,0.0,0.0,0.0,0.0,0.0,0.0,0.0,0.0,0.0,0.0,0.0,0.0,0.0,0.0,0.0,0.0,0.0,0.0,0.0,0.0,0.0,0.0,0.0,0.0,0.0,0.0,0.0,0.0,0.0,0.0,0.0,0.0,0.0,0.0,0.0,0.0,0.0,0.0,0.0,0.0,0.0,0.0,-3.3211,-3.2568,-3.1581,-3.0747,-3.0109,0.0,0.0,0.0,0.0,0.0,0.0,0.0,0.0,0.0,0.0,0.0,0.0,0.0,0.0,0.0,0.0,0.0,0.0,0.0,0.0,0.0,0.0,0.0,0.0,0.0,0.0,0.0,0.0,0.0,0.0,0.0,0.0,0.0,0.0,0.0,0.0,0.0,0.0,0.0,0.0,0.0,0.0,0.0,0.0,0.0,0.0,0.0,0.0,0.0,0.0,0.0,0.0,0.0,0.0,0.0,0.0,0.0,0.0,0.0,0.0,0.0,0.0,0.0,0.0,0.0,0.0,0.0,0.0,0.0,0.0,0.0,0.0,0.0,0.0,0.0,0.0,0.0,0.0,0.0,0.0,0.0,0.0,0.0,0.0,0.0,0.0,0.0,0.0,0.0,0.0,0.0,0.0,0.0,0.0,0.0,0.0,0.0,0.0,0.0,0.0,0.0,0.0,0.0,0.0,0.0,0.0,0.0,0.0,0.0,0.0,0.0,0.0,-3.2527,-3.1592,-3.0847,0.0,0.0,0.0,0.0,0.0,0.0,0.0,0.0,0.0,0.0,0.0,0.0,0.0,0.0,0.0,0.0,0.0,0.0,0.0,0.0,0.0,0.0,0.0,0.0,0.0,0.0,0.0,0.0,0.0,0.0,0.0,0.0,0.0,0.0,0.0,0.0,0.0,0.0,0.0,0.0,0.0,0.0,0.0,0.0,0.0,0.0,0.0,0.0,0.0,0.0,0.0,0.0,0.0,0.0,0.0,0.0,0.0,0.0,0.0,0.0,0.0,0.0,0.0,0.0,0.0,0.0,0.0,0.0,0.0,0.0,0.0,0.0,0.0,0.0,0.0,0.0,0.0,0.0,0.0,0.0,0.0,0.0,0.0,0.0,0.0,0.0,0.0,0.0,0.0,0.0,0.0,0.0,0.0,0.0,0.0,0.0,0.0,0.0,0.0,0.0,0.0,0.0,0.0,0.0,0.0,0.0,0.0,0.0,0.0,0.0,-3.4063,-3.4456,-3.3484,0.0,-2.9932,0.0,0.0,0.0,0.0,0.0,0.0,0.0,0.0,0.0,0.0,0.0,0.0,0.0,0.0,0.0,0.0,0.0,0.0,0.0,0.0,0.0,0.0,0.0,0.0,0.0,0.0,0.0,0.0,0.0,0.0,0.0,0.0,0.0,0.0,0.0,0.0,0.0,0.0,0.0,0.0,0.0,0.0,0.0,0.0,0.0,0.0,0.0,0.0,0.0,0.0,0.0,0.0,0.0,0.0,0.0,0.0,0.0,0.0,0.0,0.0,0.0,0.0,0.0,0.0,0.0,0.0,0.0,0.0,0.0,0.0,0.0,0.0,0.0,0.0,0.0,0.0,0.0,0.0,0.0,0.0,0.0,0.0,0.0,0.0,0.0,0.0,0.0,0.0,0.0,0.0,0.0,0.0,0.0,0.0,0.0,0.0,0.0,0.0,0.0,0.0,0.0,0.0,0.0,0.0,0.0,0.0,0.0,0.0,0.0,0.0,-3.4842,-3.4083,-3.3276,-3.214,0.0,0.0,0.0,0.0,0.0,0.0,0.0,0.0,0.0,0.0,0.0,0.0,0.0,0.0,0.0,0.0,0.0,0.0,0.0,0.0,0.0,0.0,0.0,0.0,0.0,0.0,0.0,0.0,0.0,0.0,0.0,0.0,0.0,0.0,0.0,0.0,0.0,0.0,0.0,0.0,0.0,0.0,0.0,0.0,0.0,0.0,0.0,0.0,0.0,0.0,0.0,0.0,0.0,0.0,0.0,0.0,0.0,0.0,0.0,0.0,0.0,0.0,0.0,0.0,0.0,0.0,0.0,0.0,0.0,0.0,0.0,0.0,0.0,0.0,0.0,0.0,0.0,0.0,0.0,0.0,0.0,0.0,0.0,0.0,0.0,0.0,0.0,0.0,0.0,0.0,0.0,0.0,0.0,0.0,0.0,0.0,0.0,0.0,0.0,0.0,0.0,0.0,0.0,0.0,0.0,0.0,0.0,0.0,0.0,0.0,-3.521,-3.4995,-3.3748,-3.3327,-3.2528,-3.1179,0.0,0.0,0.0,0.0,0.0,0.0,0.0,0.0,0.0,0.0,0.0,0.0,0.0,0.0,0.0,0.0,0.0,0.0,0.0,0.0,0.0,0.0,0.0,0.0,0.0,0.0,0.0,0.0,0.0,0.0,0.0,0.0,0.0,0.0,0.0,0.0,0.0,0.0,0.0,0.0,0.0,0.0,0.0,0.0,0.0,0.0,0.0,0.0,0.0,0.0,0.0,0.0,0.0,0.0,0.0,0.0,0.0,0.0,0.0,0.0,0.0,0.0,0.0,0.0,0.0,0.0,0.0,0.0,0.0,0.0,0.0,0.0,0.0,0.0,0.0,0.0,0.0,0.0,0.0,0.0,0.0,0.0,0.0,0.0,0.0,0.0,0.0,0.0,0.0,0.0,0.0,0.0,0.0,0.0,0.0,0.0,0.0,0.0,0.0,0.0,0.0,0.0,0.0,0.0,0.0,0.0,0.0,0.0,-3.5271,-3.4605,-3.4026,-3.3674,-3.4006,-3.3289,0.0,0.0,0.0,0.0,0.0,0.0,0.0,0.0,0.0,0.0,0.0,0.0,0.0,0.0,0.0,0.0,0.0,0.0,0.0,0.0,0.0,0.0,0.0,0.0,0.0,0.0,0.0,0.0,0.0,0.0,0.0,0.0,0.0,0.0,0.0,0.0,0.0,0.0,0.0,0.0,0.0,0.0,0.0,0.0,0.0,0.0,0.0,0.0,0.0,0.0,0.0,0.0,0.0,0.0,0.0,0.0,0.0,0.0,0.0,0.0,0.0,0.0,0.0,0.0,0.0,0.0,0.0,0.0,0.0,0.0,0.0,0.0,0.0,0.0,0.0,0.0,0.0,0.0,0.0,0.0,0.0,0.0,0.0,0.0,0.0,0.0,0.0,0.0,0.0,0.0,0.0,0.0,0.0,0.0,0.0,0.0,0.0,0.0,0.0,0.0,0.0,0.0,0.0,0.0,0.0,0.0,0.0,0.0,0.0,-3.4667,-3.4284,-3.4489,-3.5205,-3.4306,-3.3558,0.0,0.0,0.0,0.0,0.0,0.0,0.0,0.0,0.0,0.0,0.0,0.0,0.0,0.0,0.0,0.0,0.0,0.0,0.0,0.0,0.0,0.0,0.0,0.0,0.0,0.0,0.0,0.0,0.0,0.0,0.0,0.0,0.0,0.0,0.0,0.0,0.0,0.0,0.0,0.0,0.0,0.0,0.0,0.0,0.0,0.0,0.0,0.0,0.0,0.0,0.0,0.0,0.0,0.0,0.0,0.0,0.0,0.0,0.0,0.0,0.0,0.0,0.0,0.0,0.0,0.0,0.0,0.0,0.0,0.0,0.0,0.0,0.0,0.0,0.0,0.0,0.0,0.0,0.0,0.0,0.0,0.0,0.0,0.0,0.0,0.0,0.0,0.0,0.0,0.0,0.0,0.0,0.0,0.0,0.0,0.0,0.0,0.0,0.0,0.0,0.0,0.0,0.0,0.0,0.0,0.0,0.0,0.0,0.0,-3.4311,0.0,-3.4818,-3.539,-3.4735,-3.4139,0.0,0.0,0.0,0.0,0.0,0.0,0.0,0.0,0.0,0.0,0.0,0.0,0.0,0.0,0.0,0.0,0.0,0.0,0.0,0.0,0.0,0.0,0.0,0.0,0.0,0.0,0.0,0.0,0.0,0.0,0.0,0.0,0.0,0.0,0.0,0.0,0.0,0.0,0.0,0.0,0.0,0.0,0.0,0.0,0.0,0.0,0.0,0.0,0.0,0.0,0.0,0.0,0.0,0.0,0.0,0.0,0.0,0.0,0.0,0.0,0.0,0.0,0.0,0.0,0.0,0.0,0.0,0.0,0.0,0.0,0.0,0.0,0.0,0.0,0.0,0.0,0.0,0.0,0.0,0.0,0.0,0.0,0.0,0.0,0.0,0.0,0.0,0.0,0.0,0.0,0.0,0.0,0.0,0.0,0.0,0.0,0.0,0.0,0.0,0.0,0.0,0.0,0.0,0.0,0.0,0.0,0.0,0.0,-3.4506,-3.4335,-3.4971,-3.4901,-3.4005,-3.5288,-3.5021,0.0,0.0,0.0,0.0,0.0,0.0,0.0,0.0,0.0,0.0,0.0,0.0,0.0,0.0,0.0,0.0,0.0,0.0,0.0,0.0,0.0,0.0,0.0,0.0,0.0,0.0,0.0,0.0,0.0,0.0,0.0,0.0,0.0,0.0,0.0,0.0,0.0,0.0,0.0,0.0,0.0,0.0,0.0,0.0,0.0,0.0,0.0,0.0,0.0,0.0,0.0,0.0,0.0,0.0,0.0,0.0,0.0,0.0,0.0,0.0,0.0,0.0,0.0,0.0,0.0,0.0,0.0,0.0,0.0,0.0,0.0,0.0,0.0,0.0,0.0,0.0,0.0,0.0,0.0,0.0,0.0,0.0,0.0,0.0,0.0,0.0,0.0,0.0,0.0,0.0,0.0,0.0,0.0,0.0,0.0,0.0,0.0,0.0,0.0,0.0,0.0,0.0,0.0,0.0,0.0,0.0,0.0,0.0,0.0,-3.4525,-3.4601,-3.4705,-3.4874,-3.5206,-3.4914,0.0,0.0,0.0,0.0,0.0,0.0,0.0,0.0,0.0,0.0,0.0,0.0,0.0,0.0,0.0,0.0,0.0,0.0,0.0,0.0,0.0,0.0,0.0,0.0,0.0,0.0,0.0,0.0,0.0,0.0,0.0,0.0,0.0,0.0,0.0,0.0,0.0,0.0,0.0,0.0,0.0,0.0,0.0,0.0,0.0,0.0,0.0,0.0,0.0,0.0,0.0,0.0,0.0,0.0,0.0,0.0,0.0,0.0,0.0,0.0,0.0,0.0,0.0,0.0,0.0,0.0,0.0,0.0,0.0,0.0,0.0,0.0,0.0,0.0,0.0,0.0,0.0,0.0,0.0,0.0,0.0,0.0,0.0,0.0,0.0,0.0,0.0,0.0,0.0,0.0,0.0,0.0,0.0,0.0,0.0,0.0,0.0,0.0,0.0,0.0,0.0,0.0,0.0,0.0,0.0,0.0,0.0,0.0,0.0,-3.4276,-3.4326,-3.4523,-3.4845,-3.5016,-3.4713,-3.3867,0.0,0.0,0.0,0.0,0.0,0.0,0.0,0.0,0.0,0.0,0.0,0.0,0.0,0.0,0.0,0.0,0.0,0.0,0.0,0.0,0.0,0.0,0.0,0.0,0.0,0.0,0.0,0.0,0.0,0.0,0.0,0.0,0.0,0.0,0.0,0.0,0.0,0.0,0.0,0.0,0.0,0.0,0.0,0.0,0.0,0.0,0.0,0.0,0.0,0.0,0.0,0.0,0.0,0.0,0.0,0.0,0.0,0.0,0.0,0.0,0.0,0.0,0.0,0.0,0.0,0.0,0.0,0.0,0.0,0.0,0.0,0.0,0.0,0.0,0.0,0.0,0.0,0.0,0.0,0.0,0.0,0.0,0.0,0.0,0.0,0.0,0.0,0.0,0.0,0.0,0.0,0.0,0.0,0.0,0.0,0.0,0.0,0.0,0.0,0.0,0.0,0.0,0.0,0.0,0.0,0.0,0.0,0.0,-3.3619,-3.412,-3.4225,-3.3994,-3.4642,-3.4388,0.0,0.0,0.0,0.0,0.0,0.0,0.0,0.0,0.0,0.0,0.0,0.0,0.0,0.0,0.0,0.0,0.0,0.0,0.0,0.0,0.0,0.0,0.0,0.0,0.0,0.0,0.0,0.0,0.0,0.0,0.0,0.0,0.0,0.0,0.0,0.0,0.0,0.0,0.0,0.0,0.0,0.0,0.0,0.0,0.0,0.0,0.0,0.0,0.0,0.0,0.0,0.0,0.0,0.0,0.0,0.0,0.0,0.0,0.0,0.0,0.0,0.0,0.0,0.0,0.0,0.0,0.0,0.0,0.0,0.0,0.0,0.0,0.0,0.0,0.0,0.0,0.0,0.0,0.0,0.0,0.0,0.0,0.0,0.0,0.0,0.0,0.0,0.0,0.0,0.0,0.0,0.0,0.0,0.0,0.0,0.0,0.0,0.0,0.0,0.0,0.0,0.0,0.0,0.0,0.0,0.0,0.0,0.0,0.0,-3.2859,-3.2798,-3.2699,-3.2504,-3.3554,-3.3496,0.0,0.0,0.0,0.0,0.0,0.0,0.0,0.0,0.0,0.0,0.0,0.0,0.0,0.0,0.0,0.0,0.0,0.0,0.0,0.0,0.0,0.0,0.0,0.0,0.0,0.0,0.0,0.0,0.0,0.0,0.0,0.0,0.0,0.0,0.0,0.0,0.0,0.0,0.0,0.0,0.0,0.0,0.0,0.0,0.0,0.0,0.0,0.0,0.0,0.0,0.0,0.0,0.0,0.0,0.0,0.0,0.0,0.0,0.0,0.0,0.0,0.0,0.0,0.0,0.0,0.0,0.0,0.0,0.0,0.0,0.0,0.0,0.0,0.0,0.0,0.0,0.0,0.0,0.0,0.0,0.0,0.0,0.0,0.0,0.0,0.0,0.0,0.0,0.0,0.0,0.0,0.0,0.0,0.0,0.0,0.0,0.0,0.0,0.0,0.0,0.0,0.0,0.0,0.0,0.0,0.0,0.0,0.0,-3.2985,-3.2017,-3.1438,-3.1052,-3.0847,-3.2072,-3.2475,0.0,0.0,0.0,0.0,0.0,0.0,0.0,0.0,0.0,0.0,0.0,0.0,0.0,0.0,0.0,0.0,0.0,0.0,0.0,0.0,0.0,0.0,0.0,0.0,0.0,0.0,0.0,0.0,0.0,0.0,0.0,0.0,0.0,0.0,0.0,0.0,0.0,0.0,0.0,0.0,0.0,0.0,0.0,0.0,0.0,0.0,0.0,0.0,0.0,0.0,0.0,0.0,0.0,0.0,0.0,0.0,0.0,0.0,0.0,0.0,0.0,0.0,0.0,0.0,0.0,0.0,0.0,0.0,0.0,0.0,0.0,0.0,0.0,0.0,0.0,0.0,0.0,0.0,0.0,0.0,0.0,0.0,0.0,0.0,0.0,0.0,0.0,0.0,0.0,0.0,0.0,0.0,0.0,0.0,0.0,0.0,0.0,0.0,0.0,0.0,0.0,0.0,0.0,0.0,0.0,0.0,0.0,0.0,-3.2207,-3.118,-3.0217,-2.9608,-2.9458,-3.055,-3.1315,0.0,0.0,0.0,0.0,0.0,0.0,0.0,0.0,0.0,0.0,0.0,0.0,0.0,0.0,0.0,0.0,0.0,0.0,0.0,0.0,0.0,0.0,0.0,0.0,0.0,0.0,0.0,0.0,0.0,0.0,0.0,0.0,0.0,0.0,0.0,0.0,0.0,0.0,0.0,0.0,0.0,0.0,0.0,0.0,0.0,0.0,0.0,0.0,0.0,0.0,0.0,0.0,0.0,0.0,0.0,0.0,0.0,0.0,0.0,0.0,0.0,0.0,0.0,0.0,0.0,0.0,0.0,0.0,0.0,0.0,0.0,0.0,0.0,0.0,0.0,0.0,0.0,0.0,0.0,0.0,0.0,0.0,0.0,0.0,0.0,0.0,0.0,0.0,0.0,0.0,0.0,0.0,0.0,0.0,0.0,0.0,0.0,0.0,0.0,0.0,0.0,0.0,0.0,0.0,0.0,0.0,0.0,0.0,-3.1996,-3.0399,-2.9914,-2.958,-2.9343,-2.9946,-3.0405,0.0,0.0,0.0,0.0,0.0,0.0,0.0,0.0,0.0,0.0,0.0,0.0,0.0,0.0,0.0,0.0,0.0,0.0,0.0,0.0,0.0,0.0,0.0,0.0,0.0,0.0,0.0,0.0,0.0,0.0,0.0,0.0,0.0,0.0,0.0,0.0,0.0,0.0,0.0,0.0,0.0,0.0,0.0,0.0,0.0,0.0,0.0,0.0,-4.033,0.0,0.0,0.0,0.0,0.0,0.0,0.0,0.0,0.0,0.0,0.0,0.0,0.0,0.0,0.0,0.0,0.0,0.0,0.0,0.0,0.0,0.0,0.0,0.0,0.0,0.0,0.0,0.0,0.0,0.0,0.0,0.0,0.0,0.0,0.0,0.0,0.0,0.0,0.0,0.0,0.0,0.0,0.0,0.0,0.0,0.0,0.0,0.0,0.0,0.0,0.0,0.0,0.0,0.0,0.0,0.0,0.0,0.0,0.0,-3.19,-3.0106,-2.9786,-2.9532,-2.9262,-2.9337,-2.9705,0.0,0.0,0.0,0.0,0.0,0.0,0.0,0.0,0.0,0.0,0.0,0.0,0.0,0.0,0.0,0.0,0.0,0.0,0.0,0.0,0.0,0.0,0.0,0.0,0.0,0.0,0.0,0.0,0.0,0.0,0.0,0.0,0.0,0.0,0.0,0.0,0.0,0.0,0.0,0.0,0.0,0.0,0.0,0.0,0.0,0.0,0.0,0.0,0.0,0.0,0.0,0.0,0.0,0.0,0.0,0.0,0.0,0.0,0.0,0.0,0.0,0.0,0.0,0.0,0.0,0.0,0.0,0.0,0.0,0.0,0.0,0.0,0.0,0.0,0.0,0.0,0.0,0.0,0.0,0.0,0.0,0.0,0.0,0.0,0.0,0.0,0.0,0.0,0.0,0.0,0.0,0.0,0.0,0.0,0.0,0.0,0.0,0.0,0.0,0.0,0.0,0.0,0.0,0.0,0.0,0.0,0.0,-3.2828,-3.187,-3.0075,-2.9735,-2.9465,-2.9177,-2.8868,-2.9188,-3.0242,0.0,0.0,0.0,0.0,0.0,0.0,0.0,0.0,0.0,0.0,0.0,0.0,0.0,0.0,0.0,0.0,0.0,0.0,0.0,0.0,0.0,0.0,0.0,0.0,0.0,0.0,0.0,0.0,0.0,0.0,0.0,0.0,0.0,0.0,0.0,0.0,0.0,0.0,-3.6364,-3.7602,0.0,0.0,0.0,0.0,0.0,0.0,0.0,0.0,-4.0546,0.0,0.0,0.0,0.0,0.0,0.0,0.0,0.0,0.0,0.0,0.0,0.0,0.0,0.0,0.0,0.0,0.0,0.0,0.0,0.0,0.0,0.0,0.0,0.0,0.0,0.0,0.0,0.0,0.0,0.0,0.0,0.0,0.0,0.0,0.0,0.0,0.0,0.0,0.0,0.0,0.0,0.0,0.0,0.0,0.0,0.0,0.0,0.0,0.0,0.0,0.0,0.0,0.0,0.0,0.0,0.0,-3.2916,-3.2781,-3.1806,-2.9962,-2.97,-2.9451,-2.9123,-2.8839,-2.9174,-3.0145,0.0,0.0,0.0,0.0,0.0,0.0,0.0,0.0,0.0,0.0,0.0,0.0,0.0,0.0,0.0,0.0,0.0,0.0,0.0,0.0,0.0,0.0,0.0,0.0,0.0,0.0,0.0,0.0,0.0,0.0,0.0,0.0,0.0,0.0,0.0,0.0,0.0,0.0,0.0,-3.8323,-3.9095,0.0,0.0,0.0,0.0,0.0,0.0,0.0,0.0,-4.0496,0.0,0.0,0.0,0.0,0.0,0.0,0.0,0.0,0.0,0.0,0.0,0.0,0.0,0.0,0.0,0.0,0.0,0.0,0.0,0.0,0.0,0.0,0.0,0.0,0.0,0.0,0.0,0.0,0.0,0.0,0.0,0.0,0.0,0.0,0.0,0.0,0.0,0.0,0.0,0.0,0.0,0.0,0.0,0.0,0.0,0.0,0.0,0.0,0.0,0.0,0.0,0.0,0.0,0.0,0.0,-3.2881,-3.2275,-3.129,-2.9887,-2.9617,-2.9351,-2.91,-2.8767,-2.9094,0.0,0.0,0.0,0.0,0.0,0.0,0.0,0.0,0.0,0.0,0.0,0.0,0.0,0.0,0.0,0.0,0.0,0.0,0.0,0.0,0.0,0.0,0.0,0.0,0.0,0.0,0.0,0.0,0.0,0.0,0.0,0.0,0.0,0.0,0.0,0.0,0.0,0.0,0.0,0.0,-3.889,-3.9619,-4.0838,0.0,0.0,0.0,0.0,0.0,0.0,-4.053,-4.0496,0.0,0.0,0.0,0.0,0.0,0.0,0.0,0.0,0.0,0.0,0.0,0.0,0.0,0.0,0.0,0.0,0.0,0.0,0.0,0.0,0.0,0.0,0.0,0.0,0.0,0.0,0.0,0.0,0.0,0.0,0.0,0.0,0.0,0.0,0.0,0.0,0.0,0.0,0.0,0.0,0.0,0.0,0.0,0.0,0.0,0.0,0.0,0.0,0.0,0.0,0.0,0.0,0.0,0.0,0.0,-3.28,-3.1794,-3.0791,-2.9819,-2.9503,-2.9278,-2.9067,-2.8694,-2.9044,0.0,0.0,0.0,0.0,0.0,0.0,0.0,0.0,0.0,0.0,0.0,0.0,0.0,0.0,0.0,0.0,0.0,0.0,0.0,0.0,0.0,0.0,0.0,0.0,0.0,0.0,0.0,0.0,0.0,0.0,0.0,0.0,0.0,0.0,0.0,0.0,0.0,0.0,0.0,0.0,0.0,-4.0088,-4.0875,-4.0921,0.0,0.0,0.0,0.0,-4.0581,-4.0542,0.0,0.0,0.0,0.0,0.0,0.0,0.0,0.0,0.0,0.0,0.0,0.0,0.0,0.0,0.0,0.0,0.0,0.0,0.0,0.0,0.0,0.0,0.0,0.0,0.0,0.0,0.0,0.0,0.0,0.0,0.0,0.0,0.0,0.0,0.0,0.0,0.0,0.0,0.0,0.0,0.0,0.0,0.0,0.0,0.0,0.0,0.0,0.0,0.0,0.0,0.0,0.0,0.0,0.0,0.0,0.0,-3.28,-3.1752,-3.0684,-2.9664,-2.9425,-2.9185,-2.8929,-2.8644,-2.9044,0.0,0.0,0.0,0.0,0.0,0.0,0.0,0.0,0.0,0.0,0.0,0.0,0.0,0.0,0.0,0.0,0.0,0.0,0.0,0.0,0.0,0.0,0.0,0.0,0.0,0.0,0.0,0.0,0.0,0.0,0.0,0.0,0.0,0.0,0.0,0.0,0.0,0.0,0.0,0.0,0.0,-4.0071,-4.0818,-4.0888,-4.0856,0.0,0.0,-4.06,-4.0583,-4.0539,0.0,0.0,0.0,0.0,0.0,0.0,0.0,0.0,0.0,0.0,0.0,0.0,0.0,0.0,0.0,0.0,0.0,0.0,0.0,0.0,0.0,0.0,0.0,0.0,0.0,0.0,0.0,0.0,0.0,0.0,0.0,0.0,0.0,0.0,0.0,0.0,0.0,0.0,0.0,0.0,0.0,0.0,0.0,0.0,0.0,0.0,0.0,0.0,0.0,0.0,0.0,0.0,0.0,0.0,0.0,-3.31,-3.2665,-3.1176,-3.011,-2.957,-2.9392,-2.9167,-2.8846,-2.8582,-2.8989,0.0,0.0,0.0,0.0,0.0,0.0,0.0,0.0,0.0,0.0,0.0,0.0,0.0,0.0,0.0,0.0,0.0,0.0,0.0,0.0,0.0,0.0,0.0,0.0,0.0,0.0,0.0,0.0,0.0,0.0,0.0,0.0,0.0,0.0,0.0,0.0,0.0,0.0,0.0,0.0,0.0,0.0,-4.0854,-4.0828,0.0,0.0,0.0,-4.0598,-4.0586,0.0,0.0,0.0,0.0,0.0,0.0,0.0,0.0,0.0,0.0,0.0,0.0,0.0,0.0,0.0,0.0,0.0,0.0,0.0,0.0,0.0,0.0,0.0,0.0,0.0,0.0,0.0,0.0,0.0,0.0,0.0,0.0,0.0,0.0,0.0,0.0,0.0,0.0,0.0,0.0,0.0,0.0,0.0,0.0,0.0,0.0,0.0,0.0,0.0,0.0,0.0,0.0,0.0,0.0,0.0,0.0,0.0,-3.2532,-3.0698,-2.9664,-2.9444,-2.9315,-2.9104,-2.8785,-2.8518,0.0,0.0,0.0,0.0,0.0,0.0,0.0,0.0,0.0,0.0,0.0,0.0,0.0,0.0,0.0,0.0,0.0,0.0,0.0,0.0,0.0,0.0,0.0,0.0,0.0,0.0,0.0,-3.5632,0.0,0.0,0.0,0.0,0.0,0.0,0.0,0.0,0.0,0.0,0.0,0.0,0.0,0.0,-4.0898,-4.0854,-4.0779,-4.0687,0.0,0.0,-4.0598,-4.0588,-4.0586,-4.0591,0.0,0.0,0.0,0.0,0.0,0.0,0.0,0.0,0.0,0.0,0.0,0.0,0.0,0.0,0.0,0.0,0.0,0.0,0.0,0.0,0.0,0.0,0.0,0.0,0.0,0.0,0.0,0.0,0.0,0.0,0.0,0.0,0.0,0.0,0.0,0.0,0.0,0.0,0.0,0.0,0.0,0.0,0.0,0.0,0.0,0.0,0.0,0.0,0.0,0.0,0.0,0.0,0.0,0.0,-3.2556,-3.2425,-3.06,-2.9523,-2.9314,-2.9115,-2.8935,-2.8706,-2.8458,-2.8881,0.0,0.0,0.0,0.0,0.0,0.0,0.0,0.0,0.0,0.0,0.0,0.0,0.0,0.0,0.0,0.0,0.0,0.0,0.0,0.0,0.0,0.0,0.0,0.0,0.0,0.0,0.0,0.0,0.0,0.0,0.0,0.0,0.0,0.0,0.0,0.0,0.0,0.0,0.0,0.0,0.0,-4.0854,-4.0724,-4.0719,-4.0675,0.0,0.0,-4.0588,-4.0595,-4.0595,-4.0588,-4.0595,0.0,0.0,0.0,0.0,0.0,0.0,0.0,0.0,0.0,0.0,0.0,0.0,0.0,0.0,0.0,0.0,0.0,0.0,0.0,0.0,0.0,0.0,0.0,0.0,0.0,0.0,0.0,0.0,0.0,0.0,0.0,0.0,0.0,0.0,0.0,0.0,0.0,0.0,0.0,0.0,0.0,0.0,0.0,0.0,0.0,0.0,0.0,0.0,0.0,0.0,0.0,0.0,0.0,-3.2439,-3.2343,-3.049,-2.9463,-2.9307,-2.9134,-2.8917,-2.865,-2.8466,-2.8691,0.0,0.0,0.0,0.0,0.0,0.0,0.0,0.0,0.0,0.0,0.0,0.0,0.0,0.0,0.0,0.0,0.0,0.0,0.0,0.0,0.0,0.0,0.0,0.0,0.0,0.0,0.0,0.0,-3.584,-3.5923,-3.5987,0.0,0.0,0.0,0.0,0.0,0.0,0.0,0.0,0.0,0.0,-4.0742,-4.0713,-4.0668,0.0,0.0,-4.0647,-4.0668,-4.0655,-4.0694,-4.0713,-4.0738,-4.0718,0.0,0.0,0.0,0.0,0.0,0.0,0.0,0.0,0.0,0.0,0.0,0.0,0.0,0.0,0.0,0.0,0.0,0.0,0.0,0.0,0.0,0.0,0.0,0.0,0.0,0.0,0.0,0.0,0.0,0.0,0.0,0.0,0.0,0.0,0.0,0.0,0.0,0.0,0.0,0.0,0.0,0.0,0.0,0.0,0.0,0.0,0.0,0.0,0.0,0.0,0.0,0.0,-3.2344,-3.225,-3.0384,-2.9372,-2.9229,-2.9096,-2.887,-2.8618,-2.8427,-2.8503,0.0,0.0,0.0,0.0,0.0,0.0,0.0,0.0,0.0,0.0,0.0,0.0,0.0,0.0,0.0,0.0,0.0,0.0,0.0,0.0,0.0,0.0,0.0,0.0,0.0,0.0,0.0,0.0,-3.5892,-3.5949,-3.5974,0.0,0.0,0.0,0.0,0.0,0.0,0.0,0.0,0.0,0.0,-4.0707,-4.0674,-4.0641,-4.0622,-4.0629,-4.0688,-4.0739,-4.0718,-4.0767,-4.0834,-4.0837,0.0,0.0,0.0,0.0,0.0,0.0,0.0,0.0,0.0,0.0,0.0,0.0,0.0,0.0,0.0,0.0,0.0,0.0,0.0,0.0,0.0,0.0,0.0,0.0,0.0,0.0,0.0,0.0,0.0,0.0,-3.4793,0.0,0.0,0.0,0.0,0.0,0.0,0.0,0.0,0.0,0.0,0.0,0.0,0.0,0.0,0.0,0.0,0.0,0.0,0.0,0.0,0.0,0.0,-3.2298,-3.2083,-3.0253,-2.9238,-2.91,-2.8905,-2.8755,-2.86,-2.8335,-2.8422,-2.8877,0.0,0.0,0.0,0.0,0.0,0.0,0.0,0.0,0.0,0.0,0.0,0.0,0.0,0.0,0.0,0.0,0.0,0.0,0.0,0.0,0.0,0.0,0.0,0.0,0.0,0.0,-3.5791,-3.5906,-3.6007,0.0,0.0,0.0,0.0,0.0,0.0,0.0,0.0,0.0,0.0,-4.0256,-4.0764,-4.0609,-4.0655,-4.0674,-4.0674,-4.0738,-4.0787,-4.0782,-4.0848,-4.0902,0.0,0.0,0.0,0.0,0.0,0.0,0.0,0.0,0.0,0.0,0.0,0.0,0.0,0.0,0.0,0.0,0.0,0.0,0.0,0.0,0.0,0.0,0.0,0.0,0.0,0.0,0.0,-3.472,-3.4699,0.0,0.0,0.0,0.0,0.0,0.0,0.0,0.0,0.0,0.0,0.0,-3.2751,-3.2477,0.0,0.0,0.0,0.0,0.0,0.0,0.0,0.0,0.0,0.0,0.0,0.0,-3.2081,-3.1891,-3.0166,-2.92,-2.9089,-2.894,-2.8785,-2.86,-2.8393,-2.8365,-2.8563,0.0,0.0,0.0,0.0,0.0,0.0,0.0,0.0,0.0,0.0,0.0,0.0,0.0,0.0,0.0,0.0,0.0,0.0,0.0,0.0,0.0,0.0,0.0,0.0,0.0,-3.5747,0.0,0.0,0.0,0.0,0.0,0.0,0.0,0.0,0.0,0.0,0.0,-3.8825,-4.0122,-4.0544,-4.0745,-4.0732,-4.0767,-4.0588,0.0,0.0,0.0,0.0,0.0,0.0,0.0,0.0,0.0,0.0,0.0,0.0,0.0,0.0,-4.224,-4.2276,-4.1618,-4.1106,-4.1102,0.0,0.0,0.0,0.0,0.0,0.0,0.0,0.0,0.0,0.0,0.0,0.0,0.0,0.0,-3.4484,0.0,-3.4461,0.0,0.0,0.0,0.0,0.0,0.0,0.0,0.0,-3.1956,-3.1633,-3.1732,-3.1478,-3.1374,0.0,-3.1739,-3.221,0.0,0.0,0.0,0.0,0.0,0.0,0.0,0.0,-3.1773,-3.1329,-2.9935,-2.9123,-2.9074,-2.894,-2.8785,-2.8618,-2.8268,-2.805,-2.7988,-2.8065,-2.8544,0.0,0.0,0.0,0.0,0.0,0.0,0.0,0.0,0.0,0.0,0.0,0.0,0.0,0.0,0.0,0.0,0.0,0.0,0.0,0.0,0.0,0.0,0.0,-3.583,0.0,0.0,0.0,0.0,0.0,0.0,0.0,0.0,0.0,-3.7815,-3.8212,-3.8863,-4.0144,-4.0341,-4.0366,-4.0372,0.0,0.0,0.0,0.0,0.0,0.0,0.0,-4.0231,-4.0536,-4.0587,-4.0863,-4.1666,-4.2256,-4.2645,-4.265,0.0,0.0,-4.2281,-4.1661,-4.1117,-4.1108,-4.1111,-4.1152,-4.1191,-4.1191,-4.1191,0.0,0.0,0.0,0.0,0.0,0.0,0.0,0.0,-3.4293,-3.4257,0.0,-3.4197,0.0,0.0,0.0,0.0,0.0,-3.2908,0.0,0.0,-3.0931,-3.0583,-3.0603,-2.9884,-2.9588,-2.973,-3.049,-3.0856,-3.096,-3.2704,0.0,0.0,0.0,0.0,0.0,0.0,-3.1366,-3.0438,-2.9547,-2.9055,-2.8987,-2.8858,-2.8743,-2.8574,-2.8017,-2.7552,-2.7247,-2.7823,-2.8151,-2.8152,-2.9782,0.0,0.0,0.0,0.0,0.0,0.0,0.0,0.0,0.0,0.0,0.0,0.0,0.0,0.0,0.0,0.0,0.0,0.0,0.0,0.0,-3.582,0.0,0.0,0.0,0.0,0.0,0.0,0.0,0.0,0.0,0.0,-3.7062,-3.7907,-3.872,-3.9466,0.0,0.0,0.0,0.0,-3.8397,-3.8377,-3.8449,-3.8513,-3.8458,-3.8511,-3.8811,-3.9633,0.0,0.0,-4.0978,-4.1057,-4.1089,-4.1092,-4.1122,-4.1321,-4.211,-4.1617,-4.1122,-4.111,-4.1152,-4.1191,-4.1191,-4.1055,-4.0996,-3.485,0.0,0.0,0.0,0.0,-3.4228,-3.4148,-3.4086,-3.4086,-3.4074,-3.4061,-3.4061,0.0,0.0,0.0,0.0,0.0,0.0,-3.102,-3.0754,-2.9965,-2.9657,-2.9691,-2.9469,-2.938,-2.9414,-2.9656,-2.9749,-2.9805,-3.0922,-3.1807,-3.2449,0.0,0.0,0.0,0.0,-3.06,-3.0302,-2.946,-2.9028,-2.8987,-2.8858,-2.865,-2.8309,-2.7918,-2.7565,-2.7357,-2.7437,-2.7767,-2.8366,-2.9062,0.0,0.0,0.0,0.0,0.0,0.0,0.0,0.0,0.0,0.0,0.0,0.0,0.0,0.0,0.0,0.0,0.0,0.0,0.0,-3.583,-3.5916,-3.5983,0.0,0.0,0.0,0.0,0.0,0.0,0.0,0.0,0.0,-3.618,-3.6953,-3.7782,0.0,0.0,-3.8792,-3.8816,-3.861,-3.8264,-3.7622,-3.8087,0.0,-3.7734,-3.8126,-3.8598,-3.8896,-3.9409,-4.0079,-4.0944,-4.1074,-4.107,-4.1099,-4.0634,-4.0342,-4.0558,-4.0912,-4.1071,-4.1111,-4.1152,-4.1191,-4.1152,-4.0254,-3.9551,-3.4964,-3.4739,-3.4431,-3.4233,-3.4086,-3.4011,-3.3941,-3.3921,-3.3921,-3.3921,-3.3921,-3.3921,-3.3742,-3.341,-3.2594,0.0,0.0,0.0,-3.0155,-2.9823,-2.9362,-2.9145,-2.9237,-2.9207,-2.9232,-2.9267,-2.9259,-2.9267,-2.9267,-2.9797,-3.0312,-3.0875,0.0,0.0,-3.1145,-3.0572,-3.0139,-2.9791,-2.9267,-2.8987,-2.8987,-2.8828,-2.8543,-2.8219,-2.7876,-2.7597,-2.7419,-2.7326,-2.7549,-2.8141,-2.8702,-2.9361,0.0,0.0,0.0,0.0,0.0,0.0,0.0,0.0,0.0,0.0,0.0,-3.5107,-3.5281,0.0,0.0,0.0,-3.5649,-3.5776,-3.5886,-3.5953,0.0,0.0,0.0,0.0,0.0,0.0,0.0,-3.5953,-3.5924,-3.5878,-3.5837,-3.6237,-3.6867,-3.7714,-3.787,-3.7909,-3.7968,0.0,-3.7282,-3.6794,-3.7161,-3.7335,-3.6886,-3.7198,-3.7648,-3.8023,-3.8764,-3.9469,-3.998,-4.0115,-4.0114,-4.0058,-3.9707,-3.9375,-3.9375,-3.9785,-4.0117,-4.0116,-4.0312,-4.041,-4.0234,-3.9121,-3.8476,-3.4992,-3.4792,-3.4401,-3.4124,-3.3921,-3.3847,-3.382,-3.382,-3.3807,-3.3807,-3.3807,-3.3807,-3.333,-3.2454,-3.1659,0.0,-3.0099,-3.0106,-2.9702,-2.8987,-2.8987,-2.9021,-2.9089,-2.9096,-2.9123,-2.9178,-2.9178,-2.9197,-2.9178,-2.9197,-2.9163,-2.9115,-3.0678,-3.103,-3.0231,-3.0182,-2.9798,-2.9012,-2.8975,-2.8964,-2.897,-2.8712,-2.844,-2.8191,-2.7876,-2.7597,-2.7436,-2.7438,-2.7483,-2.765,-2.8594,-2.9269,-2.9647,0.0,0.0,0.0,0.0,0.0,0.0,0.0,0.0,0.0,0.0,0.0,0.0,0.0,0.0,0.0,-3.572,0.0,-3.5906,-3.5955,0.0,0.0,0.0,-3.6015,-3.6011,-3.6021,-3.5981,-3.5912,0.0,0.0,-3.5791,-3.5726,-3.6017,-3.6866,-3.6989,-3.7006,-3.7082,-3.6432,-3.5912,-3.6032,-3.5995,-3.6035,-3.6093,-3.6133,-3.6445,-3.7245,-3.7968,-3.8515,-3.8689,-3.8689,-3.863,-3.8708,-3.857,-3.8492,-3.8511,-3.8473,-3.8395,-3.8398,-3.8867,-3.9141,-3.8789,-3.8086,-3.7715,-3.4547,-3.4927,-3.4678,-3.4397,-3.4111,-3.3947,-3.3868,-3.3868,-3.3815,-3.3807,-3.3807,-3.3807,-3.3018,-3.1641,-3.0834,-3.0044,-2.928,-2.928,-2.9189,-2.9005,-2.8987,-2.9005,-2.9028,-2.9028,-2.904,-2.9051,-2.9033,-2.9033,-2.9051,-2.8998,-2.8964,-2.897,-2.9295,-2.9398,-2.9245,-2.9245,-2.91,-2.8864,-2.8852,-2.8798,-2.8687,-2.8541,-2.8331,-2.8071,-2.7803,-2.763,-2.7496,-2.7569,-2.7704,-2.7914,-2.8324,-2.872,-2.894,-3.0615,0.0,0.0,0.0,0.0,0.0,0.0,0.0,0.0,0.0,-3.5281,-3.5364,0.0,-3.5578,0.0,-3.5768,-3.5902,-3.5983,-3.5986,0.0,0.0,-3.6016,-3.6014,-3.6011,-3.6016,-3.5972,-3.5899,-3.5859,-3.5763,-3.5659,-3.5626,-3.5687,-3.5935,-3.6058,-3.6112,-3.6108,-3.6009,-3.5894,-3.5885,-3.5917,-3.6022,-3.5944,-3.6022,-3.6258,-3.716,-3.7493,-3.7826,-3.8491,-3.8609,-3.8609,-3.857,-3.8022,-3.7671,-3.7611,-3.7104,-3.6675,-3.6676,-3.74,-3.822,-3.8495,-3.7441,-3.666,-3.3689,-3.3916,-3.3705,-3.3486,-3.3261,-3.3772,-3.3959,-3.3913,-3.3855,-3.3834,-3.3752,-3.3036,-3.2027,-3.0834,-3.0044,-2.9427,-2.9005,-2.8987,-2.8987,-2.8987,-2.8987,-2.8994,-2.897,-2.8952,-2.8929,-2.8923,-2.8905,-2.8905,-2.8905,-2.887,-2.8846,-2.8803,-2.8749,-2.87,-2.8669,-2.8798,-2.8822,-2.8761,-2.8743,-2.8687,-2.851,-2.8362,-2.8174,-2.7908,-2.7748,-2.7615,-2.7557,-2.7689,-2.7879,-2.8122,-2.8353,-2.8574,-2.8785,-3.0064,-3.084,0.0,0.0,0.0,0.0,0.0,0.0,0.0,0.0,0.0,0.0,0.0,-3.5626,-3.5694,-3.5824,-3.5925,-3.5996,-3.6011,-3.6015,-3.6016,-3.6015,-3.6011,-3.6005,-3.5989,-3.594,-3.5875,-3.583,-3.5611,-3.5104,-3.5029,-3.4852,-3.4481,-3.4489,-3.4729,-3.5135,-3.5243,-3.516,-3.4808,-3.4772,-3.4804,-3.4825,-3.5157,-3.5531,-3.6048,-3.648,-3.6891,-3.7364,-3.7442,-3.7442,-3.7403,-3.7052,-3.672,-3.6699,-3.6367,-3.6016,-3.6035,-3.6174,-3.663,-3.7281,-3.6677,-3.617,-3.2696,-3.2591,-3.2396,-3.2203,-3.2125,-3.3304,-3.3734,-3.3594,-3.3582,-3.3542,-3.3403,-3.1911,-3.0852,-3.0155,-2.9354,-2.8987,-2.8987,-2.8987,-2.8987,-2.8987,-2.8994,-2.8952,-2.8905,-2.8863,-2.8846,-2.8785,-2.8773,-2.8792,-2.8761,-2.8761,-2.8737,-2.8675,-2.8587,-2.8484,-2.8353,-2.8574,-2.8657,-2.8632,-2.8632,-2.8549,-2.834,-2.8232,-2.8035,-2.776,-2.7659,-2.7585,-2.7602,-2.7763,-2.7993,-2.83,-2.851,-2.87,-2.8893,-2.9727,-3.0239,0.0,-3.1848,0.0,0.0,0.0,0.0,0.0,0.0,0.0,0.0,-3.5573,-3.5667,-3.5791,-3.5855,-3.5923,-3.5984,-3.6014,-3.6015,-3.6014,-3.6012,-3.6005,-3.6012,-3.5935,-3.5827,-3.5652,-3.5632,-3.5262,-3.4309,-3.4149,-3.3799,-3.3192,-3.3112,-3.3376,-3.3964,-3.4241,-3.4107,-3.3381,-3.3284,-3.3536,-3.3583,-3.4033,-3.4464,-3.4612,-3.5123,-3.5648,-3.5633,-3.5652,-3.5672,-3.5652,-3.5635,-3.5615,-3.5674,-3.5635,-3.5637,-3.552,-3.5041,-3.4916,-3.5634,-3.5697,-3.5659,-3.2218,-3.2664,-3.2476,-3.2298,-3.2181,-3.2334,-3.2265,-3.2035,-3.1992,-3.1924,-3.1782,-3.0852,-3.0338,-3.0155,-2.9354,-2.8987,-2.8987,-2.8987,-2.8987,-2.8987,-2.894,-2.8917,-2.8887,-2.881,-2.8737,-2.8724,-2.8644,-2.8637,-2.8656,-2.8587,-2.8523,-2.8445,-2.8322,-2.8201,-2.8099,0.0,0.0,0.0,-2.8282,-2.8232,-2.8085,-2.795,-2.7774,-2.7572,-2.7602,0.0,-2.7617,-2.7882,-2.815,-2.8367,-2.8574,0.0,0.0,0.0,0.0,0.0,0.0,0.0,0.0,0.0,0.0,0.0,-3.4985,-3.5474,-3.5496,-3.5623,-3.5736,-3.5869,-3.5895,-3.5911,-3.5988,-3.6015,-3.6014,-3.6014,-3.6006,-3.6013,-3.6002,-3.5919,-3.5608,-3.4834,-3.475,-3.4375,-3.3503,-3.328,-3.3169,-3.2921,-3.2985,-3.2794,-3.2386,-3.2981,-3.3358,-3.3231,-3.3112,-3.3255,-3.3326,-3.3423,-3.3546,-3.3599,-3.366,-3.386,-3.3912,-3.3894,-3.388,-3.3962,-3.3906,-3.393,-3.3938,-3.3901,-3.3996,-3.392,-3.3766,-3.391,-3.4746,-3.4381,-3.3897,-3.1244,0.0,-3.134,-3.1159,0.0,-3.0882,-3.0679,-3.0531,-3.1235,-3.1268,-3.0779,-3.0375,-2.9989,-2.9574,-2.917,-2.8987,-2.8987,-2.8952,-2.8952,-2.894,-2.8881,-2.8803,-2.8743,-2.8687,-2.8594,-2.8562,-2.851,-2.8471,-2.8458,-2.8414,-2.834,-2.8191,-2.8063,-2.7918,-2.781,-2.773,-2.7803,-2.7989,-2.8063,-2.8011,-2.7827,-2.7704,-2.7602,-2.7467,0.0,0.0,0.0,0.0,0.0,0.0,0.0,0.0,0.0,0.0,0.0,-2.9857,-3.073,-3.1374,-3.1629,-3.253,-3.3367,-3.3964,-3.4962,-3.556,-3.5558,-3.5679,-3.5779,-3.5882,-3.5921,-3.5957,-3.5992,-3.6015,-3.6012,-3.6007,-3.5973,-3.5955,-3.5899,-3.5494,-3.5022,-3.4564,-3.4083,-3.3456,-3.2587,-3.2389,-3.2162,-3.1805,-3.1715,-3.1584,-3.1295,-3.1927,-3.2391,-3.1999,-3.1926,-3.1988,-3.2045,-3.2398,-3.2638,-3.2675,-3.2992,-3.3232,-3.329,-3.3293,-3.3298,-3.3345,-3.3348,-3.3351,-3.3336,-3.3339,-3.3358,-3.33,-3.3013,-3.2827,-3.3308,-3.3362,-3.3396,-3.0419,-3.0286,-3.0161,-3.0002,-2.9808,-2.9664,-2.9481,-2.9373,0.0,0.0,0.0,-2.9989,-2.9629,-2.9005,-2.8987,-2.8994,-2.8982,-2.8929,-2.8893,-2.8881,-2.8798,-2.87,-2.86,-2.8549,-2.8471,-2.8371,-2.8327,-2.8304,-2.8246,-2.8232,-2.8105,-2.7954,-2.7821,-2.7689,-2.7574,-2.7513,-2.7539,-2.7719,-2.7853,-2.7795,-2.7572,-2.7511,-2.7452,-2.7409,-2.7529,-2.7659,-2.7818,-2.8132,-2.8414,-2.8682,-2.8761,-2.8881,-2.9096,-2.9119,-2.9178,-2.932,-3.0068,-3.062,-3.0808,-3.1748,-3.2813,-3.3978,-3.4995,-3.5604,-3.5618,-3.5736,-3.5834,-3.5891,-3.597,-3.6022,-3.6014,-3.6014,-3.6006,-3.6013,-3.5798,-3.5658,-3.5613,-3.4831,-3.4179,-3.3971,-3.3296,-3.2536,-3.1681,-3.1513,-3.1214,-3.0608,-3.0543,-3.0392,-3.048,-3.1099,-3.1371,-3.0866,-3.0802,-3.0694,-3.0781,-3.1255,-3.1674,-3.1771,-3.2279,-3.2734,-3.2806,-3.2829,-3.2836,-3.2694,-3.283,-3.2775,-3.2798,-3.2723,-3.2837,-3.2856,-3.2285,-3.1771,-3.1832,-3.2365,-3.282,-3.0428,-3.0286,-3.0157,-3.0018,-2.9878,-2.9683,-2.9451,-2.9229,-2.9392,-2.9343,-2.917,-2.917,-2.9115,-2.8987,-2.8987,-2.897,-2.8917,-2.8905,-2.887,0.0,-2.8675,-2.8612,-2.8605,-2.8371,-2.825,-2.8223,-2.8095,-2.8039,-2.8025,-2.7936,-2.7832,-2.773,-2.7615,-2.7465,-2.7343,-2.7392,-2.7392,-2.7376,-2.7496,-2.7529,-2.7423,-2.7407,-2.7407,-2.7407,-2.7544,-2.7721,-2.7968,-2.8178,-2.8432,-2.87,-2.8792,-2.8893,-2.9078,-2.9145,-2.9232,-2.9293,-2.9634,-2.9907,-3.0057,-3.0982,-3.2335,-3.4077,-3.5098,-3.5623,-3.5694,-3.5749,-3.5837,-3.5902,-3.5965,-3.6007,-3.6014,-3.5994,-3.5944,-3.5914,-3.526,-3.4776,-3.4763,-3.3952,-3.3103,-3.2401,-3.2068,-3.1637,-3.0868,-3.0648,-3.0612,-3.0429,-3.0385,-3.0402,-3.0425,-3.0546,-3.064,-3.0525,-3.0492,-3.0535,-3.0634,-3.0686,-3.0869,-3.0788,-3.0944,-3.1161,-3.1184,-3.1208,-3.1212,-3.1119,-3.1239,-3.1207,-3.1164,-3.105,-3.1206,-3.1264,-3.1061,-3.0954,-3.0973,-3.115,-3.1198,-3.049,-3.0336,-3.0206,-3.0053,-2.9893,-2.9636,-2.9421,-2.9218,-2.9167,-2.9078,-2.9005,-2.8987,-2.8982,-2.894,-2.894,-2.8923,-2.8846,-2.8803,-2.8761,-2.8705,-2.86,-2.8484,-2.8384,-2.825,-2.8154,-2.8085,-2.7968,-2.7879,-2.7836,-2.7733,-2.763,-2.7526,-2.7436,-2.7343,-2.7315,-2.7313,-2.7313,-2.7315,-2.7392,-2.7405,-2.7345,-2.7376,-2.7409,-2.7392,-2.7602,-2.7806,-2.8056,-2.8246,-2.8471,-2.8749,-2.8785,-2.8905,-2.9134,-2.9218,-2.9326,-2.9453,-2.9608,-2.9771,-2.9943,-3.0916,-3.1936,-3.2888,-3.4206,-3.5006,-3.5083,-3.5542,-3.5827,-3.5897,-3.5971,-3.601,-3.5976,-3.5582,-3.5295,-3.5252,-3.444,-3.3916,-3.3799,-3.3079,-3.2329,-3.1835,-3.1376,-3.0925,-3.0461,-3.0369,-3.0346,-3.0367,-3.0349,-3.0343,-3.0361,-3.0373,-3.0433,-3.0479,-3.0481,-3.051,-3.0554,-3.054,-3.0545,-3.055,-3.0535,-3.054,-3.0544,-3.0549,-3.0563,-3.0585,-3.0617,-3.0649,-3.0645,-3.0653,-3.0638,-3.0638,-3.0642,-3.063,-3.063,-3.0674,-3.0716,-3.0506,-3.0385,-3.0253,-3.0057,-2.9841,-2.9589,-2.9382,-2.92,-2.9207,-2.9123,-2.9005,-2.8994,-2.894,-2.8905,-2.8875,-2.8827,-2.8773,-2.8712,-2.8632,-2.8574,-2.8484,-2.8358,-2.8213,-2.814,-2.8025,-2.7925,-2.7789,-2.7719,-2.7642,-2.7569,-2.7498,-2.7393,-2.7313,-2.7315,-2.7315,-2.7315,-2.7315,-2.7315,-2.7345,-2.7345,-2.733,-2.7378,-2.744,-2.7483,-2.7674,-2.7908,-2.8136,-2.8318,-2.8523,-2.8773,-2.881,-2.894,-2.9178,-2.9272,-2.938,-2.9569,-2.9673,-2.9813,-3.0091,-3.1033,-3.1671,-3.1815,-3.3234,-3.4197,-3.4333,-3.487,-3.5471,-3.583,-3.5782,-3.568,-3.5566,-3.4914,-3.4389,-3.4276,-3.3543,-3.3018,-3.2893,-3.2162,-3.1587,-3.1444,-3.0886,-3.0472,-3.0375,-3.0328,-3.0317,-3.0311,-3.0311,-3.0312,-3.0312,-3.0312,-3.0343,-3.0408,-3.0442,-3.0447,-3.0453,-3.0458,-3.0458,-3.0477,-3.0474,-3.0465,-3.0476,-3.0486,-3.0496,-3.0501,-3.054,-3.0573,-3.0573,-3.0582,-3.0591,-3.0572,-3.0576,-3.0585,-3.0606,-3.0634,-3.0681,-3.0521,-3.0394,-3.026,-3.0014,-2.9719,-2.9569,-2.9401,-2.9211,-2.9207,-2.9123,-2.9005,-2.894,-2.8905,-2.8893,-2.8834,-2.8773,-2.8694,-2.865,-2.8574,-2.8497,-2.8318,-2.8227,-2.8154,-2.7893,-2.7745,-2.7716,-2.7585,-2.7542,-2.7526,-2.7452,-2.7376,-2.733,-2.7315,-2.7299,-2.7315,-2.7299,-2.7315,-2.7315,-2.7315,-2.7346,-2.7393,-2.7409,-2.7483,-2.7657,-2.776,-2.7947,-2.8259,-2.8353,-2.851,-2.8773,-2.8858,-2.8968,-2.9178,-2.9249,-2.9402,-2.9588,-2.9719,-2.9907,-3.0204,-3.1142,-3.1692,-3.1858,-3.2705,-3.3344,-3.3414,-3.3557,-3.4313,-3.5375,-3.5243,-3.4843,-3.4765,-3.403,-3.3521,-3.3455,-3.2692,-3.2114,-3.1953,-3.1271,-3.068,-3.0635,-3.0538,-3.0385,-3.0342,-3.0299,-3.0312,-3.0286,-3.0292,-3.0266,-3.0292,-3.0292,-3.0273,-3.0305,-3.0311,-3.0324,-3.0336,-3.0322,-3.0354,-3.041,-3.0419,-3.0411,-3.0422,-3.0458,-3.049,-3.0469,-3.049,-3.0495,-3.0495,-3.05,-3.05,-3.052,-3.0511,-3.0525,-3.0586,-3.0617,-3.0638,-3.0558,-3.0406,-3.0248,-3.0011,-2.9701,-2.956,-2.9401,-2.9218,-2.9207,-2.91,-2.8959,-2.887,-2.8834,-2.8834,-2.8724,-2.865,-2.8569,-2.8492,-2.8419,-2.8331,-2.8237,-2.8081,-2.7893,-2.7774,-2.7674,-2.7569,-2.7498,-2.7436,-2.7423,-2.7296,-2.7201,-2.7138,-2.7105,-2.7137,-2.7185,-2.7201,-2.72,-2.7315,-2.7315,-2.7345,-2.7452,-2.7452,-2.7542,-2.7686,-2.7832,-2.8053,-2.8273,-2.8371,-2.8523,-2.8773,-2.887,-2.8998,-2.9189,-2.9299,-2.9453,-2.9645,-2.9857,-3.0064,-3.0253,-3.0723,-3.1035,-3.1091,-3.1957,-3.2502,-3.2561,-3.3056,-3.3732,-3.4237,-3.4134,-3.3926,-3.3863,-3.3146,-3.2617,-3.2484,-3.1779,-3.1202,-3.1118,-3.0819,-3.0569,-3.0461,-3.0402,-3.038,-3.0299,-3.0266,-3.0239,-3.0204,-3.019,-3.0171,-3.019,-3.019,-3.0171,-3.019,-3.0171,-3.0213,-3.0267,-3.0311,-3.0318,-3.0324,-3.0343,-3.0329,-3.0336,-3.0361,-3.0373,-3.0398,-3.0396,-3.0414,-3.0444,-3.0447,-3.0458,-3.0469,-3.0485,-3.051,-3.0545,-3.0568,-3.0604,-3.0593,-3.0428,-3.0235,-2.9969,-2.9701,-2.9541,-2.9372,-2.9229,-2.9207,-2.9089,-2.8905,-2.8834,-2.8792,-2.8724,-2.8625,-2.8531,-2.8479,-2.838,-2.8304,-2.8196,-2.8126,-2.7918,-2.7698,-2.7644,-2.7572,-2.7465,-2.7357,-2.7296,-2.7282,-2.7152,-2.7055,-2.7008,-2.7008,-2.7024,-2.707,-2.7086,-2.7135,-2.725,-2.7299,-2.736,-2.7467,-2.7496,-2.7602,-2.776,-2.7925,-2.8095,-2.8331,-2.8384,-2.851,-2.8773,-2.8881,-2.901,-2.9189,-2.9341,-2.9522,-2.9746,-2.998,-3.0173,-3.0299,-3.0425,-3.053,-3.0643,-3.1269,-3.1656,-3.177,-3.2296,-3.2653,-3.2725,-3.2712,-3.2753,-3.296,-3.2262,-3.1748,-3.1624,-3.1038,-3.0692,-3.0638,-3.0554,-3.0509,-3.0402,-3.0349,-3.0331,-3.0266,-3.0178,-3.014,-3.0076,-3.0053,-3.0038,-3.0038,-3.0065,-3.0046,-3.0038,-3.0038,-3.0098,-3.0206,-3.0226,-3.0233,-3.024,-3.024,-3.0227,-3.0253,-3.0253,-3.0273,-3.0299,-3.0267,-3.0286,-3.0355,-3.0385,-3.0389,-3.0436,-3.0458,-3.0469,-3.0471,-3.052,-3.0574,-3.061,-3.046,-3.0159,-2.9901,-2.9683,-2.956,-2.9382,-2.9218,-2.9218,-2.9089,-2.8887,-2.8834,-2.8724,-2.8612,-2.8536,-2.851,-2.8471,-2.8304,-2.8196,-2.814,-2.7879,-2.773,-2.7686,-2.7496,-2.7407,-2.7376,-2.7215,-2.7104,-2.7024,-2.7007,-2.7007,-2.6991,-2.6975,-2.7008,-2.7007,-2.7071,-2.7103,-2.7135,-2.725,-2.7329,-2.7425,-2.745,-2.7647,-2.7911,-2.7982,-2.8122,-2.8353,-2.8398,-2.8523,-2.8804,-2.8935,-2.9044,-2.92,-2.9382,-2.9617,-2.9855,-3.0072,-3.0233,-3.0298,-3.0414,-3.055,-3.0602,-3.0759,-3.0817,-3.0951,-3.1079,-3.1178,-3.1072,-3.123,-3.1462,-3.1981,-3.149,-3.0966,-3.0864,-3.0775,-3.0676,-3.0588,-3.0476,-3.0411,-3.0373,-3.0273,-3.0204,-3.0125,-3.0046,-3.0022,-2.9972,-2.9948,-2.9897,-2.9907,-2.9897,-2.9916,-2.9897,-2.9924,-2.9956,-3.008,-3.0098,-3.0117,-3.0125,-3.0101,-3.0109,-3.013,-3.0164,-3.0192,-3.0194,-3.0207,-3.0227,-3.0279,-3.0305,-3.0324,-3.0355,-3.039,-3.0408,-3.0442,-3.0465,-3.052,-3.056,-3.0377,-3.0164,-2.9943,-2.9746,-2.9617,-2.9441,-2.928,-2.92,-2.9048,-2.8858,-2.881,-2.87,-2.8536,-2.8419,-2.8353,-2.8286,-2.8182,-2.8039,-2.7893,-2.776,-2.7644,-2.7496,-2.7341,-2.7263,-2.72,-2.7087,-2.7007,-2.6942,-2.6942,-2.6892,-2.6825,-2.6808,-2.6842,-2.6925,-2.6958,-2.7023,-2.7085,-2.7152,-2.7249,-2.7392,-2.7467,-2.76,-2.7792,-2.7925,-2.8095,-2.8327,-2.8367,-2.8523,-2.8804,-2.8917,-2.9044,-2.92,-2.9471,-2.971,-2.988,-3.0079,-3.0246,-3.0367,-3.0446,-3.0554,-3.0665,-3.072,-3.0772,-3.0802,-3.0792,-3.0811,-3.0877,-3.0858,-3.1026,-3.1113,-3.0975,-3.0782,-3.071,-3.0656,-3.0613,-3.054,-3.0458,-3.0373,-3.0292,-3.0152,-3.0061,-2.9999,-2.9959,-2.9891,-2.9813,-2.9787,-2.9789,-2.9773,-2.9764,-2.9782,-2.977,-2.9779,-2.9796,-2.9893,-2.994,-2.9972,-2.9972,-2.9961,-2.9988,-2.9996,-3.0046,-3.0057,-3.0098,-3.0113,-3.015,-3.0204,-3.0252,-3.0272,-3.0299,-3.033,-3.0355,-3.0402,-3.0442,-3.0485,-3.055,-3.0316,-3.0171,-2.9972,-2.979,-2.9664,-2.948,-2.9294,-2.9229,-2.9044,-2.8834,-2.8773,-2.8644,-2.8471,-2.8327,-2.8223,-2.8126,-2.8011,-2.7879,-2.7701,-2.7627,-2.7494,-2.7343,-2.7214,-2.7117,-2.7071,-2.7007,-2.6942,-2.6842,-2.6842,-2.6775,-2.6708,-2.6708,-2.6742,-2.6826,-2.6876,-2.6942,-2.7023,-2.7053,-2.7184,-2.7296,-2.7434,-2.7539,-2.7642,-2.7882,-2.8081,-2.8268,-2.8371,-2.8528,-2.8773,-2.8935,-2.9096,-2.9278,-2.954,-2.9755,-2.9907,-3.0079,-3.0246,-3.0398,-3.0456,-3.0552,-3.0684,-3.0775,-3.0784,-3.079,-3.0821,-3.0854,-3.0879,-3.0837,-3.0786,-3.0789,-3.0788,-3.0772,-3.0714,-3.0634,-3.0563,-3.0481,-3.04,-3.0292,-3.0166,-3.0049,-2.9948,-2.9866,-2.9842,-2.9782,-2.9663,-2.9645,-2.9636,-2.9626,-2.9617,-2.9626,-2.9626,-2.9636,-2.9645,-2.9691,-2.9736,-2.9832,-2.9849,-2.9866,-2.9866,-2.9866,-2.9918,-2.9951,-2.9986,-3.0018,-3.0057,-3.0129,-3.0188,-3.0237,-3.0266,-3.0273,-3.0292,-3.0349,-3.0396,-3.0447,-3.053,-3.0373,-3.018,-2.9996,-2.9808,-2.9673,-2.949,-2.9304,-2.9229,-2.9044,-2.8791,-2.8718,-2.8594,-2.8406,-2.8282,-2.8144,-2.7996,-2.7821,-2.7701,-2.7657,-2.7496,-2.7359,-2.7214,-2.7117,-2.7054,-2.6957,-2.6909,-2.6825,-2.6725,-2.6725,-2.6708,-2.6691,-2.6708,-2.6725,-2.6708,-2.6826,-2.6893,-2.6942,-2.7039,-2.7085,-2.7135,-2.7355,-2.7511,-2.7539,-2.7824,-2.8081,-2.8268,-2.8367,-2.8523,-2.8773,-2.8935,-2.9156,-2.9433,-2.9626,-2.9755,-2.9907,-3.0079,-3.0246,-3.0373,-3.0456,-3.0561,-3.0683,-3.077,-3.0795,-3.0806,-3.0848,-3.0897,-3.0878,-3.0834,-3.0784,-3.0801,-3.0791,-3.0751,-3.0697,-3.0622,-3.054,-3.0444,-3.034,-3.0228,-3.0049,-2.994,-2.9839,-2.9744,-2.9701,-2.9655,-2.9598,-2.9531,-2.9492,-2.9472,-2.9472,-2.9492,-2.9492,-2.9492,-2.9502,-2.9502,-2.9531,-2.9645,-2.9737,-2.9745,-2.9754,-2.9754,-2.979,-2.9825,-2.987,-2.9912,-2.9962,-3.0018,-3.008,-3.0125,-3.015,-3.0185,-3.0233,-3.0292,-3.0349,-3.0408,-3.0563,-3.0389,-3.0235,-3.006,-2.9866,-2.9719,-2.9521,-2.928,-2.9243,-2.9037,-2.8822,-2.8737,-2.8569,-2.838,-2.8223,-2.8085,-2.7986,-2.7704,-2.7554,-2.7557,-2.7454,-2.7296,-2.7151,-2.7055,-2.6941,-2.6808,-2.6775,-2.6742,-2.6725,-2.6708,-2.6708,-2.6708,-2.6708,-2.6708,-2.6708,-2.6742,-2.6809,-2.6909,-2.6991,-2.7055,-2.7119,-2.7373,-2.7496,-2.7542,-2.7842,-2.8067,-2.8232,-2.834,-2.8523,-2.8804,-2.8917,-2.9156,-2.9443,-2.9626,-2.9746,-2.9907,-3.0079,-3.0246,-3.0379,-3.0476,-3.0561,-3.0687,-3.077,-3.0798,-3.0809,-3.0868,-3.0917,-3.0897,-3.0831,-3.0798,-3.0798,-3.076,-3.0716,-3.0697,-3.0586,-3.0501,-3.0392,-3.0267,-3.0101,-2.9956,-2.9842,-2.9728,-2.9617,-2.956,-2.9481,-2.9438,-2.9388,-2.9349,-2.9318,-2.9318,-2.9318,-2.9339,-2.9339,-2.937,-2.9382,-2.9402,-2.9491,-2.9579,-2.9617,-2.9654,-2.9664,-2.9664,-2.9701,-2.9756,-2.9809,-2.9861,-2.9901,-2.9959,-3.0007,-3.0076,-3.0128,-3.0178,-3.0233,-3.0292,-3.0355,-3.0593,-3.0384,-3.0254,-3.0078,-2.988,-2.9765,-2.955,-2.9322,-2.9225,-2.9062,-2.881,-2.8712,-2.8574,-2.8384,-2.8168,-2.8039,-2.7954,-2.763,-2.7496,-2.7465,-2.7326,-2.7217,-2.7054,-2.6941,-2.6825,-2.6708,-2.6708,-2.6708,-2.6708,-2.6708,-2.6708,-2.6708,-2.6708,-2.6708,-2.6708,-2.6708,-2.6742,-2.6825,-2.6959,-2.7024,-2.712,-2.7357,-2.7496,-2.7542,-2.7824,-2.8053,-2.8187,-2.8327,-2.8523,-2.8773,-2.8964,-2.9203,-2.9472,-2.9636,-2.9774,-2.9907,-3.0098,-3.0266,-3.0379,-3.0456,-3.0546,-3.0667,-3.0751,-3.08,-3.0812,-3.085,-3.0917,-3.0897,-3.0829,-3.0796,-3.0778,-3.0738,-3.071,-3.0697,-3.0578,-3.0452,-3.034,-3.0166,-3.0003,-2.9893,-2.9765,-2.9636,-2.9511,-2.9421,-2.9339,-2.9272,-2.928,-2.9251,-2.92,-2.9218,-2.9229,-2.9251,-2.9272,-2.9275,-2.9278,-2.9299,-2.9339,-2.9401,-2.9461,-2.9531,-2.9569,-2.956,-2.9579,-2.9636,-2.9682,-2.9756,-2.9799,-2.9851,-2.991,-2.9983,-3.0053,-3.0094,-3.0145,-3.0207,-3.028,-3.0586,-3.0378,-3.0266,-3.0104,-2.9916,-2.9746,-2.956,-2.9322,-2.9214,-2.9044,-2.881,-2.8662,-2.8528,-2.8353,-2.8109,-2.7982,-2.7925,-2.7647,-2.7481,-2.7419,-2.7247,-2.7071,-2.6991,-2.6825,-2.6742,-2.6708,-2.6708,-2.6708,-2.6708,-2.6708,-2.6708,-2.6708,-2.6708,-2.6708,-2.6708,-2.6708,-2.6691,-2.6742,-2.6892,-2.7008,-2.7024,-2.7326,-2.7496,-2.7511,-2.7824,-2.8067,-2.8187,-2.838,-2.8562,-2.8798,-2.9055,-2.9286,-2.9491,-2.9636,-2.9774,-2.9907,-3.0079,-3.0246,-3.0379,-3.0456,-3.0565,-3.0667,-3.0751,-3.0802,-3.0796,-3.085,-3.0917,-3.0896,-3.0828,-3.0796,-3.0778,-3.074,-3.071,-3.0683,-3.0533,-3.0395,-3.0221,-3.0072,-2.9924,-2.9808,-2.9664,-2.9511,-2.9332,-2.9315,-2.924,-2.9156,-2.9134,-2.9123,-2.9134,-2.913,-2.9156,-2.9186,-2.9163,-2.9156,-2.9149,-2.9211,-2.9232,-2.9265,-2.9328,-2.939,-2.9433,-2.9453,-2.9472,-2.9512,-2.9589,-2.9636,-2.9682,-2.9746,-2.9808,-2.9868,-2.9924,-2.9996,-3.0079,-3.0152,-3.0227,-3.0626,-3.0467,-3.0342,-3.0159,-2.9956,-2.9783,-2.955,-2.9312,-2.9171,-2.8998,-2.8785,-2.8612,-2.8458,-2.83,-2.8095,-2.7925,-2.7795,-2.7585,-2.7483,-2.7392,-2.7153,-2.6991,-2.6909,-2.6775,-2.6708,-2.6708,-2.6708,-2.6708,-2.6708,-2.6708,-2.6708,-2.6708,-2.6708,-2.6708,-2.6708,-2.6708,-2.6708,-2.6742,-2.6892,-2.7008,-2.7057,-2.7326,-2.7496,-2.7526,-2.7824,-2.8071,-2.8232,-2.8518,-2.8761,-2.8917,-2.9119,-2.9278,-2.9482,-2.9617,-2.9746,-2.9907,-3.0079,-3.0246,-3.0379,-3.0456,-3.0561,-3.0667,-3.0773,-3.0802,-3.0799,-3.087,-3.0898,-3.0896,-3.0831,-3.0801,-3.0799,-3.0784,-3.0704,-3.055,-3.0442,-3.0297,-3.014,-2.9964,-2.9816,-2.971,-2.9522,-2.9372,-2.9254,-2.9145,-2.9062,-2.8952,-2.8929,-2.8947,-2.8982,-2.8987,-2.9021,-2.901,-2.8998,-2.9021,-2.9044,-2.91,-2.9123,-2.9145,-2.9189,-2.9243,-2.9289,-2.9312,-2.9343,-2.9373,-2.9472,-2.9531,-2.9589,-2.9636,-2.9673,-2.9745,-2.9841,-2.9913,-3.0019,-3.0094,-3.0206,-3.0635,-3.0487,-3.0377,-3.0213,-2.998,-2.979,-2.956,-2.9312,-2.9149,-2.8975,-2.8761,-2.8569,-2.8401,-2.825,-2.8085,-2.7879,-2.7701,-2.7554,-2.7483,-2.736,-2.7121,-2.6925,-2.6825,-2.6725,-2.6708,-2.6708,-2.6708,-2.6708,-2.6708,-2.6708,-2.6708,-2.6708,-2.6708,-2.6708,-2.6708,-2.6708,-2.6708,-2.6742,-2.6909,-2.7008,-2.7041,-2.7343,-2.7496,-2.7587,-2.7839,-2.8081,-2.8322,-2.8637,-2.8876,-2.9005,-2.9141,-2.9296,-2.9482,-2.9636,-2.9755,-2.9888,-3.0079,-3.0253,-3.0379,-3.0462,-3.0561,-3.0687,-3.077,-3.08,-3.0813,-3.0869,-3.0917,-3.0898,-3.0834,-3.0804,-3.0783,-3.0779,-3.0678,-3.0539,-3.0367,-3.0254,-3.0116,-2.9924,-2.9764,-2.9617,-2.9423,-2.9228,-2.9134,-2.9021,-2.8917,-2.8834,-2.884,-2.884,-2.884,-2.8846,-2.8815,-2.8784,-2.8764,-2.8762,-2.8796,-2.8831,-2.8872,-2.8901,-2.9089,-2.9134,-2.9171,-2.9206,-2.9246,-2.9299,-2.9363,-2.9424,-2.9472,-2.9522,-2.9617,-2.9682,-2.9761,-2.9847,-2.9956,-3.0061,-3.0157,-3.062,-3.0516,-3.0422,-3.0253,-3.0003,-2.9787,-2.9561,-2.9304,-2.9138,-2.894,-2.8706,-2.8562,-2.8367,-2.8168,-2.8025,-2.785,-2.7657,-2.7542,-2.7421,-2.7297,-2.7088,-2.6892,-2.6742,-2.6725,-2.6708,-2.6708,-2.6708,-2.6708,-2.6708,-2.6708,-2.6708,-2.6708,-2.6708,-2.6708,-2.6708,-2.6708,-2.6708,-2.6742,-2.6892,-2.7008,-2.7073,-2.731,-2.7511,-2.7632,-2.7911,-2.8191,-2.844,-2.8682,-2.8858,-2.9017,-2.9123,-2.9296,-2.9472,-2.9636,-2.9755,-2.9907,-3.0079,-3.0272,-3.0379,-3.0476,-3.0561,-3.0667,-3.077,-3.0798,-3.081,-3.0848,-3.0896,-3.0898,-3.0836,-3.0806,-3.0801,-3.0759,-3.0653,-3.0525,-3.0375,-3.0241,-3.0101,-2.9916,-2.97,-2.9522,-2.9359,-2.9207,-2.9051,-2.8929,-2.887,-2.8749,-2.8743,-2.8743,-2.8628,-2.8482,-2.8481,-2.8481,-2.8491,-2.8489,-2.8524,-2.8546,-2.8594,-2.8643,-2.8929,-2.9055,-2.9112,-2.9156,-2.9178,-2.9222,-2.9278,-2.932,-2.9351,-2.9423,-2.9531,-2.9626,-2.9691,-2.977,-2.9864,-2.9988,-3.0106,-3.0652,-3.0561,-3.0453,-3.0279,-3.0064,-2.9794,-2.9589,-2.9353,-2.9123,-2.8893,-2.87,-2.851,-2.83,-2.8095,-2.7922,-2.7716,-2.7572,-2.7452,-2.7313,-2.7088,-2.704,-2.6892,-2.6725,-2.6708,-2.6708,-2.6708,-2.6708,-2.6708,-2.6708,-2.6708,-2.6708,-2.6708,-2.6708,-2.6708,-2.6708,-2.6708,-2.6708,-2.6742,-2.6909,-2.6991,-2.7072,-2.7326,-2.7542,-2.7662,-2.8025,-2.8282,-2.8479,-2.8687,-2.8881,-2.9033,-2.9175,-2.9278,-2.9491,-2.9626,-2.9755,-2.9907,-3.0098,-3.0272,-3.0398,-3.0476,-3.0561,-3.0683,-3.0761,-3.0791,-3.0789,-3.0805,-3.0855,-3.0879,-3.0877,-3.0863,-3.0804,-3.0742,-3.0661,-3.0525,-3.0392,-3.0235,-3.0041,-2.9849,-2.9655,-2.9481,-2.9318,-2.9134,-2.8964,-2.887,-2.8785,-2.8675,-2.865,-2.865,-2.8421,-2.8149,-2.7997,-2.7934,-2.7689,-2.7606,-2.7669,-2.7728,-2.7868,-2.8117,-2.8473,-2.876,-2.8835,-2.9108,-2.9119,-2.9134,-2.9178,-2.9222,-2.9257,-2.932,-2.9423,-2.9531,-2.9636,-2.9727,-2.9832,-2.994,-3.0053,-3.0706,-3.0626,-3.0462,-3.0292,-3.0078,-2.9855,-2.9608,-2.9382,-2.9123,-2.8876,-2.865,-2.8463,-2.8232,-2.8042,-2.7832,-2.7659,-2.7496,-2.7326,-2.7169,-2.7024,-2.6975,-2.6859,-2.6742,-2.6708,-2.6708,-2.6708,-2.6708,-2.6708,-2.6708,-2.6708,-2.6708,-2.6708,-2.6708,-2.6708,-2.6708,-2.6708,-2.6725,-2.6809,-2.6925,-2.7024,-2.7136,-2.7357,-2.763,-2.7821,-2.8178,-2.8419,-2.8612,-2.8724,-2.8917,-2.9089,-2.9218,-2.9318,-2.9491,-2.9636,-2.9755,-2.9907,-3.0079,-3.0246,-3.0379,-3.0476,-3.0557,-3.0676,-3.0755,-3.0782,-3.0796,-3.0796,-3.0831,-3.0897,-3.0898,-3.0866,-3.081,-3.0733,-3.0642,-3.0525,-3.0384,-3.0228,-3.0068,-2.9839,-2.9626,-2.9443,-2.9296,-2.9123,-2.8964,-2.8858,-2.8749,-2.8662,-2.8552,-2.8516,-2.7955,-2.7665,-2.7343,-2.7134,-2.6797,-2.6651,-2.6724,-2.683,-2.7005,-2.7365,-2.786,-2.8117,-2.8268,-2.8665,-2.9062,-2.9096,-2.913,-2.9167,-2.9222,-2.9267,-2.9351,-2.9472,-2.9589,-2.9691,-2.9816,-2.9945,-3.0041,-3.0772,-3.0683,-3.0492,-3.0302,-3.0102,-2.9916,-2.9682,-2.9402,-2.9134,-2.8858,-2.86,-2.8393,-2.8191,-2.7982,-2.776,-2.7615,-2.7417,-2.723,-2.7071,-2.7007,-2.6942,-2.6842,-2.6725,-2.6708,-2.6708,-2.6708,-2.6708,-2.6708,-2.6708,-2.6708,-2.6708,-2.6708,-2.6708,-2.6708,-2.6708,-2.6708,-2.6758,-2.6893,-2.6959,-2.7055,-2.7198,-2.7386,-2.7677,-2.8025,-2.8259,-2.8484,-2.8662,-2.8773,-2.8917,-2.9178,-2.9262,-2.9378,-2.9501,-2.9626,-2.9755,-2.9888,-3.0079,-3.0246,-3.0373,-3.0471,-3.0543,-3.0696,-3.0743,-3.0789,-3.0798,-3.0786,-3.0824,-3.0856,-3.0859,-3.0865,-3.0793,-3.0736,-3.0645,-3.0534,-3.0409,-3.026,-3.009,-2.988,-2.9663,-2.9463,-2.9318,-2.9163,-2.8998,-2.887,-2.8761,-2.8626,-2.8511,-2.8232,-2.7652,-2.7031,-2.6593,-2.6194,-2.5812,-2.5565,-2.5609,-2.6106,-2.6245,-2.6539,-2.709,-2.7493,-2.775,-2.8202,-2.8617,-2.8973,-2.9062,-2.9119,-2.9186,-2.9232,-2.9339,-2.9424,-2.9522,-2.9608,-2.9773,-2.9939,-3.0037,-3.0772,-3.0683,-3.0492,-3.0314,-3.0162,-2.9964,-2.9737,-2.9463,-2.9171,-2.8905,-2.86,-2.8393,-2.8178,-2.7968,-2.7721,-2.7511,-2.7343,-2.7168,-2.7055,-2.6991,-2.6926,-2.6826,-2.6725,-2.6708,-2.6708,-2.6708,-2.6708,-2.6708,-2.6708,-2.6708,-2.6708,-2.6708,-2.6708,-2.6708,-2.6708,-2.6725,-2.6775,-2.6909,-2.6975,-2.7088,-2.7246,-2.7465,-2.7721,-2.8099,-2.8318,-2.8497,-2.8687,-2.8785,-2.8929,-2.9167,-2.9251,-2.9417,-2.954,-2.9654,-2.978,-2.9905,-3.0079,-3.0266,-3.0373,-3.0455,-3.0568,-3.0665,-3.0704,-3.0745,-3.0784,-3.0799,-3.08,-3.0816,-3.082,-3.0803,-3.0804,-3.0748,-3.066,-3.0572,-3.0449,-3.0318,-3.013,-2.9948,-2.9754,-2.954,-2.937,-2.9207,-2.9062,-2.888,-2.8682,-2.8409,-2.81,-2.7713,-2.709,-2.6304,-2.5586,-2.5186,-2.4772,-2.4588,-2.4455,-2.5144,-2.5576,-2.5731,-2.6227,-2.6943,-2.7273,-2.7714,-2.8117,-2.8521,-2.89,-2.9074,-2.9141,-2.9207,-2.9286,-2.9373,-2.9454,-2.9532,-2.9709,-2.9868,-2.9994,-3.0757,-3.0685,-3.0519,-3.0381,-3.0227,-2.9988,-2.9746,-2.9482,-2.9222,-2.8917,-2.8612,-2.8353,-2.8164,-2.7954,-2.7677,-2.7419,-2.7231,-2.7105,-2.7006,-2.6942,-2.6842,-2.6775,-2.6708,-2.6708,-2.6708,-2.6708,-2.6708,-2.6708,-2.6708,-2.6708,-2.6708,-2.6708,-2.6708,-2.6708,-2.6708,-2.6708,-2.6809,-2.6909,-2.7008,-2.7121,-2.7355,-2.7617,-2.7911,-2.8122,-2.8313,-2.851,-2.8724,-2.8822,-2.8964,-2.9186,-2.9296,-2.945,-2.9588,-2.971,-2.9815,-2.9956,-3.0113,-3.0266,-3.0373,-3.0449,-3.0535,-3.0633,-3.0687,-3.0733,-3.0772,-3.0788,-3.0799,-3.0798,-3.08,-3.0799,-3.0795,-3.0748,-3.066,-3.0567,-3.0469,-3.033,-3.0159,-3.0014,-2.9825,-2.9608,-2.9401,-2.9251,-2.9096,-2.8872,-2.8614,-2.8244,-2.7772,-2.7154,-2.652,-2.5761,-2.4938,-2.4663,-2.4403,-2.4333,-2.4208,-2.4566,-2.4989,-2.5117,-2.5401,-2.6117,-2.6686,-2.709,-2.764,-2.8154,-2.8507,-2.8867,-2.9108,-2.9186,-2.9265,-2.9341,-2.9443,-2.9551,-2.9672,-2.9815,-2.9934,-3.0756,-3.0678,-3.0546,-3.0422,-3.0273,-3.003,-2.9754,-2.9511,-2.9214,-2.8922,-2.8612,-2.834,-2.8136,-2.794,-2.7662,-2.7355,-2.7119,-2.7023,-2.6975,-2.6892,-2.6775,-2.6708,-2.6691,-2.6708,-2.6708,-2.6708,-2.6708,-2.6708,-2.6708,-2.6708,-2.6708,-2.6708,-2.6708,-2.6708,-2.6708,-2.6708,-2.6842,-2.6942,-2.7008,-2.7185,-2.7496,-2.781,-2.8053,-2.8187,-2.8327,-2.8523,-2.8779,-2.8858,-2.8998,-2.9178,-2.9339,-2.9463,-2.9598,-2.9737,-2.9885,-3.0014,-3.0154,-3.0253,-3.0342,-3.0444,-3.0521,-3.0597,-3.0653,-3.072,-3.0767,-3.0786,-3.0801,-3.08,-3.0797,-3.0799,-3.0776,-3.0725,-3.066,-3.0563,-3.0469,-3.0356,-3.0199,-3.0038,-2.9841,-2.9636,-2.9441,-2.9257,-2.9097,-2.8592,-2.8281,-2.77,-2.7216,-2.6428,-2.5805,-2.528,-2.4647,-2.4386,-2.4224,-2.4244,-2.419,-2.419,-2.4475,-2.4566,-2.4824,-2.5319,-2.5888,-2.6403,-2.7027,-2.7669,-2.8191,-2.8544,-2.8839,-2.9145,-2.9232,-2.931,-2.9423,-2.9531,-2.9636,-2.9782,-2.9939,-3.0756,-3.0698,-3.0548,-3.0419,-3.0279,-3.0083,-2.9842,-2.956,-2.9259,-2.8955,-2.8657,-2.8367,-2.8136,-2.7925,-2.7647,-2.7355,-2.7151,-2.7023,-2.6975,-2.6876,-2.6758,-2.6708,-2.6708,-2.6708,-2.6708,-2.6708,-2.6708,-2.6708,-2.6708,-2.6708,-2.6708,-2.6708,-2.6708,-2.6708,-2.6708,-2.6708,-2.6825,-2.6975,-2.7008,-2.7185,-2.7513,-2.7824,-2.8053,-2.8205,-2.834,-2.8523,-2.8773,-2.8881,-2.901,-2.9189,-2.933,-2.9482,-2.9655,-2.9818,-2.9953,-3.0053,-3.015,-3.0259,-3.031,-3.0422,-3.0525,-3.0595,-3.0669,-3.0694,-3.0737,-3.0773,-3.0788,-3.0801,-3.0797,-3.0799,-3.078,-3.0731,-3.0664,-3.0572,-3.0469,-3.0343,-3.0199,-3.0026,-2.9849,-2.9578,-2.9323,-2.919,-2.9052,-2.8448,-2.7864,-2.7266,-2.6615,-2.5826,-2.5205,-2.475,-2.4496,-2.4261,-2.417,-2.419,-2.4199,-2.4199,-2.4199,-2.4199,-2.4401,-2.4677,-2.5172,-2.5797,-2.6458,-2.7082,-2.7658,-2.8239,-2.8625,-2.8913,-2.9126,-2.9296,-2.9411,-2.9501,-2.9598,-2.9757,-2.9906,-3.0736,-3.0691,-3.0607,-3.0491,-3.033,-3.0113,-2.9857,-2.9561,-2.9293,-2.9,-2.8731,-2.844,-2.8122,-2.781,-2.7557,-2.7355,-2.7117,-2.7023,-2.6975,-2.6876,-2.6758,-2.6708,-2.6708,-2.6708,-2.6708,-2.6708,-2.6708,-2.6708,-2.6708,-2.6708,-2.6708,-2.6708,-2.6708,-2.6708,-2.6708,-2.6708,-2.6808,-2.699,-2.7185,-2.7341,-2.7542,-2.781,-2.8067,-2.8219,-2.8327,-2.8536,-2.8749,-2.8905,-2.9044,-2.924,-2.939,-2.9531,-2.9682,-2.9825,-2.9962,-3.0068,-3.0145,-3.0215,-3.0304,-3.0436,-3.052,-3.0606,-3.0661,-3.072,-3.075,-3.078,-3.079,-3.0801,-3.0797,-3.0798,-3.0778,-3.0728,-3.0637,-3.0548,-3.0469,-3.0343,-3.0199,-3.0,-2.9801,-2.9512,-2.9167,-2.8824,-2.8503,-2.8001,-2.7235,-2.6437,-2.5947,-2.5387,-2.4856,-2.4444,-2.4289,-2.4235,-2.419,-2.4199,-2.4199,-2.4199,-2.4199,-2.4199,-2.4199,-2.4475,-2.4658,-2.5191,-2.5852,-2.6549,-2.7192,-2.7754,-2.832,-2.8798,-2.9152,-2.9286,-2.938,-2.949,-2.9588,-2.971,-2.9887,-3.0703,-3.0708,-3.0656,-3.0535,-3.0367,-3.0142,-2.9872,-2.9608,-2.9324,-2.9045,-2.8779,-2.8471,-2.8053,-2.7689,-2.7542,-2.7355,-2.7135,-2.7023,-2.6958,-2.6876,-2.6775,-2.6725,-2.6708,-2.6708,-2.6708,-2.6708,-2.6708,-2.6708,-2.6708,-2.6708,-2.6708,-2.6708,-2.6708,-2.6708,-2.6708,-2.6725,-2.6792,-2.699,-2.731,-2.7465,-2.7557,-2.7839,-2.8035,-2.8205,-2.834,-2.8541,-2.8792,-2.8917,-2.9096,-2.9272,-2.946,-2.9579,-2.969,-2.9841,-2.9975,-3.0091,-3.0192,-3.026,-3.0342,-3.0442,-3.054,-3.0591,-3.0661,-3.0743,-3.0784,-3.0786,-3.079,-3.0801,-3.0795,-3.0794,-3.0791,-3.0739,-3.063,-3.0539,-3.0458,-3.0336,-3.018,-2.9931,-2.9536,-2.9061,-2.8587,-2.7913,-2.7608,-2.7329,-2.663,-2.5688,-2.5154,-2.4842,-2.4538,-2.4226,-2.4208,-2.4199,-2.4199,-2.4199,-2.4199,-2.4199,-2.4199,-2.4199,-2.4199,-2.4254,-2.4456,-2.4695,-2.5172,-2.5907,-2.6641,-2.7357,-2.7967,-2.8585,-2.9178,-2.9254,-2.9339,-2.9461,-2.9569,-2.97,-2.9849,-3.073,-3.0792,-3.072,-3.0572,-3.0398,-3.018,-2.9945,-2.9681,-2.9355,-2.9068,-2.8791,-2.838,-2.7979,-2.7701,-2.7539,-2.7386,-2.7198,-2.7072,-2.6975,-2.6892,-2.6775,-2.6708,-2.6691,-2.6708,-2.6708,-2.6708,-2.6708,-2.6708,-2.6708,-2.6708,-2.6708,-2.6708,-2.6708,-2.6708,-2.6725,-2.6758,-2.6825,-2.7023,-2.7326,-2.7481,-2.7587,-2.781,-2.8071,-2.8187,-2.834,-2.8523,-2.8785,-2.8917,-2.9089,-2.9294,-2.948,-2.9626,-2.9717,-2.9883,-2.9996,-3.0094,-3.0219,-3.0305,-3.0385,-3.0447,-3.054,-3.0604,-3.0687,-3.0748,-3.0791,-3.0786,-3.0791,-3.0801,-3.0793,-3.0788,-3.0784,-3.073,-3.0638,-3.0544,-3.0395,-3.0151,-2.9989,-2.9779,-2.9336,-2.8703,-2.7979,-2.7205,-2.6561,-2.6269,-2.6015,-2.5119,-2.4805,-2.4493,-2.4438,-2.419,-2.419,-2.4199,-2.4199,-2.4199,-2.4199,-2.4199,-2.4199,-2.4199,-2.4199,-2.4199,-2.4273,-2.4511,-2.4732,-2.5246,-2.5999,-2.6814,-2.7614,-2.8202,-2.8736,-2.9089,-2.9296,-2.9412,-2.9589,-2.9737,-2.9893,-3.0707,-3.0781,-3.0732,-3.0618,-3.0453,-3.0202,-2.9965,-2.9726,-2.9425,-2.9056,-2.8694,-2.834,-2.8007,-2.7774,-2.7587,-2.7434,-2.7312,-2.7136,-2.7023,-2.6958,-2.6859,-2.6775,-2.6742,-2.6708,-2.6708,-2.6708,-2.6708,-2.6708,-2.6708,-2.6708,-2.6708,-2.6708,-2.6708,-2.6708,-2.6725,-2.6825,-2.6925,-2.7039,-2.7294,-2.7496,-2.7572,-2.781,-2.8071,-2.8205,-2.8327,-2.8554,-2.8792,-2.8935,-2.9112,-2.9307,-2.951,-2.9636,-2.9763,-2.9916,-3.0026,-3.0109,-3.024,-3.033,-3.0408,-3.0463,-3.055,-3.0657,-3.0714,-3.0769,-3.08,-3.0798,-3.0797,-3.08,-3.0785,-3.0796,-3.0745,-3.0707,-3.0637,-3.0525,-3.0307,-2.9985,-2.9664,-2.9391,-2.8704,-2.7886,-2.708,-2.6311,-2.5718,-2.5161,-2.492,-2.4604,-2.4374,-2.4199,-2.4199,-2.4199,-2.4199,-2.4199,-2.4199,-2.4199,-2.4199,-2.4199,-2.4199,-2.4199,-2.4199,-2.4199,-2.4199,-2.4236,-2.4493,-2.4934,-2.5393,-2.6209,-2.7008,-2.7735,-2.8371,-2.8975,-2.9259,-2.9412,-2.9579,-2.9755,-2.9893,-3.0652,-3.0758,-3.0744,-3.0642,-3.0472,-3.0241,-3.0026,-2.9787,-2.9551,-2.916,-2.8637,-2.8362,-2.8119,-2.7879,-2.7659,-2.7511,-2.7388,-2.7247,-2.7103,-2.7023,-2.6925,-2.6842,-2.6775,-2.6725,-2.6708,-2.6708,-2.6708,-2.6708,-2.6708,-2.6708,-2.6708,-2.6708,-2.6708,-2.6708,-2.6742,-2.6875,-2.7008,-2.7072,-2.7294,-2.7496,-2.7542,-2.781,-2.8067,-2.8219,-2.8353,-2.8549,-2.8773,-2.897,-2.9134,-2.932,-2.9521,-2.9692,-2.9816,-2.9932,-3.0042,-3.0118,-3.0215,-3.0329,-3.0431,-3.051,-3.0573,-3.0684,-3.0769,-3.0782,-3.0799,-3.0787,-3.08,-3.0798,-3.0799,-3.0761,-3.0706,-3.0671,-3.0617,-3.0501,-2.9894,-2.9513,-2.9051,-2.8692,-2.7826,-2.6985,-2.6313,-2.578,-2.5153,-2.4672,-2.4587,-2.4411,-2.4309,-2.4199,-2.4199,-2.4199,-2.4199,-2.4199,-2.4199,-2.4199,-2.4199,-2.4199,-2.4199,-2.4199,-2.4199,-2.4199,-2.4199,-2.4199,-2.4218,-2.453,-2.5044,-2.5695,-2.6549,-2.7478,-2.8298,-2.903,-2.9262,-2.9443,-2.956,-2.9737,-2.9868,-3.058,-3.0701,-3.0778,-3.0682,-3.0498,-3.0288,-3.0087,-2.9864,-2.957,-2.9214,-2.8773,-2.8497,-2.8277,-2.8053,-2.7792,-2.7615,-2.7478,-2.7308,-2.7166,-2.7086,-2.7007,-2.6925,-2.6859,-2.6792,-2.6725,-2.6708,-2.6708,-2.6708,-2.6708,-2.6708,-2.6708,-2.6708,-2.6708,-2.6708,-2.6725,-2.6892,-2.6991,-2.7057,-2.7326,-2.7465,-2.7572,-2.7842,-2.8053,-2.8201,-2.8375,-2.8582,-2.881,-2.9005,-2.9167,-2.9341,-2.955,-2.9738,-2.9859,-2.9999,-3.0113,-3.0174,-3.026,-3.0371,-3.0499,-3.0554,-3.0622,-3.0694,-3.077,-3.0793,-3.0801,-3.0788,-3.0801,-3.0793,-3.0791,-3.0754,-3.0684,-3.0556,-3.0451,-3.0123,-2.9494,-2.8778,-2.8292,-2.7834,-2.6983,-2.6199,-2.5874,-2.5463,-2.4783,-2.4302,-2.4283,-2.4236,-2.4218,-2.4199,-2.4199,-2.4199,-2.4199,-2.4199,-2.4199,-2.4199,-2.4199,-2.4199,-2.4199,-2.4199,-2.4199,-2.4199,-2.4199,-2.4199,-2.4236,-2.4273,-2.4695,-2.5319,-2.63,-2.731,-2.8224,-2.9097,-2.9314,-2.9492,-2.9608,-2.9701,-2.9823,-3.0521,-3.0644,-3.076,-3.0735,-3.0604,-3.0414,-3.017,-2.9867,-2.9474,-2.9104,-2.8779,-2.851,-2.8318,-2.8109,-2.7864,-2.7686,-2.7597,-2.7404,-2.7279,-2.7166,-2.7087,-2.6991,-2.6909,-2.6859,-2.6775,-2.6725,-2.6708,-2.6708,-2.6708,-2.6708,-2.6708,-2.6708,-2.6708,-2.6708,-2.6758,-2.6875,-2.7008,-2.7073,-2.7312,-2.7511,-2.7559,-2.781,-2.8067,-2.8201,-2.8401,-2.8625,-2.8846,-2.9021,-2.92,-2.9372,-2.9579,-2.9756,-2.9885,-3.0022,-3.0142,-3.0214,-3.0299,-3.0422,-3.054,-3.063,-3.0655,-3.0716,-3.0757,-3.0798,-3.0786,-3.08,-3.0797,-3.078,-3.0765,-3.0712,-3.0637,-3.0005,-2.9689,-2.9368,-2.8729,-2.7834,-2.7216,-2.6811,-2.6208,-2.5461,-2.4964,-2.4872,-2.4423,-2.4256,-2.4209,-2.4199,-2.4199,-2.4199,-2.4199,-2.4199,-2.4199,-2.4199,-2.4199,-2.4199,-2.4199,-2.4199,-2.4199,-2.4199,-2.4199,-2.4199,-2.4199,-2.4199,-2.4218,-2.4236,-2.4566,-2.4989,-2.6256,-2.7442,-2.8419,-2.9118,-2.9322,-2.9463,-2.955,-2.9645,-2.9753,-3.0404,-3.0564,-3.0723,-3.0758,-3.0676,-3.0503,-3.0216,-2.9848,-2.9483,-2.916,-2.8929,-2.8644,-2.8432,-2.8232,-2.7996,-2.7745,-2.7701,-2.7511,-2.7392,-2.7279,-2.7151,-2.7039,-2.6958,-2.6909,-2.6809,-2.6742,-2.6708,-2.6708,-2.6708,-2.6708,-2.6708,-2.6708,-2.6708,-2.6742,-2.6809,-2.6925,-2.7008,-2.7106,-2.7294,-2.7526,-2.7617,-2.7824,-2.8067,-2.8228,-2.8427,-2.8632,-2.887,-2.9055,-2.9222,-2.9392,-2.9589,-2.9746,-2.9893,-3.0019,-3.0152,-3.0247,-3.0396,-3.051,-3.0621,-3.0671,-3.0713,-3.0755,-3.079,-3.08,-3.0798,-3.08,-3.0784,-3.0773,-3.0706,-3.0413,-3.0071,-2.9397,-2.8985,-2.8679,-2.7826,-2.6906,-2.6496,-2.6121,-2.5623,-2.4869,-2.4586,-2.4402,-2.4257,-2.4228,-2.4199,-2.4199,-2.4199,-2.419,-2.419,-2.419,-2.4199,-2.4199,-2.4199,-2.4199,-2.4199,-2.4199,-2.4199,-2.4199,-2.4199,-2.4199,-2.4199,-2.4199,-2.4199,-2.4218,-2.4447,-2.5016,-2.6421,-2.761,-2.8603,-2.9141,-2.9267,-2.9401,-2.9491,-2.9608,-2.9717,-3.0301,-3.0514,-3.0726,-3.0761,-3.0668,-3.0545,-3.0227,-2.9801,-2.9589,-2.9361,-2.9167,-2.8881,-2.8625,-2.838,-2.8178,-2.795,-2.773,-2.7602,-2.7483,-2.7374,-2.7247,-2.7104,-2.7007,-2.6925,-2.6842,-2.6758,-2.6708,-2.6708,-2.6708,-2.6708,-2.6708,-2.6708,-2.6708,-2.6758,-2.6859,-2.6959,-2.7008,-2.7121,-2.731,-2.7511,-2.7632,-2.7853,-2.8081,-2.8273,-2.8484,-2.87,-2.8905,-2.91,-2.9246,-2.9423,-2.9589,-2.9745,-2.988,-3.0015,-3.0168,-3.0316,-3.0509,-3.0606,-3.0684,-3.0704,-3.0738,-3.0776,-3.0798,-3.0794,-3.0801,-3.0774,-3.069,-3.0555,-3.0386,-2.986,-2.9364,-2.8902,-2.8442,-2.7727,-2.6861,-2.63,-2.5996,-2.5552,-2.5034,-2.4634,-2.4507,-2.4366,-2.4238,-2.42,-2.417,-2.417,-2.417,-2.417,-2.417,-2.4208,-2.4208,-2.4199,-2.4199,-2.4199,-2.4199,-2.4199,-2.4199,-2.4199,-2.4199,-2.4199,-2.4199,-2.4199,-2.4199,-2.4226,-2.429,-2.5024,-2.641,-2.7684,-2.8861,-2.9178,-2.9272,-2.9359,-2.9471,-2.9579,-2.9718,-3.0171,-3.0434,-3.0603,-3.0686,-3.0749,-3.0575,-3.0247,-2.9872,-2.9673,-2.9431,-2.9178,-2.8917,-2.87,-2.8471,-2.8246,-2.8081,-2.7911,-2.7733,-2.7602,-2.7465,-2.7343,-2.7215,-2.7104,-2.699,-2.6908,-2.6825,-2.6775,-2.6708,-2.6708,-2.6708,-2.6708,-2.6708,-2.6708,-2.6792,-2.6892,-2.6975,-2.7024,-2.7136,-2.7373,-2.7511,-2.7662,-2.7868,-2.8095,-2.83,-2.8515,-2.8712,-2.894,-2.9163,-2.9318,-2.9463,-2.9617,-2.9761,-2.9899,-3.0072,-3.0234,-3.0419,-3.0544,-3.0622,-3.0675,-3.0735,-3.0778,-3.0786,-3.0799,-3.0801,-3.0797,-3.0743,-3.0533,-3.0233,-2.9923,-2.9408,-2.8554,-2.7942,-2.7487,-2.6789,-2.606,-2.5649,-2.5354,-2.5148,-2.4666,-2.4534,-2.4402,-2.4303,-2.42,-2.4152,-2.4132,-2.4132,-2.4141,-2.4141,-2.4151,-2.417,-2.4208,-2.419,-2.4199,-2.4199,-2.4199,-2.4199,-2.4199,-2.4199,-2.4199,-2.4199,-2.4199,-2.4199,-2.4199,-2.4345,-2.4611,-2.5344,-2.6382,-2.7673,-2.9012,-2.9163,-2.924,-2.9339,-2.9443,-2.956,-2.9663,-2.9682,-3.0315,-3.0482,-3.0647,-3.071,-3.0597,-3.0359,-3.004,-2.9786,-2.9541,-2.9307,-2.906,-2.8834,-2.8625,-2.8411,-2.8209,-2.8071,-2.7806,-2.7612,-2.7542,-2.7436,-2.7263,-2.7119,-2.7039,-2.6958,-2.6876,-2.6792,-2.6708,-2.6708,-2.6708,-2.6708,-2.6708,-2.6708,-2.6809,-2.6909,-2.6992,-2.7089,-2.7217,-2.7373,-2.7524,-2.7689,-2.7882,-2.8095,-2.8345,-2.8528,-2.8737,-2.8964,-2.9186,-2.9368,-2.9531,-2.9664,-2.9823,-2.9988,-3.0206,-3.0354,-3.0521,-3.0606,-3.0674,-3.0734,-3.0784,-3.0781,-3.0798,-3.0799,-3.0789,-3.0774,-3.0747,-3.0219,-2.9719,-2.9346,-2.8842,-2.7788,-2.6864,-2.6385,-2.5882,-2.5417,-2.496,-2.4813,-2.4709,-2.4559,-2.4403,-2.4303,-2.42,-2.4133,-2.4094,-2.4064,-2.4064,-2.4064,-2.4064,-2.4094,-2.4151,-2.418,-2.4199,-2.4199,-2.4199,-2.419,-2.419,-2.4199,-2.4199,-2.4199,-2.4199,-2.4199,-2.4199,-2.4199,-2.4592,-2.5075,-2.58,-2.6499,-2.7868,-2.9051,-2.913,-2.9218,-2.9307,-2.9421,-2.9531,-2.9617,-2.9041,-3.0209,-3.0427,-3.0586,-3.0699,-3.0633,-3.0486,-3.0279,-2.9958,-2.9688,-2.9492,-2.9267,-2.9021,-2.8749,-2.851,-2.8331,-2.8154,-2.7908,-2.7716,-2.7602,-2.7483,-2.731,-2.7184,-2.7055,-2.6991,-2.6875,-2.6809,-2.6742,-2.6708,-2.6708,-2.6708,-2.6708,-2.6708,-2.6809,-2.6975,-2.6992,-2.7106,-2.7297,-2.7419,-2.7539,-2.7701,-2.7893,-2.8109,-2.8384,-2.8554,-2.8743,-2.8982,-2.9197,-2.9388,-2.956,-2.9737,-2.9901,-3.0116,-3.0336,-3.049,-3.0595,-3.0649,-3.0719,-3.075,-3.0789,-3.0794,-3.0801,-3.0791,-3.0785,-3.0752,-3.0438,-2.9849,-2.905,-2.8608,-2.7745,-2.6715,-2.6219,-2.5799,-2.5417,-2.5036,-2.4764,-2.4684,-2.4557,-2.4384,-2.4275,-2.419,-2.4113,-2.4056,-2.4016,-2.3996,-2.3996,-2.3996,-2.3996,-2.4016,-2.4084,-2.4113,-2.4161,-2.417,-2.417,-2.418,-2.418,-2.419,-2.4199,-2.419,-2.4199,-2.4199,-2.4199,-2.4199,-2.4611,-2.5057,-2.5819,-2.6672,-2.8014,-2.8948,-2.9112,-2.92,-2.9265,-2.937,-2.9491,-2.9608,-2.8806,-3.0006,-3.0463,-3.0664,-3.0693,-3.0697,-3.0579,-3.0365,-3.0112,-2.9851,-2.956,-2.9299,-2.9067,-2.8822,-2.8637,-2.8432,-2.8191,-2.8053,-2.7864,-2.7689,-2.7542,-2.7421,-2.7296,-2.7152,-2.7055,-2.6975,-2.6892,-2.6792,-2.6725,-2.6708,-2.6708,-2.6708,-2.6725,-2.6825,-2.7008,-2.7008,-2.7138,-2.7345,-2.7452,-2.7569,-2.7716,-2.7908,-2.8122,-2.8353,-2.8536,-2.8737,-2.8975,-2.9192,-2.9401,-2.9579,-2.9773,-2.9999,-3.0252,-3.0427,-3.0525,-3.0597,-3.0685,-3.0733,-3.0781,-3.0789,-3.0801,-3.0792,-3.0783,-3.076,-3.0544,-3.002,-2.934,-2.8489,-2.7628,-2.6673,-2.5912,-2.5589,-2.5291,-2.4998,-2.4723,-2.4639,-2.4561,-2.4401,-2.4228,-2.4152,-2.4084,-2.4026,-2.3986,-2.3966,-2.3945,-2.3917,-2.3917,-2.3917,-2.3927,-2.3976,-2.4014,-2.4044,-2.4094,-2.4113,-2.4141,-2.4151,-2.4151,-2.417,-2.418,-2.418,-2.419,-2.4199,-2.4226,-2.4537,-2.4994,-2.58,-2.6764,-2.8022,-2.8775,-2.9038,-2.9167,-2.9232,-2.931,-2.9423,-2.9551,-2.8063,-2.9338,-3.0284,-3.0669,-3.0703,-3.07,-3.061,-3.0467,-3.0272,-3.0049,-2.9753,-2.9464,-2.9192,-2.8964,-2.8785,-2.8562,-2.8327,-2.8196,-2.7982,-2.7777,-2.763,-2.7511,-2.7373,-2.7247,-2.7119,-2.7039,-2.6942,-2.6842,-2.6742,-2.6708,-2.6708,-2.6725,-2.6758,-2.6859,-2.6991,-2.704,-2.7169,-2.7392,-2.7467,-2.7585,-2.7745,-2.795,-2.8168,-2.8384,-2.8574,-2.8761,-2.8987,-2.9185,-2.9394,-2.9645,-2.9893,-3.0097,-3.0317,-3.0465,-3.0591,-3.066,-3.0714,-3.0767,-3.0785,-3.08,-3.0795,-3.0786,-3.076,-3.072,-2.9819,-2.9264,-2.8672,-2.7851,-2.7198,-2.6295,-2.5545,-2.5106,-2.4977,-2.4757,-2.4618,-2.4528,-2.4383,-2.4238,-2.4075,-2.3958,-2.3907,-2.3891,-2.3842,-2.381,-2.38,-2.3818,-2.381,-2.381,-2.3831,-2.3852,-2.3873,-2.3915,-2.3984,-2.4044,-2.4064,-2.4074,-2.4084,-2.4103,-2.4151,-2.4161,-2.417,-2.419,-2.4281,-2.4582,-2.5075,-2.5845,-2.69,-2.8095,-2.8746,-2.9052,-2.9134,-2.9178,-2.9267,-2.9353,-2.9474,-2.7285,-2.8764,-3.0051,-3.0628,-3.0698,-3.0709,-3.0672,-3.0571,-3.0395,-3.019,-2.9977,-2.9662,-2.9433,-2.9178,-2.894,-2.8724,-2.851,-2.8304,-2.8081,-2.7893,-2.773,-2.7602,-2.745,-2.731,-2.7182,-2.707,-2.6957,-2.6875,-2.6775,-2.6775,-2.6775,-2.6775,-2.6842,-2.6959,-2.7024,-2.7104,-2.7231,-2.7388,-2.7526,-2.7677,-2.7821,-2.7993,-2.8205,-2.8406,-2.8612,-2.881,-2.9021,-2.9225,-2.9434,-2.9708,-2.9996,-3.0227,-3.0375,-3.0525,-3.0611,-3.0688,-3.0752,-3.0777,-3.0799,-3.0798,-3.0791,-3.0782,-3.072,-3.0242,-2.9364,-2.8594,-2.8007,-2.7234,-2.6591,-2.5965,-2.52,-2.4797,-2.4696,-2.4572,-2.4461,-2.4347,-2.4201,-2.4044,-2.3925,-2.3785,-2.375,-2.3732,-2.37,-2.3678,-2.3667,-2.3685,-2.3685,-2.3696,-2.3689,-2.3721,-2.3743,-2.3797,-2.385,-2.3912,-2.3966,-2.3996,-2.4006,-2.4054,-2.4084,-2.4113,-2.4141,-2.4141,-2.4288,-2.4636,-2.5212,-2.6091,-2.7017,-2.812,-2.8635,-2.9067,-2.91,-2.9145,-2.9214,-2.932,-2.9384,-2.7476,-2.9695,-3.0288,-3.0587,-3.0696,-3.0702,-3.071,-3.0651,-3.0463,-3.0259,-3.0061,-2.9832,-2.9561,-2.9195,-2.898,-2.8767,-2.8587,-2.838,-2.8205,-2.8039,-2.7818,-2.7674,-2.7526,-2.7373,-2.7263,-2.7136,-2.7023,-2.6975,-2.6892,-2.6909,-2.6942,-2.6942,-2.6942,-2.7024,-2.7087,-2.7182,-2.7277,-2.7448,-2.7615,-2.7777,-2.7968,-2.8122,-2.8228,-2.844,-2.8675,-2.8881,-2.91,-2.9312,-2.9522,-2.977,-3.0053,-3.0299,-3.046,-3.0576,-3.0655,-3.0711,-3.078,-3.0794,-3.08,-3.0783,-3.0778,-3.0701,-3.0525,-3.0051,-2.9161,-2.8263,-2.7484,-2.6428,-2.5815,-2.5329,-2.4746,-2.4665,-2.4555,-2.4375,-2.4238,-2.4068,-2.3927,-2.3842,-2.3765,-2.366,-2.3611,-2.3567,-2.3522,-2.351,-2.3499,-2.3499,-2.351,-2.351,-2.3522,-2.3555,-2.3589,-2.3656,-2.3729,-2.381,-2.3886,-2.3945,-2.3966,-2.3986,-2.4024,-2.4044,-2.4054,-2.4044,-2.4255,-2.475,-2.5583,-2.6516,-2.7446,-2.8208,-2.8645,-2.901,-2.9067,-2.9123,-2.9181,-2.9246,-2.9312]},{"header":{"parameterUnit":"m.s-1","parameterCategory":1,"la1":31.0,"la2":29.5877,"lo1":-88.7671,"lo2":-86.6584,"dy":0.0162,"dx":0.0185,"nx":115,"ny":88,"refTime":"2023-09-07T18:00:00:Z","depth":0,"parameterNumber":3,"parameterNumberName":"V-component_of_WINDS"},"data":[0.0,0.0,0.0,0.0,0.0,0.0,0.0,0.0,0.0,0.0,0.0,0.0,0.0,0.0,0.0,0.0,0.0,0.0,0.0,0.0,0.0,0.0,0.0,0.0,0.0,0.0,0.0,0.0,0.0,0.0,0.0,0.0,0.0,0.0,0.0,0.0,0.0,0.0,0.0,0.0,0.0,0.0,0.0,0.0,0.0,0.0,0.0,0.0,0.0,0.0,0.0,0.0,0.0,0.0,0.0,0.0,0.0,0.0,0.0,0.0,0.0,0.0,0.0,0.0,0.0,0.0,0.0,0.0,0.0,0.0,0.0,0.0,0.0,0.0,0.0,0.0,0.0,0.0,0.0,0.0,0.0,0.0,0.0,0.0,0.0,0.0,0.0,0.0,0.0,0.0,0.0,0.0,0.0,0.0,0.0,0.0,0.0,0.0,0.0,0.0,0.0,0.0,0.0,0.0,0.0,0.0,0.0,0.0,0.0,0.0,0.0,0.0,0.0,0.0,0.0,0.0,0.0,0.0,0.0,0.0,0.0,0.0,0.0,0.0,0.0,0.0,0.0,0.0,0.0,0.0,0.0,0.0,0.0,0.0,0.0,0.0,0.0,0.0,0.0,0.0,0.0,0.0,0.0,0.0,0.0,0.0,0.0,0.0,0.0,0.0,0.0,0.0,0.0,0.0,0.0,0.0,0.0,0.0,0.0,0.0,0.0,0.0,0.0,0.0,0.0,0.0,0.0,0.0,0.0,0.0,0.0,0.0,0.0,0.0,0.0,0.0,0.0,0.0,0.0,0.0,0.0,0.0,0.0,0.0,0.0,0.0,0.0,0.0,0.0,0.0,0.0,0.0,0.0,0.0,0.0,0.0,0.0,0.0,0.0,0.0,0.0,0.0,0.0,0.0,0.0,0.0,0.0,0.0,0.0,0.0,0.0,0.0,0.0,0.0,0.0,0.0,0.0,0.0,0.0,0.0,0.0,0.0,0.0,0.0,0.0,0.0,0.0,0.0,0.0,0.0,0.0,0.0,0.0,0.0,0.0,0.0,0.0,0.0,0.0,0.0,0.0,0.0,0.0,0.0,0.0,0.0,0.0,0.0,0.0,0.0,0.0,0.0,0.0,0.0,0.0,0.0,0.0,0.0,0.0,0.0,0.0,0.0,0.0,0.0,0.0,0.0,0.0,0.0,0.0,0.0,0.0,0.0,0.0,0.0,0.0,0.0,0.0,0.0,0.0,0.0,0.0,0.0,0.0,0.0,0.0,0.0,0.0,0.0,0.0,0.0,0.0,0.0,0.0,0.0,0.0,0.0,0.0,0.0,0.0,0.0,0.0,0.0,0.0,0.0,0.0,0.0,0.0,0.0,0.0,0.0,0.0,0.0,0.0,0.0,0.0,0.0,0.0,0.0,0.0,0.0,0.0,0.0,0.0,0.0,0.0,0.0,0.0,0.0,0.0,0.0,0.0,0.0,0.0,0.0,0.0,0.0,0.0,0.0,0.0,0.0,0.0,0.0,0.0,0.0,0.0,0.0,0.0,0.0,0.0,0.0,0.0,0.0,0.0,0.0,0.0,0.0,0.0,0.0,0.0,0.0,0.0,0.0,0.0,0.0,0.0,0.0,0.0,0.0,0.0,0.0,0.0,0.0,0.0,0.0,0.0,0.0,0.0,0.0,0.0,0.0,0.0,0.0,0.0,0.0,0.0,0.0,0.0,0.0,0.0,0.0,0.0,0.0,0.0,0.0,0.0,0.0,0.0,0.0,0.0,0.0,0.0,0.0,0.0,0.0,0.0,0.0,0.0,0.0,0.0,0.0,0.0,0.0,0.0,0.0,0.0,0.0,0.0,0.0,0.0,0.0,0.0,0.0,0.0,0.0,0.0,0.0,0.0,0.0,0.0,0.0,0.0,0.0,0.0,0.0,0.0,0.0,0.0,0.0,0.0,0.0,0.0,0.0,0.0,0.0,0.0,0.0,0.0,0.0,0.0,0.0,0.0,0.0,0.0,0.0,0.0,0.0,0.0,0.0,0.0,0.0,0.0,0.0,0.0,0.0,0.0,0.0,0.0,0.0,0.0,0.0,0.0,0.0,0.0,0.0,0.0,0.0,0.0,0.0,0.0,0.0,0.0,0.0,0.0,0.0,0.0,0.0,0.0,0.0,0.0,0.0,0.0,0.0,0.0,0.0,0.0,0.0,0.0,0.0,0.0,0.0,0.0,0.0,0.0,0.0,0.0,0.0,0.0,0.0,0.0,0.0,0.0,0.0,0.0,0.0,0.0,0.0,0.0,0.0,0.0,0.0,0.0,0.0,0.0,0.0,0.0,0.0,0.0,0.0,0.0,0.0,0.0,0.0,0.0,0.0,0.0,0.0,0.0,0.0,0.0,0.0,0.0,0.0,0.0,0.0,0.0,0.0,0.0,0.0,0.0,0.0,0.0,0.0,0.0,0.0,0.0,0.0,0.0,0.0,0.0,0.0,0.0,0.0,0.0,0.0,0.0,0.0,0.0,0.0,0.0,0.0,0.0,0.0,0.0,0.0,0.0,0.0,0.0,0.0,0.0,0.0,0.0,0.0,0.0,0.0,0.0,0.0,0.0,0.0,0.0,0.0,0.0,0.0,0.0,0.0,0.0,0.0,0.0,0.0,0.0,0.0,0.0,0.0,0.0,0.0,0.0,0.0,0.0,0.0,0.0,0.0,0.0,0.0,0.0,0.0,0.0,0.0,0.0,0.0,0.0,0.0,0.0,0.0,0.0,0.0,0.0,0.0,0.0,0.0,0.0,0.0,0.0,0.0,0.0,0.0,0.0,0.0,0.0,0.0,0.0,0.0,0.0,0.0,0.0,0.0,0.0,0.0,0.0,0.0,0.0,0.0,0.0,0.0,0.0,0.0,0.0,0.0,0.0,0.0,0.0,0.0,0.0,0.0,0.0,0.0,0.0,0.0,0.0,0.0,0.0,0.0,0.0,0.0,0.0,0.0,0.0,0.0,0.0,0.0,0.0,0.0,0.0,0.0,0.0,0.0,0.0,0.0,0.0,0.0,0.0,0.0,0.0,0.0,0.0,0.0,0.0,0.0,0.0,0.0,0.0,0.0,0.0,0.0,0.0,0.0,0.0,0.0,0.0,0.0,0.0,0.0,0.0,0.0,0.0,0.0,0.0,0.0,0.0,0.0,0.0,0.0,0.0,0.0,0.0,0.0,0.0,0.0,0.0,0.0,0.0,0.0,0.0,0.0,0.0,0.0,0.0,0.0,0.0,0.0,0.0,0.0,0.0,0.0,0.0,0.0,0.0,0.0,0.0,0.0,0.0,0.0,0.0,0.0,0.0,0.0,0.0,0.0,0.0,0.0,0.0,0.0,0.0,0.0,0.0,0.0,0.0,0.0,0.0,0.0,0.0,0.0,0.0,0.0,0.0,0.0,0.0,0.0,0.0,0.0,0.0,0.0,0.0,0.0,0.0,0.0,0.0,0.0,0.0,0.0,0.0,0.0,0.0,0.0,0.0,0.0,0.0,0.0,0.0,0.0,0.0,0.0,0.0,0.0,0.0,0.0,0.0,0.0,0.0,0.0,0.0,0.0,0.0,0.0,0.0,0.0,0.0,0.0,0.0,0.0,0.0,0.0,0.0,0.0,0.0,0.0,0.0,0.0,0.0,0.0,0.0,0.0,0.0,0.0,0.0,0.0,0.0,0.0,0.0,0.0,0.0,0.0,0.0,0.0,0.0,0.0,0.0,0.0,0.0,0.0,0.0,0.0,0.0,0.0,0.0,0.0,0.0,0.0,0.0,0.0,0.0,0.0,0.0,0.0,0.0,0.0,0.0,0.0,0.0,0.0,0.0,0.0,0.0,0.0,0.0,0.0,0.0,0.0,0.0,0.0,0.0,0.0,0.0,0.0,0.0,0.0,0.0,0.0,0.0,0.0,0.0,0.0,0.0,0.0,0.0,0.0,0.0,0.0,0.0,0.0,0.0,0.0,0.0,0.0,0.0,0.0,0.0,0.0,0.0,0.0,0.0,0.0,0.0,0.0,0.0,0.0,0.0,0.0,0.0,0.0,0.0,0.0,0.0,0.0,0.0,0.0,0.0,0.0,0.0,0.0,0.0,0.0,0.0,0.0,0.0,0.0,0.0,0.0,0.0,0.0,0.0,0.0,0.0,0.0,0.0,0.0,0.0,0.0,0.0,0.0,0.0,0.0,0.0,0.0,0.0,0.0,0.0,0.0,0.0,0.0,0.0,0.0,0.0,0.0,0.0,0.0,0.0,0.0,-1.4299,0.0,0.0,0.0,0.0,0.0,0.0,0.0,0.0,0.0,0.0,0.0,0.0,0.0,0.0,0.0,0.0,0.0,0.0,0.0,0.0,0.0,0.0,0.0,0.0,0.0,0.0,0.0,0.0,0.0,0.0,0.0,0.0,0.0,0.0,0.0,0.0,0.0,0.0,0.0,0.0,0.0,0.0,0.0,0.0,0.0,0.0,0.0,0.0,0.0,0.0,0.0,0.0,0.0,0.0,0.0,0.0,0.0,0.0,0.0,0.0,0.0,0.0,0.0,0.0,0.0,0.0,0.0,0.0,0.0,0.0,0.0,0.0,0.0,0.0,0.0,0.0,0.0,0.0,0.0,0.0,0.0,0.0,0.0,0.0,0.0,0.0,0.0,0.0,0.0,0.0,0.0,0.0,0.0,0.0,0.0,0.0,0.0,0.0,0.0,0.0,0.0,0.0,0.0,0.0,0.0,0.0,0.0,0.0,0.0,0.0,-1.3629,-1.395,-1.4061,-1.4338,-1.4767,0.0,0.0,0.0,0.0,0.0,0.0,0.0,0.0,0.0,0.0,0.0,0.0,0.0,0.0,0.0,0.0,0.0,0.0,0.0,0.0,0.0,0.0,0.0,0.0,0.0,0.0,0.0,0.0,0.0,0.0,0.0,0.0,0.0,0.0,0.0,0.0,0.0,0.0,0.0,0.0,0.0,0.0,0.0,0.0,0.0,0.0,0.0,0.0,0.0,0.0,0.0,0.0,0.0,0.0,0.0,0.0,0.0,0.0,0.0,0.0,0.0,0.0,0.0,0.0,0.0,0.0,0.0,0.0,0.0,0.0,0.0,0.0,0.0,0.0,0.0,0.0,0.0,0.0,0.0,0.0,0.0,0.0,0.0,0.0,0.0,0.0,0.0,0.0,0.0,0.0,0.0,0.0,0.0,0.0,0.0,0.0,0.0,0.0,0.0,0.0,0.0,0.0,0.0,0.0,0.0,0.0,0.0,0.0,0.0,0.0,0.0,0.0,-1.4143,-1.4606,-1.5212,0.0,0.0,0.0,0.0,0.0,0.0,0.0,0.0,0.0,0.0,0.0,0.0,0.0,0.0,0.0,0.0,0.0,0.0,0.0,0.0,0.0,0.0,0.0,0.0,0.0,0.0,0.0,0.0,0.0,0.0,0.0,0.0,0.0,0.0,0.0,0.0,0.0,0.0,0.0,0.0,0.0,0.0,0.0,0.0,0.0,0.0,0.0,0.0,0.0,0.0,0.0,0.0,0.0,0.0,0.0,0.0,0.0,0.0,0.0,0.0,0.0,0.0,0.0,0.0,0.0,0.0,0.0,0.0,0.0,0.0,0.0,0.0,0.0,0.0,0.0,0.0,0.0,0.0,0.0,0.0,0.0,0.0,0.0,0.0,0.0,0.0,0.0,0.0,0.0,0.0,0.0,0.0,0.0,0.0,0.0,0.0,0.0,0.0,0.0,0.0,0.0,0.0,0.0,0.0,0.0,0.0,0.0,0.0,0.0,0.0,-1.2905,-1.3834,-1.4041,0.0,-1.5251,0.0,0.0,0.0,0.0,0.0,0.0,0.0,0.0,0.0,0.0,0.0,0.0,0.0,0.0,0.0,0.0,0.0,0.0,0.0,0.0,0.0,0.0,0.0,0.0,0.0,0.0,0.0,0.0,0.0,0.0,0.0,0.0,0.0,0.0,0.0,0.0,0.0,0.0,0.0,0.0,0.0,0.0,0.0,0.0,0.0,0.0,0.0,0.0,0.0,0.0,0.0,0.0,0.0,0.0,0.0,0.0,0.0,0.0,0.0,0.0,0.0,0.0,0.0,0.0,0.0,0.0,0.0,0.0,0.0,0.0,0.0,0.0,0.0,0.0,0.0,0.0,0.0,0.0,0.0,0.0,0.0,0.0,0.0,0.0,0.0,0.0,0.0,0.0,0.0,0.0,0.0,0.0,0.0,0.0,0.0,0.0,0.0,0.0,0.0,0.0,0.0,0.0,0.0,0.0,0.0,0.0,0.0,0.0,0.0,0.0,-1.294,-1.3126,-1.4082,-1.4817,0.0,0.0,0.0,0.0,0.0,0.0,0.0,0.0,0.0,0.0,0.0,0.0,0.0,0.0,0.0,0.0,0.0,0.0,0.0,0.0,0.0,0.0,0.0,0.0,0.0,0.0,0.0,0.0,0.0,0.0,0.0,0.0,0.0,0.0,0.0,0.0,0.0,0.0,0.0,0.0,0.0,0.0,0.0,0.0,0.0,0.0,0.0,0.0,0.0,0.0,0.0,0.0,0.0,0.0,0.0,0.0,0.0,0.0,0.0,0.0,0.0,0.0,0.0,0.0,0.0,0.0,0.0,0.0,0.0,0.0,0.0,0.0,0.0,0.0,0.0,0.0,0.0,0.0,0.0,0.0,0.0,0.0,0.0,0.0,0.0,0.0,0.0,0.0,0.0,0.0,0.0,0.0,0.0,0.0,0.0,0.0,0.0,0.0,0.0,0.0,0.0,0.0,0.0,0.0,0.0,0.0,0.0,0.0,0.0,0.0,-1.2382,-1.2694,-1.2744,-1.4061,-1.4953,-1.5291,0.0,0.0,0.0,0.0,0.0,0.0,0.0,0.0,0.0,0.0,0.0,0.0,0.0,0.0,0.0,0.0,0.0,0.0,0.0,0.0,0.0,0.0,0.0,0.0,0.0,0.0,0.0,0.0,0.0,0.0,0.0,0.0,0.0,0.0,0.0,0.0,0.0,0.0,0.0,0.0,0.0,0.0,0.0,0.0,0.0,0.0,0.0,0.0,0.0,0.0,0.0,0.0,0.0,0.0,0.0,0.0,0.0,0.0,0.0,0.0,0.0,0.0,0.0,0.0,0.0,0.0,0.0,0.0,0.0,0.0,0.0,0.0,0.0,0.0,0.0,0.0,0.0,0.0,0.0,0.0,0.0,0.0,0.0,0.0,0.0,0.0,0.0,0.0,0.0,0.0,0.0,0.0,0.0,0.0,0.0,0.0,0.0,0.0,0.0,0.0,0.0,0.0,0.0,0.0,0.0,0.0,0.0,0.0,-1.1844,-1.1621,-1.1924,-1.2884,-1.3955,-1.4691,0.0,0.0,0.0,0.0,0.0,0.0,0.0,0.0,0.0,0.0,0.0,0.0,0.0,0.0,0.0,0.0,0.0,0.0,0.0,0.0,0.0,0.0,0.0,0.0,0.0,0.0,0.0,0.0,0.0,0.0,0.0,0.0,0.0,0.0,0.0,0.0,0.0,0.0,0.0,0.0,0.0,0.0,0.0,0.0,0.0,0.0,0.0,0.0,0.0,0.0,0.0,0.0,0.0,0.0,0.0,0.0,0.0,0.0,0.0,0.0,0.0,0.0,0.0,0.0,0.0,0.0,0.0,0.0,0.0,0.0,0.0,0.0,0.0,0.0,0.0,0.0,0.0,0.0,0.0,0.0,0.0,0.0,0.0,0.0,0.0,0.0,0.0,0.0,0.0,0.0,0.0,0.0,0.0,0.0,0.0,0.0,0.0,0.0,0.0,0.0,0.0,0.0,0.0,0.0,0.0,0.0,0.0,0.0,0.0,-1.1181,-1.1347,-1.196,-1.3031,-1.347,-1.4115,0.0,0.0,0.0,0.0,0.0,0.0,0.0,0.0,0.0,0.0,0.0,0.0,0.0,0.0,0.0,0.0,0.0,0.0,0.0,0.0,0.0,0.0,0.0,0.0,0.0,0.0,0.0,0.0,0.0,0.0,0.0,0.0,0.0,0.0,0.0,0.0,0.0,0.0,0.0,0.0,0.0,0.0,0.0,0.0,0.0,0.0,0.0,0.0,0.0,0.0,0.0,0.0,0.0,0.0,0.0,0.0,0.0,0.0,0.0,0.0,0.0,0.0,0.0,0.0,0.0,0.0,0.0,0.0,0.0,0.0,0.0,0.0,0.0,0.0,0.0,0.0,0.0,0.0,0.0,0.0,0.0,0.0,0.0,0.0,0.0,0.0,0.0,0.0,0.0,0.0,0.0,0.0,0.0,0.0,0.0,0.0,0.0,0.0,0.0,0.0,0.0,0.0,0.0,0.0,0.0,0.0,0.0,0.0,0.0,-1.0818,0.0,-1.1904,-1.275,-1.3117,-1.3836,0.0,0.0,0.0,0.0,0.0,0.0,0.0,0.0,0.0,0.0,0.0,0.0,0.0,0.0,0.0,0.0,0.0,0.0,0.0,0.0,0.0,0.0,0.0,0.0,0.0,0.0,0.0,0.0,0.0,0.0,0.0,0.0,0.0,0.0,0.0,0.0,0.0,0.0,0.0,0.0,0.0,0.0,0.0,0.0,0.0,0.0,0.0,0.0,0.0,0.0,0.0,0.0,0.0,0.0,0.0,0.0,0.0,0.0,0.0,0.0,0.0,0.0,0.0,0.0,0.0,0.0,0.0,0.0,0.0,0.0,0.0,0.0,0.0,0.0,0.0,0.0,0.0,0.0,0.0,0.0,0.0,0.0,0.0,0.0,0.0,0.0,0.0,0.0,0.0,0.0,0.0,0.0,0.0,0.0,0.0,0.0,0.0,0.0,0.0,0.0,0.0,0.0,0.0,0.0,0.0,0.0,0.0,0.0,-1.018,-1.0743,-1.1321,-1.172,-1.2042,-1.2975,-1.3839,0.0,0.0,0.0,0.0,0.0,0.0,0.0,0.0,0.0,0.0,0.0,0.0,0.0,0.0,0.0,0.0,0.0,0.0,0.0,0.0,0.0,0.0,0.0,0.0,0.0,0.0,0.0,0.0,0.0,0.0,0.0,0.0,0.0,0.0,0.0,0.0,0.0,0.0,0.0,0.0,0.0,0.0,0.0,0.0,0.0,0.0,0.0,0.0,0.0,0.0,0.0,0.0,0.0,0.0,0.0,0.0,0.0,0.0,0.0,0.0,0.0,0.0,0.0,0.0,0.0,0.0,0.0,0.0,0.0,0.0,0.0,0.0,0.0,0.0,0.0,0.0,0.0,0.0,0.0,0.0,0.0,0.0,0.0,0.0,0.0,0.0,0.0,0.0,0.0,0.0,0.0,0.0,0.0,0.0,0.0,0.0,0.0,0.0,0.0,0.0,0.0,0.0,0.0,0.0,0.0,0.0,0.0,0.0,0.0,-1.0186,-1.0744,-1.1318,-1.1923,-1.2511,-1.3359,0.0,0.0,0.0,0.0,0.0,0.0,0.0,0.0,0.0,0.0,0.0,0.0,0.0,0.0,0.0,0.0,0.0,0.0,0.0,0.0,0.0,0.0,0.0,0.0,0.0,0.0,0.0,0.0,0.0,0.0,0.0,0.0,0.0,0.0,0.0,0.0,0.0,0.0,0.0,0.0,0.0,0.0,0.0,0.0,0.0,0.0,0.0,0.0,0.0,0.0,0.0,0.0,0.0,0.0,0.0,0.0,0.0,0.0,0.0,0.0,0.0,0.0,0.0,0.0,0.0,0.0,0.0,0.0,0.0,0.0,0.0,0.0,0.0,0.0,0.0,0.0,0.0,0.0,0.0,0.0,0.0,0.0,0.0,0.0,0.0,0.0,0.0,0.0,0.0,0.0,0.0,0.0,0.0,0.0,0.0,0.0,0.0,0.0,0.0,0.0,0.0,0.0,0.0,0.0,0.0,0.0,0.0,0.0,0.0,-0.9345,-1.0168,-1.0926,-1.1701,-1.2228,-1.3065,-1.4289,0.0,0.0,0.0,0.0,0.0,0.0,0.0,0.0,0.0,0.0,0.0,0.0,0.0,0.0,0.0,0.0,0.0,0.0,0.0,0.0,0.0,0.0,0.0,0.0,0.0,0.0,0.0,0.0,0.0,0.0,0.0,0.0,0.0,0.0,0.0,0.0,0.0,0.0,0.0,0.0,0.0,0.0,0.0,0.0,0.0,0.0,0.0,0.0,0.0,0.0,0.0,0.0,0.0,0.0,0.0,0.0,0.0,0.0,0.0,0.0,0.0,0.0,0.0,0.0,0.0,0.0,0.0,0.0,0.0,0.0,0.0,0.0,0.0,0.0,0.0,0.0,0.0,0.0,0.0,0.0,0.0,0.0,0.0,0.0,0.0,0.0,0.0,0.0,0.0,0.0,0.0,0.0,0.0,0.0,0.0,0.0,0.0,0.0,0.0,0.0,0.0,0.0,0.0,0.0,0.0,0.0,0.0,0.0,-0.8382,-0.9543,-1.0504,-1.1292,-1.2055,-1.2985,0.0,0.0,0.0,0.0,0.0,0.0,0.0,0.0,0.0,0.0,0.0,0.0,0.0,0.0,0.0,0.0,0.0,0.0,0.0,0.0,0.0,0.0,0.0,0.0,0.0,0.0,0.0,0.0,0.0,0.0,0.0,0.0,0.0,0.0,0.0,0.0,0.0,0.0,0.0,0.0,0.0,0.0,0.0,0.0,0.0,0.0,0.0,0.0,0.0,0.0,0.0,0.0,0.0,0.0,0.0,0.0,0.0,0.0,0.0,0.0,0.0,0.0,0.0,0.0,0.0,0.0,0.0,0.0,0.0,0.0,0.0,0.0,0.0,0.0,0.0,0.0,0.0,0.0,0.0,0.0,0.0,0.0,0.0,0.0,0.0,0.0,0.0,0.0,0.0,0.0,0.0,0.0,0.0,0.0,0.0,0.0,0.0,0.0,0.0,0.0,0.0,0.0,0.0,0.0,0.0,0.0,0.0,0.0,0.0,-0.804,-0.8827,-0.9608,-1.0444,-1.1676,-1.2858,0.0,0.0,0.0,0.0,0.0,0.0,0.0,0.0,0.0,0.0,0.0,0.0,0.0,0.0,0.0,0.0,0.0,0.0,0.0,0.0,0.0,0.0,0.0,0.0,0.0,0.0,0.0,0.0,0.0,0.0,0.0,0.0,0.0,0.0,0.0,0.0,0.0,0.0,0.0,0.0,0.0,0.0,0.0,0.0,0.0,0.0,0.0,0.0,0.0,0.0,0.0,0.0,0.0,0.0,0.0,0.0,0.0,0.0,0.0,0.0,0.0,0.0,0.0,0.0,0.0,0.0,0.0,0.0,0.0,0.0,0.0,0.0,0.0,0.0,0.0,0.0,0.0,0.0,0.0,0.0,0.0,0.0,0.0,0.0,0.0,0.0,0.0,0.0,0.0,0.0,0.0,0.0,0.0,0.0,0.0,0.0,0.0,0.0,0.0,0.0,0.0,0.0,0.0,0.0,0.0,0.0,0.0,0.0,-0.7237,-0.7613,-0.824,-0.8978,-0.9726,-1.1239,-1.2629,0.0,0.0,0.0,0.0,0.0,0.0,0.0,0.0,0.0,0.0,0.0,0.0,0.0,0.0,0.0,0.0,0.0,0.0,0.0,0.0,0.0,0.0,0.0,0.0,0.0,0.0,0.0,0.0,0.0,0.0,0.0,0.0,0.0,0.0,0.0,0.0,0.0,0.0,0.0,0.0,0.0,0.0,0.0,0.0,0.0,0.0,0.0,0.0,0.0,0.0,0.0,0.0,0.0,0.0,0.0,0.0,0.0,0.0,0.0,0.0,0.0,0.0,0.0,0.0,0.0,0.0,0.0,0.0,0.0,0.0,0.0,0.0,0.0,0.0,0.0,0.0,0.0,0.0,0.0,0.0,0.0,0.0,0.0,0.0,0.0,0.0,0.0,0.0,0.0,0.0,0.0,0.0,0.0,0.0,0.0,0.0,0.0,0.0,0.0,0.0,0.0,0.0,0.0,0.0,0.0,0.0,0.0,0.0,-0.6956,-0.7163,-0.7815,-0.856,-0.9323,-1.0856,-1.2375,0.0,0.0,0.0,0.0,0.0,0.0,0.0,0.0,0.0,0.0,0.0,0.0,0.0,0.0,0.0,0.0,0.0,0.0,0.0,0.0,0.0,0.0,0.0,0.0,0.0,0.0,0.0,0.0,0.0,0.0,0.0,0.0,0.0,0.0,0.0,0.0,0.0,0.0,0.0,0.0,0.0,0.0,0.0,0.0,0.0,0.0,0.0,0.0,0.0,0.0,0.0,0.0,0.0,0.0,0.0,0.0,0.0,0.0,0.0,0.0,0.0,0.0,0.0,0.0,0.0,0.0,0.0,0.0,0.0,0.0,0.0,0.0,0.0,0.0,0.0,0.0,0.0,0.0,0.0,0.0,0.0,0.0,0.0,0.0,0.0,0.0,0.0,0.0,0.0,0.0,0.0,0.0,0.0,0.0,0.0,0.0,0.0,0.0,0.0,0.0,0.0,0.0,0.0,0.0,0.0,0.0,0.0,0.0,-0.6728,-0.6809,-0.7736,-0.8587,-0.9428,-1.0863,-1.2284,0.0,0.0,0.0,0.0,0.0,0.0,0.0,0.0,0.0,0.0,0.0,0.0,0.0,0.0,0.0,0.0,0.0,0.0,0.0,0.0,0.0,0.0,0.0,0.0,0.0,0.0,0.0,0.0,0.0,0.0,0.0,0.0,0.0,0.0,0.0,0.0,0.0,0.0,0.0,0.0,0.0,0.0,0.0,0.0,0.0,0.0,0.0,0.0,-0.6794,0.0,0.0,0.0,0.0,0.0,0.0,0.0,0.0,0.0,0.0,0.0,0.0,0.0,0.0,0.0,0.0,0.0,0.0,0.0,0.0,0.0,0.0,0.0,0.0,0.0,0.0,0.0,0.0,0.0,0.0,0.0,0.0,0.0,0.0,0.0,0.0,0.0,0.0,0.0,0.0,0.0,0.0,0.0,0.0,0.0,0.0,0.0,0.0,0.0,0.0,0.0,0.0,0.0,0.0,0.0,0.0,0.0,0.0,0.0,-0.6708,-0.6951,-0.7842,-0.8748,-0.9614,-1.0823,-1.2191,0.0,0.0,0.0,0.0,0.0,0.0,0.0,0.0,0.0,0.0,0.0,0.0,0.0,0.0,0.0,0.0,0.0,0.0,0.0,0.0,0.0,0.0,0.0,0.0,0.0,0.0,0.0,0.0,0.0,0.0,0.0,0.0,0.0,0.0,0.0,0.0,0.0,0.0,0.0,0.0,0.0,0.0,0.0,0.0,0.0,0.0,0.0,0.0,0.0,0.0,0.0,0.0,0.0,0.0,0.0,0.0,0.0,0.0,0.0,0.0,0.0,0.0,0.0,0.0,0.0,0.0,0.0,0.0,0.0,0.0,0.0,0.0,0.0,0.0,0.0,0.0,0.0,0.0,0.0,0.0,0.0,0.0,0.0,0.0,0.0,0.0,0.0,0.0,0.0,0.0,0.0,0.0,0.0,0.0,0.0,0.0,0.0,0.0,0.0,0.0,0.0,0.0,0.0,0.0,0.0,0.0,0.0,-0.6456,-0.6847,-0.7255,-0.8107,-0.8973,-0.9869,-1.0793,-1.2165,-1.3942,0.0,0.0,0.0,0.0,0.0,0.0,0.0,0.0,0.0,0.0,0.0,0.0,0.0,0.0,0.0,0.0,0.0,0.0,0.0,0.0,0.0,0.0,0.0,0.0,0.0,0.0,0.0,0.0,0.0,0.0,0.0,0.0,0.0,0.0,0.0,0.0,0.0,0.0,-0.0476,-0.1067,0.0,0.0,0.0,0.0,0.0,0.0,0.0,0.0,-0.6922,0.0,0.0,0.0,0.0,0.0,0.0,0.0,0.0,0.0,0.0,0.0,0.0,0.0,0.0,0.0,0.0,0.0,0.0,0.0,0.0,0.0,0.0,0.0,0.0,0.0,0.0,0.0,0.0,0.0,0.0,0.0,0.0,0.0,0.0,0.0,0.0,0.0,0.0,0.0,0.0,0.0,0.0,0.0,0.0,0.0,0.0,0.0,0.0,0.0,0.0,0.0,0.0,0.0,0.0,0.0,0.0,-0.6101,-0.6595,-0.7051,-0.747,-0.8306,-0.9215,-1.0206,-1.0926,-1.2196,-1.4057,0.0,0.0,0.0,0.0,0.0,0.0,0.0,0.0,0.0,0.0,0.0,0.0,0.0,0.0,0.0,0.0,0.0,0.0,0.0,0.0,0.0,0.0,0.0,0.0,0.0,0.0,0.0,0.0,0.0,0.0,0.0,0.0,0.0,0.0,0.0,0.0,0.0,0.0,0.0,-0.1673,-0.2263,0.0,0.0,0.0,0.0,0.0,0.0,0.0,0.0,-0.7095,0.0,0.0,0.0,0.0,0.0,0.0,0.0,0.0,0.0,0.0,0.0,0.0,0.0,0.0,0.0,0.0,0.0,0.0,0.0,0.0,0.0,0.0,0.0,0.0,0.0,0.0,0.0,0.0,0.0,0.0,0.0,0.0,0.0,0.0,0.0,0.0,0.0,0.0,0.0,0.0,0.0,0.0,0.0,0.0,0.0,0.0,0.0,0.0,0.0,0.0,0.0,0.0,0.0,0.0,0.0,-0.6391,-0.6823,-0.7296,-0.7764,-0.8598,-0.9466,-1.0269,-1.1115,-1.2387,0.0,0.0,0.0,0.0,0.0,0.0,0.0,0.0,0.0,0.0,0.0,0.0,0.0,0.0,0.0,0.0,0.0,0.0,0.0,0.0,0.0,0.0,0.0,0.0,0.0,0.0,0.0,0.0,0.0,0.0,0.0,0.0,0.0,0.0,0.0,0.0,0.0,0.0,0.0,0.0,-0.2081,-0.264,-0.3124,0.0,0.0,0.0,0.0,0.0,0.0,-0.6782,-0.7095,0.0,0.0,0.0,0.0,0.0,0.0,0.0,0.0,0.0,0.0,0.0,0.0,0.0,0.0,0.0,0.0,0.0,0.0,0.0,0.0,0.0,0.0,0.0,0.0,0.0,0.0,0.0,0.0,0.0,0.0,0.0,0.0,0.0,0.0,0.0,0.0,0.0,0.0,0.0,0.0,0.0,0.0,0.0,0.0,0.0,0.0,0.0,0.0,0.0,0.0,0.0,0.0,0.0,0.0,0.0,-0.6599,-0.7012,-0.7534,-0.8095,-0.8914,-0.969,-1.0364,-1.1303,-1.2553,0.0,0.0,0.0,0.0,0.0,0.0,0.0,0.0,0.0,0.0,0.0,0.0,0.0,0.0,0.0,0.0,0.0,0.0,0.0,0.0,0.0,0.0,0.0,0.0,0.0,0.0,0.0,0.0,0.0,0.0,0.0,0.0,0.0,0.0,0.0,0.0,0.0,0.0,0.0,0.0,0.0,-0.2935,-0.3396,-0.4166,0.0,0.0,0.0,0.0,-0.6473,-0.683,0.0,0.0,0.0,0.0,0.0,0.0,0.0,0.0,0.0,0.0,0.0,0.0,0.0,0.0,0.0,0.0,0.0,0.0,0.0,0.0,0.0,0.0,0.0,0.0,0.0,0.0,0.0,0.0,0.0,0.0,0.0,0.0,0.0,0.0,0.0,0.0,0.0,0.0,0.0,0.0,0.0,0.0,0.0,0.0,0.0,0.0,0.0,0.0,0.0,0.0,0.0,0.0,0.0,0.0,0.0,0.0,-0.6599,-0.7112,-0.7722,-0.8436,-0.9102,-0.9907,-1.0744,-1.1428,-1.2553,0.0,0.0,0.0,0.0,0.0,0.0,0.0,0.0,0.0,0.0,0.0,0.0,0.0,0.0,0.0,0.0,0.0,0.0,0.0,0.0,0.0,0.0,0.0,0.0,0.0,0.0,0.0,0.0,0.0,0.0,0.0,0.0,0.0,0.0,0.0,0.0,0.0,0.0,0.0,0.0,0.0,-0.3154,-0.402,-0.4478,-0.4926,0.0,0.0,-0.6476,-0.67,-0.6966,0.0,0.0,0.0,0.0,0.0,0.0,0.0,0.0,0.0,0.0,0.0,0.0,0.0,0.0,0.0,0.0,0.0,0.0,0.0,0.0,0.0,0.0,0.0,0.0,0.0,0.0,0.0,0.0,0.0,0.0,0.0,0.0,0.0,0.0,0.0,0.0,0.0,0.0,0.0,0.0,0.0,0.0,0.0,0.0,0.0,0.0,0.0,0.0,0.0,0.0,0.0,0.0,0.0,0.0,0.0,-0.6885,-0.7055,-0.7521,-0.8068,-0.8759,-0.9338,-1.0079,-1.0965,-1.1584,-1.268,0.0,0.0,0.0,0.0,0.0,0.0,0.0,0.0,0.0,0.0,0.0,0.0,0.0,0.0,0.0,0.0,0.0,0.0,0.0,0.0,0.0,0.0,0.0,0.0,0.0,0.0,0.0,0.0,0.0,0.0,0.0,0.0,0.0,0.0,0.0,0.0,0.0,0.0,0.0,0.0,0.0,0.0,-0.4249,-0.4832,0.0,0.0,0.0,-0.6612,-0.6564,0.0,0.0,0.0,0.0,0.0,0.0,0.0,0.0,0.0,0.0,0.0,0.0,0.0,0.0,0.0,0.0,0.0,0.0,0.0,0.0,0.0,0.0,0.0,0.0,0.0,0.0,0.0,0.0,0.0,0.0,0.0,0.0,0.0,0.0,0.0,0.0,0.0,0.0,0.0,0.0,0.0,0.0,0.0,0.0,0.0,0.0,0.0,0.0,0.0,0.0,0.0,0.0,0.0,0.0,0.0,0.0,0.0,-0.7473,-0.7903,-0.8436,-0.9107,-0.9702,-1.0378,-1.1122,-1.174,0.0,0.0,0.0,0.0,0.0,0.0,0.0,0.0,0.0,0.0,0.0,0.0,0.0,0.0,0.0,0.0,0.0,0.0,0.0,0.0,0.0,0.0,0.0,0.0,0.0,0.0,0.0,-0.4968,0.0,0.0,0.0,0.0,0.0,0.0,0.0,0.0,0.0,0.0,0.0,0.0,0.0,0.0,-0.4389,-0.461,-0.5233,-0.5764,0.0,0.0,-0.6612,-0.6428,-0.6564,-0.6656,0.0,0.0,0.0,0.0,0.0,0.0,0.0,0.0,0.0,0.0,0.0,0.0,0.0,0.0,0.0,0.0,0.0,0.0,0.0,0.0,0.0,0.0,0.0,0.0,0.0,0.0,0.0,0.0,0.0,0.0,0.0,0.0,0.0,0.0,0.0,0.0,0.0,0.0,0.0,0.0,0.0,0.0,0.0,0.0,0.0,0.0,0.0,0.0,0.0,0.0,0.0,0.0,0.0,0.0,-0.7367,-0.7672,-0.8199,-0.878,-0.9454,-1.0168,-1.0782,-1.1272,-1.1934,-1.2972,0.0,0.0,0.0,0.0,0.0,0.0,0.0,0.0,0.0,0.0,0.0,0.0,0.0,0.0,0.0,0.0,0.0,0.0,0.0,0.0,0.0,0.0,0.0,0.0,0.0,0.0,0.0,0.0,0.0,0.0,0.0,0.0,0.0,0.0,0.0,0.0,0.0,0.0,0.0,0.0,0.0,-0.461,-0.5497,-0.5677,-0.5852,0.0,0.0,-0.6428,-0.6384,-0.6384,-0.6428,-0.6384,0.0,0.0,0.0,0.0,0.0,0.0,0.0,0.0,0.0,0.0,0.0,0.0,0.0,0.0,0.0,0.0,0.0,0.0,0.0,0.0,0.0,0.0,0.0,0.0,0.0,0.0,0.0,0.0,0.0,0.0,0.0,0.0,0.0,0.0,0.0,0.0,0.0,0.0,0.0,0.0,0.0,0.0,0.0,0.0,0.0,0.0,0.0,0.0,0.0,0.0,0.0,0.0,0.0,-0.7863,-0.8252,-0.8599,-0.9113,-0.9664,-1.0174,-1.0776,-1.1466,-1.1864,-1.2774,0.0,0.0,0.0,0.0,0.0,0.0,0.0,0.0,0.0,0.0,0.0,0.0,0.0,0.0,0.0,0.0,0.0,0.0,0.0,0.0,0.0,0.0,0.0,0.0,0.0,0.0,0.0,0.0,-0.2899,-0.1961,-0.0825,0.0,0.0,0.0,0.0,0.0,0.0,0.0,0.0,0.0,0.0,-0.5364,-0.5858,-0.6033,0.0,0.0,-0.6302,-0.6169,-0.5985,-0.5855,-0.5722,-0.5544,-0.5542,0.0,0.0,0.0,0.0,0.0,0.0,0.0,0.0,0.0,0.0,0.0,0.0,0.0,0.0,0.0,0.0,0.0,0.0,0.0,0.0,0.0,0.0,0.0,0.0,0.0,0.0,0.0,0.0,0.0,0.0,0.0,0.0,0.0,0.0,0.0,0.0,0.0,0.0,0.0,0.0,0.0,0.0,0.0,0.0,0.0,0.0,0.0,0.0,0.0,0.0,0.0,0.0,-0.8327,-0.883,-0.9036,-0.9402,-0.9958,-1.0339,-1.0902,-1.1599,-1.1957,-1.2765,0.0,0.0,0.0,0.0,0.0,0.0,0.0,0.0,0.0,0.0,0.0,0.0,0.0,0.0,0.0,0.0,0.0,0.0,0.0,0.0,0.0,0.0,0.0,0.0,0.0,0.0,0.0,0.0,-0.247,-0.1412,-0.0392,0.0,0.0,0.0,0.0,0.0,0.0,0.0,0.0,0.0,0.0,-0.5766,-0.6124,-0.621,-0.6207,-0.6163,-0.6035,-0.5816,-0.5542,-0.5322,-0.5104,-0.4924,0.0,0.0,0.0,0.0,0.0,0.0,0.0,0.0,0.0,0.0,0.0,0.0,0.0,0.0,0.0,0.0,0.0,0.0,0.0,0.0,0.0,0.0,0.0,0.0,0.0,0.0,0.0,0.0,0.0,0.0,-0.8998,0.0,0.0,0.0,0.0,0.0,0.0,0.0,0.0,0.0,0.0,0.0,0.0,0.0,0.0,0.0,0.0,0.0,0.0,0.0,0.0,0.0,0.0,-0.8654,-0.9351,-0.9466,-0.9748,-1.0269,-1.0807,-1.1254,-1.1591,-1.2174,-1.299,-1.4084,0.0,0.0,0.0,0.0,0.0,0.0,0.0,0.0,0.0,0.0,0.0,0.0,0.0,0.0,0.0,0.0,0.0,0.0,0.0,0.0,0.0,0.0,0.0,0.0,0.0,0.0,-0.3446,-0.1921,-0.0786,0.0,0.0,0.0,0.0,0.0,0.0,0.0,0.0,0.0,0.0,-0.5166,-0.5638,-0.6296,-0.5985,-0.5716,-0.5716,-0.5544,-0.5324,-0.5053,-0.4835,-0.4705,0.0,0.0,0.0,0.0,0.0,0.0,0.0,0.0,0.0,0.0,0.0,0.0,0.0,0.0,0.0,0.0,0.0,0.0,0.0,0.0,0.0,0.0,0.0,0.0,0.0,0.0,0.0,-0.9425,-0.9501,0.0,0.0,0.0,0.0,0.0,0.0,0.0,0.0,0.0,0.0,0.0,-0.8546,-0.8437,0.0,0.0,0.0,0.0,0.0,0.0,0.0,0.0,0.0,0.0,0.0,0.0,-0.9427,-0.9788,-0.9802,-0.9983,-1.0301,-1.0713,-1.1122,-1.1591,-1.2089,-1.3114,-1.4711,0.0,0.0,0.0,0.0,0.0,0.0,0.0,0.0,0.0,0.0,0.0,0.0,0.0,0.0,0.0,0.0,0.0,0.0,0.0,0.0,0.0,0.0,0.0,0.0,0.0,-0.3876,0.0,0.0,0.0,0.0,0.0,0.0,0.0,0.0,0.0,0.0,0.0,-0.4123,-0.5282,-0.5518,-0.5636,-0.5725,-0.5322,-0.5029,0.0,0.0,0.0,0.0,0.0,0.0,0.0,0.0,0.0,0.0,0.0,0.0,0.0,0.0,-0.3232,-0.3003,-0.2272,-0.148,-0.0942,0.0,0.0,0.0,0.0,0.0,0.0,0.0,0.0,0.0,0.0,0.0,0.0,0.0,0.0,-1.0255,0.0,-1.0331,0.0,0.0,0.0,0.0,0.0,0.0,0.0,0.0,-0.9504,-0.922,-0.8875,-0.8767,-0.8554,0.0,-0.8245,-0.8218,0.0,0.0,0.0,0.0,0.0,0.0,0.0,0.0,-0.9904,-1.0142,-1.0125,-1.0206,-1.0403,-1.0713,-1.1122,-1.1599,-1.2328,-1.3417,-1.4842,-1.5317,-1.5863,0.0,0.0,0.0,0.0,0.0,0.0,0.0,0.0,0.0,0.0,0.0,0.0,0.0,0.0,0.0,0.0,0.0,0.0,0.0,0.0,0.0,0.0,0.0,-0.3017,0.0,0.0,0.0,0.0,0.0,0.0,0.0,0.0,0.0,-0.2065,-0.2882,-0.3742,-0.4796,-0.4953,-0.4912,-0.4868,0.0,0.0,0.0,0.0,0.0,0.0,0.0,-0.3122,-0.2968,-0.2794,-0.2768,-0.3051,-0.3279,-0.3309,-0.2982,0.0,0.0,-0.2308,-0.1773,-0.1122,-0.0673,-0.0404,-0.0224,-0.0045,0.0,0.0,0.0,0.0,0.0,0.0,0.0,0.0,0.0,0.0,-1.0812,-1.0925,0.0,-1.1111,0.0,0.0,0.0,0.0,0.0,-1.0653,0.0,0.0,-0.9976,-0.9716,-0.9393,-0.9137,-0.8835,-0.856,-0.8743,-0.8811,-0.8805,-0.8572,0.0,0.0,0.0,0.0,0.0,0.0,-1.0154,-1.0406,-1.0354,-1.0396,-1.0586,-1.0933,-1.1286,-1.1654,-1.2842,-1.3812,-1.4488,-1.5067,-1.5444,-1.5565,-1.5794,0.0,0.0,0.0,0.0,0.0,0.0,0.0,0.0,0.0,0.0,0.0,0.0,0.0,0.0,0.0,0.0,0.0,0.0,0.0,0.0,-0.3134,0.0,0.0,0.0,0.0,0.0,0.0,0.0,0.0,0.0,0.0,-0.0768,-0.1779,-0.2623,-0.3366,0.0,0.0,0.0,0.0,-0.3022,-0.302,-0.2857,-0.2778,-0.2731,-0.2524,-0.2416,-0.2424,0.0,0.0,-0.1744,-0.2152,-0.2288,-0.1839,-0.1571,-0.1488,-0.1793,-0.1408,-0.0942,-0.0493,-0.018,0.0,0.0,0.0,0.0,-0.8932,0.0,0.0,0.0,0.0,-1.108,-1.126,-1.1446,-1.1446,-1.1484,-1.1521,-1.1521,0.0,0.0,0.0,0.0,0.0,0.0,-1.0454,-1.0327,-1.0099,-0.9851,-0.9683,-0.961,-0.944,-0.9204,-0.9279,-0.9309,-0.9326,-0.9417,-0.9459,-0.942,0.0,0.0,0.0,0.0,-1.0536,-1.0619,-1.0541,-1.053,-1.0586,-1.0933,-1.1466,-1.2236,-1.3056,-1.3743,-1.4279,-1.4588,-1.4842,-1.5003,-1.4808,0.0,0.0,0.0,0.0,0.0,0.0,0.0,0.0,0.0,0.0,0.0,0.0,0.0,0.0,0.0,0.0,0.0,0.0,0.0,-0.345,-0.2393,-0.1532,0.0,0.0,0.0,0.0,0.0,0.0,0.0,0.0,0.0,0.1501,-0.0121,-0.1526,0.0,0.0,-0.2075,-0.1992,-0.1812,-0.1671,-0.1602,-0.1705,0.0,-0.173,-0.1706,-0.1643,-0.1528,-0.1376,-0.1225,-0.1027,-0.1255,-0.1389,-0.1076,-0.0931,-0.088,-0.0841,-0.0714,-0.0538,-0.0404,-0.018,0.0,0.0,0.0,0.0,-0.8475,-0.943,-1.0363,-1.0999,-1.1446,-1.1669,-1.1811,-1.1929,-1.1929,-1.1929,-1.1929,-1.1929,-1.1907,-1.179,-1.1462,0.0,0.0,0.0,-1.0568,-1.0451,-1.029,-1.0142,-0.9996,-1.0021,-0.9888,-0.9722,-0.9684,-0.9722,-0.9722,-0.9862,-0.9922,-0.9958,0.0,0.0,-1.0572,-1.0676,-1.0673,-1.0659,-1.0616,-1.0586,-1.0586,-1.1066,-1.1677,-1.249,-1.3147,-1.3722,-1.416,-1.4339,-1.4418,-1.4377,-1.3999,-1.3613,0.0,0.0,0.0,0.0,0.0,0.0,0.0,0.0,0.0,0.0,0.0,-0.7863,-0.7138,0.0,0.0,0.0,-0.4693,-0.3602,-0.2549,-0.1766,0.0,0.0,0.0,0.0,0.0,0.0,0.0,0.1766,0.2276,0.2666,0.2938,0.1939,0.0764,-0.0165,-0.0248,-0.0248,-0.0249,0.0,-0.0447,-0.0482,-0.0689,-0.0815,-0.0805,-0.0812,-0.078,-0.0581,-0.0634,-0.056,-0.0262,-0.0394,-0.0481,-0.0262,-0.0173,-0.0172,-0.0043,0.0,-0.0044,-0.0219,-0.0132,0.0,0.0,0.0,0.0,-0.7838,-0.9079,-1.0395,-1.1335,-1.1929,-1.2194,-1.2268,-1.2268,-1.2305,-1.2305,-1.2305,-1.2305,-1.2131,-1.1852,-1.1523,0.0,-1.0955,-1.0995,-1.0847,-1.0586,-1.0586,-1.0491,-1.0301,-1.0339,-1.0206,-1.0047,-1.0047,-1.0053,-1.0047,-1.0053,-1.0149,-1.0346,-1.0489,-1.0609,-1.0705,-1.0725,-1.0698,-1.0631,-1.0618,-1.0649,-1.0688,-1.131,-1.1926,-1.2552,-1.3147,-1.3722,-1.4169,-1.4207,-1.4079,-1.3748,-1.341,-1.2917,-1.228,0.0,0.0,0.0,0.0,0.0,0.0,0.0,0.0,0.0,0.0,0.0,0.0,0.0,0.0,0.0,-0.3951,0.0,-0.1921,-0.1256,0.0,0.0,0.0,0.0157,0.055,0.1022,0.1571,0.2157,0.0,0.0,0.3841,0.407,0.3746,0.2538,0.2141,0.1818,0.1416,0.0994,0.0666,0.0472,0.0236,0.0118,0.0118,0.0079,0.0159,0.0244,0.0166,0.0126,0.0422,0.0422,0.0421,0.0507,0.0589,0.0588,0.0588,0.0546,0.0503,0.0126,0.0085,0.0,0.0,0.0,0.0,-0.7501,-0.8627,-0.9576,-1.0475,-1.1372,-1.1855,-1.2077,-1.2077,-1.2224,-1.2305,-1.2305,-1.2305,-1.2017,-1.1516,-1.1223,-1.0935,-1.0693,-1.0693,-1.066,-1.0593,-1.0586,-1.0593,-1.053,-1.053,-1.0498,-1.0466,-1.046,-1.046,-1.0466,-1.0555,-1.0649,-1.0688,-1.088,-1.0882,-1.0789,-1.0789,-1.0844,-1.0972,-1.1003,-1.109,-1.1373,-1.1786,-1.2282,-1.2867,-1.3299,-1.37,-1.401,-1.3821,-1.3549,-1.3202,-1.2685,-1.2117,-1.1583,-1.1752,0.0,0.0,0.0,0.0,0.0,0.0,0.0,0.0,0.0,-0.7138,-0.6714,0.0,-0.5595,0.0,-0.368,-0.2314,-0.1532,-0.0864,0.0,0.0,0.0039,0.0314,0.0589,0.1179,0.1767,0.2353,0.3137,0.3917,0.4616,0.5007,0.5135,0.4771,0.3909,0.3159,0.2723,0.2163,0.1763,0.1528,0.1215,0.0983,0.098,0.0983,0.091,0.077,0.0695,0.066,0.063,0.0548,0.0548,0.0589,0.0622,0.0616,0.0657,0.0607,0.06,0.048,0.0449,0.0417,0.0252,0.0245,0.02,-0.6931,-0.7986,-0.8756,-0.9562,-1.0447,-1.1341,-1.1818,-1.2009,-1.2114,-1.2231,-1.2285,-1.2024,-1.1657,-1.1223,-1.0935,-1.0747,-1.0593,-1.0586,-1.0586,-1.0586,-1.0586,-1.0624,-1.0688,-1.0681,-1.0744,-1.0814,-1.0807,-1.0807,-1.0807,-1.0902,-1.0965,-1.1021,-1.1216,-1.1341,-1.1365,-1.109,-1.1028,-1.1185,-1.1178,-1.1373,-1.1809,-1.2112,-1.2544,-1.3125,-1.3459,-1.3731,-1.389,-1.358,-1.3186,-1.2705,-1.2182,-1.1654,-1.1122,-1.1278,-1.1263,0.0,0.0,0.0,0.0,0.0,0.0,0.0,0.0,0.0,0.0,0.0,-0.5285,-0.4501,-0.3095,-0.1922,-0.1178,-0.055,-0.0118,-0.0039,0.0236,0.055,0.0864,0.1375,0.2002,0.2705,0.345,0.4215,0.4934,0.5313,0.5559,0.5654,0.4962,0.4187,0.3538,0.3006,0.2574,0.2281,0.1898,0.1672,0.1635,0.165,0.159,0.1377,0.1314,0.1288,0.1182,0.1185,0.1185,0.1184,0.1172,0.1162,0.1201,0.1191,0.1179,0.118,0.1105,0.0879,0.0529,0.044,0.0395,-0.6318,-0.73,-0.804,-0.878,-0.9554,-1.0701,-1.1451,-1.1855,-1.1892,-1.2002,-1.2158,-1.1575,-1.1229,-1.0975,-1.072,-1.0586,-1.0586,-1.0586,-1.0586,-1.0586,-1.0624,-1.0681,-1.0807,-1.0863,-1.0965,-1.1122,-1.1153,-1.116,-1.1185,-1.1185,-1.1247,-1.1404,-1.1622,-1.1872,-1.2182,-1.1654,-1.1397,-1.1459,-1.1459,-1.1716,-1.2212,-1.2459,-1.285,-1.339,-1.364,-1.3791,-1.3799,-1.3428,-1.2942,-1.2305,-1.1809,-1.1341,-1.0839,-1.0893,-1.0857,0.0,-1.0811,0.0,0.0,0.0,0.0,0.0,0.0,0.0,0.0,-0.5754,-0.4854,-0.3446,-0.2429,-0.1568,-0.0942,-0.0314,0.0118,0.0314,0.0511,0.0864,0.1297,0.1726,0.227,0.3041,0.3667,0.433,0.4975,0.5256,0.5467,0.5666,0.543,0.4876,0.417,0.3637,0.3209,0.2774,0.251,0.2272,0.2164,0.2156,0.2146,0.1965,0.1918,0.1985,0.1906,0.1907,0.1908,0.1907,0.1868,0.1867,0.187,0.1868,0.1829,0.1823,0.1607,0.1334,0.0855,0.0662,0.0622,-0.6008,-0.6869,-0.7797,-0.8503,-0.9152,-0.9808,-1.0484,-1.1109,-1.129,-1.1423,-1.1529,-1.1229,-1.1042,-1.0975,-1.072,-1.0586,-1.0586,-1.0586,-1.0586,-1.0586,-1.0713,-1.0776,-1.08,-1.1059,-1.1247,-1.1279,-1.1428,-1.1498,-1.1505,-1.1622,-1.1778,-1.1965,-1.2205,-1.2482,-1.2805,0.0,0.0,0.0,-1.2297,-1.2459,-1.2836,-1.3033,-1.3359,-1.386,-1.3799,0.0,-1.3769,-1.3224,-1.2644,-1.2151,-1.1654,0.0,0.0,0.0,0.0,0.0,0.0,0.0,0.0,0.0,0.0,0.0,-0.6721,-0.6335,-0.598,-0.5165,-0.4151,-0.302,-0.2117,-0.1372,-0.0746,-0.0118,0.0275,0.0314,0.0825,0.1258,0.1533,0.204,0.2607,0.3201,0.3652,0.4183,0.482,0.5122,0.5328,0.5509,0.5483,0.5194,0.4624,0.4159,0.3801,0.3529,0.3152,0.2873,0.2733,0.2741,0.2677,0.2497,0.2464,0.2405,0.2223,0.2184,0.2109,0.204,0.2,0.1927,0.1779,0.174,0.1782,0.1741,0.1696,0.1555,0.1175,0.0975,0.0777,-0.5579,0.0,-0.7163,-0.7913,0.0,-0.9074,-0.9673,-1.0253,-1.0793,-1.1111,-1.1202,-1.1056,-1.0915,-1.0801,-1.0653,-1.0586,-1.0586,-1.0681,-1.0681,-1.0713,-1.087,-1.1021,-1.1178,-1.1373,-1.1553,-1.1685,-1.1809,-1.1903,-1.1934,-1.1988,-1.2212,-1.2552,-1.2789,-1.3056,-1.3376,-1.345,-1.3299,-1.2903,-1.2789,-1.295,-1.3385,-1.3549,-1.3799,-1.4109,0.0,0.0,0.0,0.0,0.0,0.0,0.0,0.0,0.0,0.0,0.0,-0.999,-0.9837,-0.9405,-0.866,-0.8148,-0.7588,-0.6949,-0.6204,-0.5712,-0.5473,-0.4618,-0.3761,-0.2863,-0.2,-0.1177,-0.051,0.0079,0.0511,0.0786,0.1295,0.1727,0.2038,0.256,0.3064,0.3557,0.3996,0.4442,0.487,0.513,0.531,0.5429,0.5378,0.5215,0.4922,0.4523,0.4157,0.3823,0.3602,0.3397,0.3227,0.3227,0.3179,0.3002,0.2959,0.2907,0.2693,0.2657,0.2584,0.2478,0.2442,0.2405,0.2331,0.2295,0.2296,0.2292,0.22,0.2044,0.1855,0.1566,0.1203,-0.5193,-0.5921,-0.6618,-0.7307,-0.7987,-0.8576,-0.9119,-0.965,0.0,0.0,0.0,-1.0915,-1.0821,-1.0593,-1.0586,-1.0624,-1.0656,-1.0744,-1.0839,-1.087,-1.109,-1.1341,-1.1591,-1.1716,-1.1903,-1.2189,-1.2243,-1.2344,-1.2428,-1.2459,-1.2697,-1.3072,-1.3307,-1.358,-1.3899,-1.4019,-1.3881,-1.3519,-1.3285,-1.3407,-1.386,-1.398,-1.4139,-1.4306,-1.3989,-1.364,-1.3268,-1.2636,-1.1988,-1.1334,-1.1185,-1.087,-1.0339,-1.0276,-1.0047,-0.9562,-0.9336,-0.8925,-0.8255,-0.7732,-0.7199,-0.6682,-0.5778,-0.5162,-0.4927,-0.4151,-0.3411,-0.2746,-0.1806,-0.0983,-0.0354,0.0275,0.0825,0.1258,0.172,0.2142,0.2529,0.3009,0.3479,0.3946,0.431,0.4681,0.4982,0.5167,0.5294,0.5363,0.5282,0.512,0.5066,0.4787,0.4409,0.4064,0.3953,0.3871,0.3643,0.363,0.3574,0.3409,0.3428,0.3404,0.3267,0.3233,0.3162,0.3004,0.3017,0.2976,0.2942,0.2899,0.2945,0.2947,0.2754,0.257,0.254,0.2228,0.1828,-0.5024,-0.5716,-0.6548,-0.7241,-0.7797,-0.8511,-0.9215,-0.9958,-1.0264,-1.0463,-1.0653,-1.0653,-1.0633,-1.0586,-1.0586,-1.0688,-1.0776,-1.0807,-1.0902,0.0,-1.1404,-1.156,-1.163,-1.2189,-1.2467,-1.2529,-1.2767,-1.2889,-1.292,-1.3064,-1.3238,-1.345,-1.3731,-1.407,-1.4348,-1.4297,-1.4297,-1.4327,-1.401,-1.3989,-1.4237,-1.4267,-1.4267,-1.4267,-1.3959,-1.3558,-1.3042,-1.2582,-1.1996,-1.1341,-1.116,-1.0839,-1.0333,-1.0142,-0.9888,-0.9518,-0.8954,-0.8364,-0.7808,-0.7153,-0.6432,-0.5703,-0.5245,-0.4888,-0.4501,-0.3679,-0.2938,-0.2314,-0.1492,-0.0786,-0.0314,0.0393,0.098,0.1293,0.1925,0.247,0.2889,0.3194,0.3625,0.423,0.4364,0.4622,0.4993,0.5129,0.5226,0.5365,0.5392,0.5292,0.516,0.4906,0.4682,0.4528,0.4489,0.4325,0.4033,0.3938,0.3893,0.3746,0.3765,0.3757,0.3725,0.3694,0.366,0.3442,0.3421,0.3349,0.3207,0.3161,0.3177,0.3183,0.3059,0.2946,0.2948,0.2725,0.2387,-0.4761,-0.5554,-0.6317,-0.7007,-0.7661,-0.8533,-0.9312,-0.9989,-1.0079,-1.0333,-1.0593,-1.0586,-1.0656,-1.0713,-1.0713,-1.0814,-1.0965,-1.1021,-1.1185,-1.138,-1.1591,-1.1872,-1.2158,-1.2467,-1.2683,-1.2836,-1.3042,-1.3186,-1.3277,-1.3489,-1.37,-1.395,-1.4169,-1.4348,-1.4485,-1.4446,-1.4446,-1.4485,-1.4297,-1.4228,-1.4387,-1.4327,-1.4306,-1.4297,-1.3799,-1.3338,-1.2897,-1.2428,-1.1903,-1.1216,-1.1122,-1.0807,-1.0174,-0.9989,-0.967,-0.9145,-0.863,-0.8047,-0.7466,-0.6642,-0.5811,-0.5099,-0.4731,-0.4337,-0.3842,-0.3383,-0.282,-0.2078,-0.1335,-0.0629,-0.0039,0.0543,0.1117,0.1693,0.222,0.2706,0.3143,0.3477,0.3862,0.4333,0.4514,0.476,0.5063,0.5253,0.5385,0.5491,0.5591,0.5624,0.5524,0.5458,0.5229,0.4827,0.4691,0.4628,0.4464,0.4428,0.4395,0.4361,0.4325,0.4292,0.4259,0.4225,0.4125,0.3959,0.3861,0.3763,0.3627,0.356,0.3525,0.3525,0.3491,0.3422,0.3422,0.319,0.2755,-0.4525,-0.5392,-0.6086,-0.6905,-0.7787,-0.8624,-0.937,-0.9983,-1.0021,-1.0206,-1.0593,-1.0624,-1.0713,-1.0807,-1.0832,-1.0958,-1.1153,-1.131,-1.1459,-1.1654,-1.1872,-1.222,-1.2598,-1.2713,-1.292,-1.3133,-1.3329,-1.3519,-1.3631,-1.3821,-1.4049,-1.4336,-1.4446,-1.4485,-1.4485,-1.4485,-1.4485,-1.4485,-1.4387,-1.4387,-1.4455,-1.4366,-1.4246,-1.4079,-1.361,-1.3125,-1.2674,-1.2313,-1.1778,-1.1153,-1.1059,-1.0713,-1.0047,-0.983,-0.944,-0.8829,-0.8404,-0.7814,-0.7016,-0.6173,-0.5406,-0.4755,-0.4338,-0.3858,-0.3306,-0.3012,-0.2597,-0.1878,-0.1171,-0.0467,0.0194,0.0724,0.1314,0.2021,0.2456,0.2889,0.3385,0.3771,0.4124,0.4454,0.4754,0.4997,0.5219,0.5484,0.5653,0.5686,0.5789,0.5892,0.5892,0.5892,0.5624,0.5259,0.506,0.5027,0.4994,0.496,0.496,0.4964,0.4861,0.4791,0.4725,0.4658,0.4592,0.4422,0.4292,0.4195,0.4195,0.4128,0.4061,0.4059,0.4025,0.3959,0.3792,0.3558,0.3123,-0.4425,-0.5223,-0.6053,-0.7171,-0.8382,-0.8829,-0.9376,-0.9951,-1.0021,-1.0206,-1.0593,-1.0713,-1.0807,-1.0839,-1.0996,-1.1153,-1.1303,-1.1466,-1.1654,-1.184,-1.2313,-1.2567,-1.2683,-1.3155,-1.342,-1.348,-1.3791,-1.392,-1.395,-1.4139,-1.4327,-1.4455,-1.4485,-1.4515,-1.4485,-1.4515,-1.4485,-1.4485,-1.4485,-1.4426,-1.4336,-1.4306,-1.4079,-1.3601,-1.339,-1.2995,-1.2398,-1.2182,-1.1809,-1.1153,-1.0933,-1.0579,-1.0047,-0.9716,-0.9306,-0.8835,-0.8312,-0.7526,-0.642,-0.5702,-0.5161,-0.4726,-0.4161,-0.3578,-0.307,-0.2531,-0.2061,-0.1583,-0.0884,-0.0266,0.0265,0.0928,0.15,0.201,0.2573,0.3128,0.3535,0.3978,0.4414,0.4715,0.5076,0.5392,0.5521,0.5752,0.5892,0.5921,0.5991,0.602,0.5991,0.5991,0.5987,0.5822,0.5789,0.5723,0.5554,0.5517,0.5455,0.5362,0.5193,0.5123,0.5057,0.496,0.4761,0.4894,0.4761,0.4728,0.4728,0.4694,0.4694,0.4561,0.4492,0.4392,0.4095,0.3861,0.3525,-0.4159,-0.5156,-0.5914,-0.7101,-0.8447,-0.8861,-0.9376,-0.9989,-1.0021,-1.0269,-1.0719,-1.0902,-1.0996,-1.0996,-1.1279,-1.1466,-1.1615,-1.1802,-1.2027,-1.2282,-1.2498,-1.2797,-1.3155,-1.3359,-1.361,-1.3821,-1.4049,-1.4169,-1.4237,-1.4437,-1.4616,-1.4773,-1.4793,-1.4734,-1.4645,-1.4616,-1.4577,-1.4485,-1.4485,-1.4387,-1.4139,-1.4139,-1.392,-1.3541,-1.3238,-1.2858,-1.2367,-1.2189,-1.1778,-1.1153,-1.0902,-1.0555,-1.0015,-0.9626,-0.9145,-0.8641,-0.7722,-0.6872,-0.6086,-0.5383,-0.4811,-0.43,-0.3676,-0.3165,-0.2741,-0.213,-0.1583,-0.1196,-0.067,-0.0074,0.0554,0.1085,0.1602,0.22,0.271,0.3211,0.3786,0.4126,0.45,0.5063,0.5292,0.5528,0.5752,0.602,0.6255,0.642,0.6486,0.6482,0.6486,0.6486,0.6482,0.6486,0.6482,0.6284,0.5918,0.5789,0.5756,0.5723,0.5624,0.5587,0.5554,0.5524,0.5458,0.5428,0.5326,0.5226,0.5163,0.5027,0.496,0.4894,0.4794,0.4628,0.4395,0.4228,0.3961,-0.3892,-0.5024,-0.598,-0.7195,-0.8517,-0.8856,-0.9402,-0.9958,-1.0021,-1.0301,-1.0807,-1.0996,-1.116,-1.1279,-1.1529,-1.1709,-1.1833,-1.212,-1.2344,-1.259,-1.2744,-1.3056,-1.3472,-1.367,-1.386,-1.407,-1.4279,-1.4437,-1.4506,-1.4666,-1.4843,-1.5009,-1.5009,-1.4941,-1.4775,-1.4745,-1.4656,-1.4565,-1.4515,-1.4357,-1.4109,-1.401,-1.3799,-1.339,-1.3133,-1.2767,-1.2282,-1.2158,-1.1809,-1.1153,-1.087,-1.0523,-1.0015,-0.9498,-0.892,-0.8214,-0.7232,-0.6379,-0.5855,-0.516,-0.4495,-0.3966,-0.3321,-0.277,-0.2326,-0.1763,-0.1212,-0.0785,-0.0393,0.0179,0.0755,0.1232,0.1768,0.2454,0.2886,0.3395,0.4,0.4328,0.4764,0.5292,0.5591,0.5793,0.6123,0.6449,0.6716,0.6909,0.7007,0.7073,0.7073,0.7045,0.704,0.7073,0.7073,0.6811,0.6317,0.6218,0.6185,0.6152,0.6152,0.6115,0.6086,0.6086,0.5987,0.5855,0.5815,0.5716,0.5557,0.5392,0.5256,0.5093,0.496,0.4894,0.4758,0.4561,0.4331,-0.3758,-0.4824,-0.6445,-0.7629,-0.8511,-0.8861,-0.937,-0.9989,-0.9989,-1.0301,-1.08,-1.0996,-1.1279,-1.156,-1.1747,-1.1809,-1.1903,-1.2344,-1.259,-1.2713,-1.3186,-1.345,-1.3541,-1.401,-1.4267,-1.4327,-1.4547,-1.4754,-1.4941,-1.497,-1.497,-1.5,-1.5029,-1.5009,-1.497,-1.4813,-1.4715,-1.4656,-1.4565,-1.4417,-1.4276,-1.41,-1.3709,-1.3164,-1.3011,-1.2705,-1.2182,-1.2127,-1.1778,-1.1129,-1.0782,-1.0428,-0.9983,-0.937,-0.8598,-0.7652,-0.6839,-0.6185,-0.565,-0.4987,-0.4361,-0.3825,-0.3131,-0.2493,-0.1995,-0.1459,-0.0919,-0.0373,0.0,0.0446,0.0837,0.1444,0.2064,0.2632,0.3167,0.3699,0.4231,0.4725,0.5123,0.5458,0.5987,0.642,0.6782,0.704,0.7138,0.7265,0.7363,0.7489,0.7526,0.7489,0.7493,0.7489,0.7461,0.733,0.6979,0.6811,0.6815,0.6782,0.6708,0.6675,0.6576,0.6515,0.6383,0.628,0.6214,0.6115,0.5954,0.5822,0.5723,0.5557,0.5359,0.5259,0.506,0.4791,0.4561,-0.3685,-0.5322,-0.6515,-0.7466,-0.8214,-0.8668,-0.9247,-0.9868,-0.9983,-1.0358,-1.0933,-1.1059,-1.1341,-1.1747,-1.2027,-1.2182,-1.2336,-1.2621,-1.2889,-1.3155,-1.339,-1.367,-1.401,-1.4309,-1.4458,-1.4577,-1.4784,-1.497,-1.5127,-1.5127,-1.5176,-1.5254,-1.5245,-1.5225,-1.5117,-1.5059,-1.4902,-1.4706,-1.4666,-1.4526,-1.4297,-1.4109,-1.3761,-1.3368,-1.3133,-1.2767,-1.2243,-1.2151,-1.1778,-1.1129,-1.0776,-1.0428,-0.9983,-0.9151,-0.8344,-0.7554,-0.6806,-0.6119,-0.5491,-0.4788,-0.4192,-0.3629,-0.2924,-0.2321,-0.1884,-0.1311,-0.074,-0.0303,0.0303,0.0745,0.112,0.1589,0.2186,0.2822,0.3357,0.3894,0.4428,0.496,0.5458,0.5888,0.6478,0.6975,0.7237,0.74,0.7591,0.7814,0.7912,0.7982,0.8117,0.8149,0.8084,0.7977,0.7944,0.7879,0.7661,0.7396,0.7265,0.7265,0.7228,0.7199,0.7167,0.704,0.6905,0.6811,0.6745,0.6581,0.642,0.6189,0.609,0.5855,0.569,0.5557,0.5292,0.506,0.4794,-0.392,-0.555,-0.6482,-0.7265,-0.8052,-0.8576,-0.9189,-0.9766,-0.9958,-1.0428,-1.0996,-1.1153,-1.1428,-1.1903,-1.2243,-1.2529,-1.2744,-1.295,-1.3186,-1.3511,-1.3662,-1.3971,-1.4348,-1.4508,-1.4647,-1.4813,-1.497,-1.5127,-1.5264,-1.5264,-1.5303,-1.5381,-1.542,-1.5362,-1.5293,-1.5205,-1.5088,-1.4902,-1.4765,-1.4606,-1.4437,-1.413,-1.3881,-1.3631,-1.3224,-1.2797,-1.2328,-1.2189,-1.1817,-1.1153,-1.0782,-1.0339,-0.969,-0.8926,-0.8182,-0.7526,-0.6806,-0.6119,-0.5428,-0.4722,-0.4056,-0.3462,-0.276,-0.2153,-0.1748,-0.1076,-0.0572,-0.0101,0.0437,0.0941,0.1378,0.1782,0.2321,0.2991,0.3558,0.4125,0.4691,0.519,0.5785,0.6412,0.6937,0.7363,0.7689,0.7857,0.8084,0.8366,0.8431,0.8533,0.8635,0.8668,0.8635,0.8495,0.8463,0.8431,0.8339,0.8177,0.7819,0.7754,0.7689,0.7689,0.7689,0.7563,0.7433,0.7372,0.7241,0.7077,0.6852,0.6589,0.6358,0.6123,0.5987,0.5888,0.5591,0.5326,0.5027,-0.4495,-0.5458,-0.6346,-0.7167,-0.7987,-0.8544,-0.9157,-0.9734,-0.9958,-1.0428,-1.1052,-1.124,-1.1553,-1.2058,-1.2444,-1.2752,-1.2981,-1.3307,-1.3511,-1.3601,-1.401,-1.4318,-1.4508,-1.4647,-1.4804,-1.502,-1.5147,-1.5254,-1.5352,-1.5391,-1.5381,-1.541,-1.542,-1.5391,-1.5381,-1.5293,-1.5215,-1.5088,-1.4872,-1.4706,-1.4656,-1.424,-1.398,-1.3881,-1.3346,-1.2797,-1.2328,-1.2151,-1.1778,-1.1153,-1.0782,-1.011,-0.921,-0.8705,-0.8182,-0.7526,-0.6806,-0.6119,-0.5458,-0.4722,-0.399,-0.3293,-0.2591,-0.1985,-0.1446,-0.0841,-0.0303,0.0168,0.0605,0.1008,0.1547,0.2052,0.2589,0.3159,0.3658,0.4292,0.4924,0.5418,0.6013,0.6937,0.7396,0.7717,0.8074,0.8376,0.8608,0.8802,0.8958,0.9017,0.9081,0.9081,0.9017,0.9017,0.9017,0.8985,0.8985,0.8958,0.8571,0.8247,0.8144,0.8112,0.8112,0.8052,0.7922,0.7829,0.7666,0.747,0.7241,0.6979,0.6782,0.6581,0.6416,0.6185,0.5888,0.5591,0.5259,-0.4125,-0.5256,-0.598,-0.6802,-0.7689,-0.8312,-0.899,-0.962,-0.9856,-1.039,-1.1028,-1.1247,-1.1615,-1.212,-1.2529,-1.2836,-1.305,-1.3549,-1.3851,-1.389,-1.4178,-1.4437,-1.4627,-1.4843,-1.5049,-1.5245,-1.5303,-1.5362,-1.5391,-1.542,-1.542,-1.542,-1.542,-1.542,-1.542,-1.5362,-1.5284,-1.5186,-1.5,-1.4843,-1.4686,-1.4249,-1.401,-1.392,-1.3354,-1.2828,-1.2459,-1.2212,-1.1778,-1.1129,-1.0776,-1.011,-0.9177,-0.8705,-0.8214,-0.7526,-0.6806,-0.6119,-0.5425,-0.4725,-0.399,-0.3259,-0.2591,-0.1951,-0.1379,-0.0808,-0.027,0.027,0.074,0.1176,0.1614,0.2218,0.2755,0.3159,0.3789,0.4422,0.512,0.5918,0.6708,0.733,0.7857,0.8279,0.8598,0.8861,0.9119,0.9388,0.9478,0.9536,0.9632,0.9632,0.9632,0.9568,0.9568,0.9472,0.937,0.9306,0.9087,0.8797,0.8668,0.8468,0.8506,0.8506,0.8376,0.8252,0.8057,0.7862,0.7629,0.74,0.7204,0.6909,0.6679,0.6449,0.6185,0.5888,0.5557,-0.3892,-0.505,-0.5778,-0.6634,-0.7554,-0.822,-0.8894,-0.9492,-0.9849,-1.0434,-1.1059,-1.131,-1.1654,-1.2158,-1.2652,-1.2889,-1.3072,-1.37,-1.401,-1.407,-1.4339,-1.4586,-1.4804,-1.5049,-1.5216,-1.5381,-1.542,-1.542,-1.542,-1.542,-1.542,-1.542,-1.542,-1.542,-1.542,-1.542,-1.5362,-1.5254,-1.5098,-1.4941,-1.4725,-1.4279,-1.401,-1.392,-1.3346,-1.2858,-1.2513,-1.2243,-1.1778,-1.1153,-1.0649,-0.9913,-0.9081,-0.8673,-0.8187,-0.7526,-0.6811,-0.6123,-0.5425,-0.4722,-0.3954,-0.3257,-0.2589,-0.1918,-0.1312,-0.0774,-0.027,0.0303,0.0807,0.121,0.1613,0.2251,0.2822,0.3159,0.3856,0.4619,0.5418,0.6412,0.7134,0.7661,0.822,0.8673,0.9022,0.9312,0.9568,0.983,0.9868,0.9894,0.9983,0.9989,0.9958,0.9894,0.983,0.976,0.969,0.9626,0.9568,0.9376,0.9183,0.8958,0.8829,0.8791,0.8727,0.8603,0.8441,0.8252,0.8019,0.7824,0.7596,0.7302,0.7007,0.6741,0.6511,0.6214,0.5851,-0.3789,-0.4845,-0.5712,-0.6605,-0.7493,-0.8214,-0.8861,-0.9492,-0.9881,-1.0428,-1.1059,-1.1435,-1.1817,-1.2182,-1.2736,-1.3011,-1.3133,-1.3709,-1.404,-1.416,-1.4488,-1.4813,-1.5,-1.5216,-1.5362,-1.542,-1.542,-1.542,-1.542,-1.542,-1.542,-1.542,-1.542,-1.542,-1.542,-1.542,-1.541,-1.5362,-1.5137,-1.5009,-1.4941,-1.4339,-1.401,-1.398,-1.3346,-1.2828,-1.2513,-1.212,-1.1685,-1.109,-1.0396,-0.9728,-0.9087,-0.8673,-0.8187,-0.7526,-0.6806,-0.6119,-0.5425,-0.4722,-0.3956,-0.3257,-0.2589,-0.1884,-0.121,-0.074,-0.0236,0.0404,0.0841,0.121,0.1613,0.2217,0.2822,0.3293,0.4054,0.4984,0.6046,0.6839,0.7461,0.7987,0.8506,0.9022,0.946,0.9702,0.9926,1.011,1.0174,1.0206,1.0174,1.0244,1.011,1.0085,1.0149,1.011,1.0072,0.9951,0.9888,0.9792,0.96,0.9408,0.921,0.9145,0.9081,0.8952,0.8765,0.8603,0.8441,0.8214,0.7987,0.7759,0.7461,0.7167,0.6806,0.6478,0.6115,-0.3456,-0.4519,-0.5521,-0.6445,-0.733,-0.8155,-0.8894,-0.9524,-1.0009,-1.0555,-1.1122,-1.156,-1.1934,-1.2305,-1.2767,-1.3133,-1.3407,-1.3791,-1.4079,-1.4297,-1.4704,-1.5,-1.5147,-1.5303,-1.542,-1.542,-1.542,-1.542,-1.542,-1.542,-1.542,-1.542,-1.542,-1.542,-1.542,-1.542,-1.542,-1.5362,-1.5137,-1.5009,-1.4921,-1.4339,-1.401,-1.395,-1.3346,-1.2867,-1.2459,-1.174,-1.1185,-1.0776,-1.0276,-0.969,-0.9049,-0.8668,-0.8214,-0.7526,-0.6806,-0.6119,-0.5425,-0.4722,-0.399,-0.3257,-0.2557,-0.1884,-0.1143,-0.0741,-0.0202,0.0371,0.074,0.1076,0.158,0.2153,0.2889,0.392,0.4686,0.5547,0.6441,0.7297,0.7954,0.8344,0.892,0.9402,0.9824,1.0142,1.0434,1.0681,1.0744,1.0751,1.0656,1.0586,1.0491,1.0523,1.0555,1.0491,1.0428,1.0269,1.0206,1.0142,1.0015,0.9856,0.9658,0.9524,0.9428,0.9332,0.9081,0.8888,0.8765,0.8603,0.8404,0.8144,0.7787,0.7423,0.7068,0.6741,0.6317,-0.3186,-0.4386,-0.5322,-0.6284,-0.7232,-0.8052,-0.8791,-0.9524,-1.0072,-1.0618,-1.1185,-1.1615,-1.2019,-1.2467,-1.2836,-1.3186,-1.3511,-1.3851,-1.4079,-1.4357,-1.4764,-1.5079,-1.5254,-1.5391,-1.542,-1.542,-1.542,-1.542,-1.542,-1.542,-1.542,-1.542,-1.542,-1.542,-1.542,-1.542,-1.542,-1.5362,-1.5147,-1.5009,-1.495,-1.4348,-1.401,-1.383,-1.3316,-1.2797,-1.2205,-1.1498,-1.094,-1.0593,-1.0212,-0.9696,-0.9049,-0.8673,-0.8182,-0.7521,-0.6806,-0.6086,-0.5425,-0.4688,-0.399,-0.3259,-0.2591,-0.1918,-0.1278,-0.0775,-0.0236,0.0202,0.0572,0.1008,0.1512,0.222,0.3157,0.4156,0.515,0.5984,0.6642,0.7461,0.8149,0.8668,0.9242,0.9779,1.0174,1.0491,1.0776,1.0996,1.1035,1.1035,1.1035,1.0965,1.0881,1.0798,1.0683,1.0575,1.0481,1.0387,1.033,1.0305,1.0301,1.0174,1.0009,0.9843,0.9786,0.9626,0.9364,0.9172,0.9081,0.892,0.8668,0.8371,0.8009,0.7684,0.733,0.6975,0.6548,-0.2948,-0.4323,-0.5057,-0.6086,-0.7134,-0.7912,-0.8721,-0.9486,-1.0104,-1.0713,-1.1272,-1.1685,-1.2151,-1.2652,-1.292,-1.3246,-1.3601,-1.392,-1.4198,-1.4476,-1.4823,-1.5137,-1.5362,-1.5391,-1.542,-1.542,-1.542,-1.542,-1.542,-1.542,-1.542,-1.542,-1.542,-1.542,-1.542,-1.542,-1.542,-1.5362,-1.5137,-1.5009,-1.4891,-1.4369,-1.398,-1.3739,-1.3164,-1.2552,-1.1926,-1.1334,-1.0933,-1.0561,-1.0206,-0.9696,-0.9081,-0.8673,-0.8182,-0.7526,-0.6806,-0.609,-0.5425,-0.4725,-0.399,-0.3257,-0.2591,-0.1951,-0.1345,-0.0841,-0.0404,0.0034,0.0471,0.0941,0.1547,0.2488,0.3391,0.4256,0.5219,0.605,0.6708,0.7493,0.8306,0.892,0.9504,1.0021,1.0466,1.0744,1.0902,1.1216,1.1286,1.1286,1.1205,1.104,1.0933,1.0826,1.0688,1.0581,1.0488,1.0425,1.0408,1.039,1.0458,1.0396,1.0238,1.011,1.0047,0.9919,0.969,0.9562,0.9466,0.9242,0.8958,0.8635,0.8339,0.7977,0.7619,0.7199,0.6778,-0.2817,-0.399,-0.4994,-0.5954,-0.6872,-0.7809,-0.8624,-0.9396,-1.0206,-1.0839,-1.1341,-1.1809,-1.2305,-1.2767,-1.3094,-1.348,-1.386,-1.4139,-1.4446,-1.4823,-1.4911,-1.5137,-1.5352,-1.542,-1.542,-1.542,-1.542,-1.542,-1.542,-1.542,-1.542,-1.542,-1.542,-1.542,-1.542,-1.542,-1.542,-1.5362,-1.5147,-1.5,-1.4852,-1.4339,-1.392,-1.3679,-1.292,-1.2297,-1.1833,-1.1373,-1.087,-1.046,-1.0117,-0.969,-0.9087,-0.8705,-0.8182,-0.7526,-0.6811,-0.609,-0.5428,-0.4725,-0.399,-0.3293,-0.2691,-0.2052,-0.1378,-0.0975,-0.0539,-0.0067,0.0371,0.0977,0.185,0.269,0.3493,0.4256,0.512,0.598,0.6798,0.7754,0.8538,0.9119,0.9632,1.0174,1.0649,1.0902,1.1122,1.1404,1.1466,1.1466,1.1303,1.1088,1.0887,1.0723,1.049,1.0322,1.0208,1.0161,1.0177,1.0234,1.0399,1.0468,1.0317,1.0308,1.0276,1.0174,1.0047,0.9919,0.9754,0.9562,0.9242,0.8958,0.8603,0.8209,0.7819,0.7396,0.7007,-0.2417,-0.3625,-0.4688,-0.5683,-0.6634,-0.7652,-0.856,-0.937,-1.0206,-1.094,-1.1466,-1.1972,-1.2459,-1.2928,-1.3238,-1.364,-1.401,-1.4339,-1.4675,-1.4941,-1.5068,-1.5196,-1.5362,-1.542,-1.542,-1.542,-1.542,-1.542,-1.542,-1.542,-1.542,-1.542,-1.542,-1.542,-1.542,-1.542,-1.5352,-1.5284,-1.5117,-1.4941,-1.4695,-1.4279,-1.37,-1.3307,-1.2582,-1.2027,-1.156,-1.1279,-1.0776,-1.0301,-0.9989,-0.9632,-0.9087,-0.8673,-0.8182,-0.7526,-0.6806,-0.6119,-0.5425,-0.4725,-0.4023,-0.336,-0.2758,-0.2186,-0.1648,-0.121,-0.074,-0.0303,0.0202,0.0876,0.2053,0.279,0.3491,0.4256,0.505,0.591,0.6769,0.7717,0.8635,0.9177,0.9696,1.0206,1.0649,1.0933,1.1216,1.1435,1.15,1.1485,1.1259,1.1037,1.0736,1.0518,1.0253,1.0031,0.9892,0.9831,0.9863,0.996,1.014,1.0234,1.0219,1.0327,1.0434,1.0339,1.0244,1.0079,0.9919,0.9722,0.9466,0.9081,0.8694,0.8339,0.7954,0.7536,0.7143,-0.2051,-0.3293,-0.4353,-0.5411,-0.6433,-0.7493,-0.8441,-0.9306,-1.0174,-1.0933,-1.1591,-1.2089,-1.2552,-1.3011,-1.339,-1.3731,-1.4121,-1.4478,-1.4813,-1.497,-1.5127,-1.5264,-1.5391,-1.542,-1.542,-1.542,-1.542,-1.542,-1.542,-1.542,-1.542,-1.542,-1.542,-1.542,-1.542,-1.5381,-1.5332,-1.5215,-1.5098,-1.4843,-1.4538,-1.4181,-1.3649,-1.292,-1.2398,-1.1872,-1.1435,-1.1153,-1.0776,-1.0047,-0.9862,-0.951,-0.9055,-0.8635,-0.8182,-0.7521,-0.6806,-0.6119,-0.5458,-0.4758,-0.4123,-0.3531,-0.2893,-0.2356,-0.1951,-0.1445,-0.0975,-0.0471,0.0067,0.0909,0.2018,0.2757,0.3458,0.4189,0.502,0.5848,0.6671,0.7554,0.8366,0.9113,0.9632,1.0149,1.0555,1.0902,1.1185,1.1421,1.1447,1.1406,1.1172,1.0887,1.0509,1.0186,0.9876,0.959,0.9416,0.9534,0.9552,0.9659,0.986,1.0007,1.01,1.023,1.0345,1.051,1.0434,1.0276,1.0085,0.9888,0.9568,0.9172,0.885,0.856,0.8117,0.7638,0.7246,-0.2051,-0.3293,-0.4353,-0.5345,-0.6239,-0.7297,-0.8247,-0.9113,-1.0009,-1.0807,-1.1591,-1.2089,-1.2582,-1.3042,-1.3558,-1.398,-1.4348,-1.4636,-1.4843,-1.5,-1.5156,-1.5293,-1.5391,-1.542,-1.542,-1.542,-1.542,-1.542,-1.542,-1.542,-1.542,-1.542,-1.542,-1.542,-1.542,-1.5391,-1.5342,-1.5186,-1.5068,-1.4823,-1.4449,-1.407,-1.3558,-1.2805,-1.2313,-1.184,-1.1373,-1.1122,-1.0744,-1.0079,-0.9894,-0.9452,-0.8926,-0.8468,-0.8014,-0.7456,-0.6806,-0.6123,-0.5458,-0.4858,-0.4228,-0.3629,-0.3092,-0.2656,-0.2153,-0.158,-0.1109,-0.0538,0.0168,0.1042,0.185,0.2622,0.3324,0.4059,0.4891,0.5756,0.6576,0.7363,0.8112,0.8926,0.9472,1.0021,1.0434,1.0762,1.101,1.1119,1.1104,1.1021,1.0842,1.0494,1.0079,0.9763,0.9478,0.9193,0.8931,0.9152,0.9277,0.9365,0.9546,0.9806,0.9927,1.0087,1.0234,1.0381,1.0483,1.0403,1.0212,1.0021,0.9728,0.9332,0.9075,0.8818,0.8274,0.7759,0.7339,-0.1646,-0.2887,-0.4154,-0.5186,-0.6115,-0.7199,-0.8214,-0.9049,-0.9919,-1.0776,-1.156,-1.2182,-1.2613,-1.3072,-1.3649,-1.416,-1.4517,-1.4793,-1.4931,-1.5088,-1.5225,-1.5342,-1.542,-1.542,-1.542,-1.542,-1.542,-1.542,-1.542,-1.542,-1.542,-1.542,-1.542,-1.542,-1.542,-1.542,-1.5284,-1.5147,-1.5009,-1.4764,-1.424,-1.3769,-1.3164,-1.2705,-1.2274,-1.1809,-1.1279,-1.1028,-1.0649,-1.0085,-0.9696,-0.9285,-0.8835,-0.8344,-0.7884,-0.733,-0.6745,-0.6123,-0.5458,-0.4891,-0.4325,-0.3727,-0.3259,-0.279,-0.2321,-0.1782,-0.1143,-0.0403,0.0235,0.1143,0.1985,0.2622,0.3324,0.4092,0.4894,0.569,0.6445,0.7171,0.7922,0.87,0.9376,0.9894,1.0339,1.0616,1.0805,1.0842,1.0765,1.0628,1.048,1.0115,0.9698,0.9436,0.9185,0.9037,0.8811,0.8911,0.9064,0.9111,0.9245,0.9506,0.9713,0.986,1.006,1.0247,1.0305,1.04,1.0308,1.0085,0.9792,0.9498,0.9177,0.8823,0.8333,0.7884,0.7498,-0.1242,-0.2515,-0.3954,-0.5057,-0.5987,-0.7106,-0.8112,-0.9022,-0.9881,-1.0706,-1.156,-1.2212,-1.2674,-1.3103,-1.3679,-1.424,-1.4686,-1.4902,-1.5068,-1.5176,-1.5303,-1.5381,-1.541,-1.542,-1.542,-1.542,-1.542,-1.542,-1.542,-1.542,-1.542,-1.542,-1.542,-1.542,-1.542,-1.542,-1.5225,-1.5088,-1.5009,-1.4645,-1.401,-1.3376,-1.2858,-1.2513,-1.2243,-1.1778,-1.1192,-1.0933,-1.0555,-1.0047,-0.9568,-0.9113,-0.8732,-0.8247,-0.7694,-0.7171,-0.6651,-0.6086,-0.5521,-0.4924,-0.4425,-0.3859,-0.3391,-0.2924,-0.2388,-0.1816,-0.1076,-0.0168,0.0504,0.1143,0.1983,0.2654,0.3324,0.4125,0.4894,0.566,0.635,0.7073,0.7787,0.8533,0.9247,0.9754,1.0161,1.0301,1.0468,1.046,1.0413,1.0178,1.0003,0.9736,0.9369,0.9118,0.8937,0.8884,0.8804,0.8804,0.8878,0.8911,0.9004,0.9184,0.9391,0.9577,0.9804,1.0037,1.0261,1.0319,1.0248,1.0142,0.9888,0.9594,0.9242,0.8888,0.8533,0.8084,0.7638,-0.1242,-0.2517,-0.3785,-0.4954,-0.5954,-0.6876,-0.7857,-0.8861,-0.9684,-1.0503,-1.1397,-1.2151,-1.2674,-1.3133,-1.3709,-1.424,-1.4627,-1.4902,-1.5068,-1.5205,-1.5332,-1.542,-1.542,-1.542,-1.542,-1.542,-1.542,-1.542,-1.542,-1.542,-1.542,-1.542,-1.542,-1.542,-1.542,-1.542,-1.5254,-1.5068,-1.5009,-1.4645,-1.4019,-1.3346,-1.2858,-1.2521,-1.2212,-1.1778,-1.1153,-1.087,-1.0523,-1.0015,-0.953,-0.9049,-0.8538,-0.8025,-0.7503,-0.7007,-0.6581,-0.6156,-0.5583,-0.5057,-0.4528,-0.4028,-0.3596,-0.3192,-0.252,-0.1714,-0.0873,-0.0101,0.0504,0.1143,0.1916,0.2587,0.3291,0.4059,0.4894,0.5624,0.635,0.7036,0.7754,0.8307,0.9035,0.952,0.9933,1.0004,1.0073,1.0059,1.0017,0.9784,0.9549,0.9315,0.9159,0.895,0.8857,0.8804,0.8778,0.8778,0.8778,0.8778,0.8851,0.8951,0.9131,0.9357,0.9597,0.9824,1.0067,1.0243,1.0207,1.0097,0.9958,0.9696,0.9344,0.9055,0.8802,0.8322,0.7769,-0.0637,-0.2079,-0.3453,-0.4625,-0.569,-0.6745,-0.7722,-0.8651,-0.9518,-1.0376,-1.1209,-1.1926,-1.2705,-1.3376,-1.389,-1.424,-1.4647,-1.4902,-1.5068,-1.5205,-1.5332,-1.542,-1.542,-1.542,-1.542,-1.542,-1.542,-1.542,-1.542,-1.542,-1.542,-1.542,-1.542,-1.542,-1.542,-1.542,-1.5245,-1.4961,-1.4645,-1.4309,-1.392,-1.3376,-1.2828,-1.249,-1.2243,-1.1747,-1.1216,-1.0807,-1.0428,-0.9926,-0.9408,-0.8888,-0.8371,-0.7922,-0.747,-0.6942,-0.6511,-0.6079,-0.5617,-0.5093,-0.4561,-0.4097,-0.3663,-0.3127,-0.2353,-0.1579,-0.0806,-0.0067,0.047,0.1176,0.195,0.2621,0.3355,0.409,0.4894,0.5624,0.635,0.7064,0.7707,0.8254,0.8744,0.9192,0.9606,0.9744,0.9745,0.9655,0.9572,0.9397,0.9201,0.9018,0.8931,0.8851,0.8804,0.8778,0.8778,0.8778,0.8778,0.8778,0.8778,0.8878,0.8944,0.9138,0.9377,0.963,0.9864,1.0033,1.0133,1.0127,1.0002,0.9728,0.944,0.9157,0.8835,0.8344,0.7764,0.0134,-0.1441,-0.2986,-0.4325,-0.5491,-0.6613,-0.7587,-0.849,-0.9422,-1.025,-1.1083,-1.1903,-1.2858,-1.358,-1.392,-1.424,-1.4656,-1.4902,-1.5059,-1.5205,-1.5303,-1.5391,-1.542,-1.542,-1.542,-1.542,-1.542,-1.542,-1.542,-1.542,-1.542,-1.542,-1.542,-1.542,-1.542,-1.5391,-1.5274,-1.4961,-1.4369,-1.407,-1.389,-1.3316,-1.285,-1.2521,-1.2212,-1.1786,-1.116,-1.0776,-1.0339,-0.983,-0.9253,-0.8727,-0.8269,-0.7787,-0.7335,-0.6843,-0.6383,-0.5951,-0.5521,-0.506,-0.4564,-0.4061,-0.3493,-0.2893,-0.2153,-0.1445,-0.0806,-0.0067,0.0571,0.1277,0.2052,0.2723,0.3422,0.4156,0.496,0.5657,0.6346,0.7013,0.7639,0.8128,0.857,0.8834,0.9204,0.9477,0.9463,0.9255,0.9124,0.9011,0.8931,0.8818,0.8811,0.8778,0.8778,0.8778,0.8778,0.8778,0.8778,0.8778,0.8778,0.8798,0.8871,0.8958,0.9131,0.9397,0.9664,0.9923,1.0076,1.0087,1.0047,0.9824,0.9568,0.9183,0.8829,0.8306,0.7754,0.0872,-0.0739,-0.2485,-0.4059,-0.5428,-0.6346,-0.7293,-0.8301,-0.9326,-1.0186,-1.1052,-1.212,-1.2972,-1.3511,-1.3881,-1.4181,-1.4538,-1.4852,-1.5029,-1.5176,-1.5342,-1.5381,-1.541,-1.542,-1.542,-1.542,-1.542,-1.542,-1.542,-1.542,-1.542,-1.542,-1.542,-1.542,-1.5391,-1.5332,-1.5216,-1.4902,-1.4339,-1.404,-1.383,-1.3376,-1.2867,-1.2513,-1.2212,-1.1778,-1.1122,-1.0776,-1.0301,-0.9766,-0.9189,-0.8635,-0.8172,-0.7624,-0.7167,-0.6741,-0.6251,-0.5822,-0.5392,-0.5027,-0.4564,-0.3961,-0.3259,-0.2622,-0.2052,-0.1445,-0.0773,0.0,0.0706,0.1412,0.2153,0.2824,0.3525,0.4259,0.4984,0.5588,0.6306,0.6978,0.7553,0.8028,0.8354,0.861,0.8823,0.9077,0.9212,0.9049,0.8998,0.8884,0.8865,0.8804,0.8804,0.8778,0.8778,0.8778,0.8778,0.8778,0.8778,0.8778,0.8778,0.8778,0.8805,0.8891,0.8971,0.9158,0.9431,0.976,1.0017,1.0056,1.007,0.9945,0.9696,0.9274,0.8765,0.8247,0.7661,0.1475,-0.0134,-0.1745,-0.3353,-0.4994,-0.6042,-0.7125,-0.8139,-0.9102,-1.0218,-1.1303,-1.2212,-1.2911,-1.3359,-1.383,-1.413,-1.4407,-1.4695,-1.4902,-1.5059,-1.5196,-1.5303,-1.5362,-1.542,-1.542,-1.542,-1.542,-1.542,-1.542,-1.542,-1.542,-1.542,-1.542,-1.542,-1.5391,-1.5254,-1.5117,-1.4872,-1.4398,-1.401,-1.386,-1.3376,-1.2867,-1.2521,-1.2243,-1.1755,-1.116,-1.0782,-1.0238,-0.9664,-0.9092,-0.8603,-0.8079,-0.7493,-0.7036,-0.6675,-0.6152,-0.569,-0.5259,-0.4927,-0.4498,-0.3696,-0.2991,-0.2354,-0.1918,-0.1176,-0.047,0.0269,0.0974,0.1648,0.242,0.3058,0.3694,0.4392,0.5038,0.5625,0.6238,0.6921,0.7423,0.7832,0.8086,0.8327,0.8512,0.8694,0.8794,0.8864,0.8811,0.8778,0.8778,0.8778,0.8778,0.8778,0.8778,0.8778,0.8778,0.8778,0.8778,0.8778,0.8778,0.8778,0.8778,0.8791,0.8884,0.9044,0.9211,0.9539,0.9797,1.0026,1.0047,0.9977,0.9684,0.9274,0.8727,0.8182,0.7661,0.2076,0.047,-0.104,-0.2714,-0.4486,-0.5741,-0.6863,-0.7912,-0.8823,-1.004,-1.1498,-1.2112,-1.2666,-1.3186,-1.364,-1.398,-1.4219,-1.4488,-1.4715,-1.4902,-1.5117,-1.5225,-1.5342,-1.5391,-1.542,-1.542,-1.542,-1.542,-1.542,-1.542,-1.542,-1.542,-1.542,-1.542,-1.5362,-1.5167,-1.5009,-1.4852,-1.4398,-1.401,-1.392,-1.3376,-1.2828,-1.249,-1.2182,-1.1716,-1.1153,-1.0688,-1.0174,-0.9562,-0.899,-0.8479,-0.7954,-0.7428,-0.697,-0.6539,-0.6079,-0.5587,-0.5126,-0.4628,-0.4195,-0.3462,-0.2827,-0.2186,-0.158,-0.0907,-0.0269,0.0403,0.1143,0.1915,0.2653,0.3224,0.3861,0.4558,0.5137,0.5703,0.6208,0.6822,0.7229,0.7642,0.7857,0.8128,0.8416,0.8616,0.8737,0.8825,0.8818,0.8778,0.8778,0.8778,0.8778,0.8778,0.8778,0.8778,0.8778,0.8778,0.8778,0.8778,0.8778,0.8778,0.8778,0.8778,0.8785,0.8898,0.9084,0.9352,0.963,0.9933,1.0021,0.9996,0.9614,0.9177,0.8791,0.8247,0.7759,0.2743,0.1139,-0.0436,-0.2213,-0.4015,-0.5375,-0.6498,-0.7619,-0.8689,-0.9881,-1.1153,-1.184,-1.2406,-1.2858,-1.3368,-1.3731,-1.4001,-1.433,-1.4597,-1.4745,-1.497,-1.5117,-1.5235,-1.5313,-1.5391,-1.542,-1.542,-1.542,-1.542,-1.542,-1.542,-1.542,-1.542,-1.542,-1.5391,-1.5137,-1.5,-1.4921,-1.4339,-1.407,-1.386,-1.3354,-1.2858,-1.2482,-1.2081,-1.1584,-1.1059,-1.0593,-1.0079,-0.9498,-0.8894,-0.8317,-0.7792,-0.7237,-0.6745,-0.6276,-0.5848,-0.5355,-0.4831,-0.4192,-0.3658,-0.3192,-0.2591,-0.2018,-0.1547,-0.0873,-0.0067,0.0706,0.1344,0.2016,0.2684,0.338,0.4077,0.4704,0.5267,0.5692,0.6207,0.6715,0.7135,0.7481,0.7756,0.8029,0.8352,0.8606,0.8718,0.8791,0.8785,0.8778,0.8778,0.8778,0.8778,0.8778,0.8778,0.8778,0.8778,0.8778,0.8778,0.8778,0.8778,0.8778,0.8778,0.8778,0.8791,0.8805,0.8958,0.9184,0.9573,0.994,0.9995,0.9983,0.9454,0.9017,0.87,0.8376,0.7852,0.3511,0.1908,0.0302,-0.1275,-0.2913,-0.4613,-0.6104,-0.7447,-0.8941,-1.0199,-1.1083,-1.1809,-1.2313,-1.2736,-1.3216,-1.3541,-1.3722,-1.4189,-1.4428,-1.4597,-1.4784,-1.5,-1.5147,-1.5235,-1.5303,-1.5391,-1.542,-1.542,-1.542,-1.542,-1.542,-1.542,-1.542,-1.542,-1.5332,-1.5167,-1.5009,-1.4891,-1.4407,-1.398,-1.3929,-1.3376,-1.2828,-1.2482,-1.2019,-1.1529,-1.0965,-1.0491,-0.9983,-0.9402,-0.8797,-0.8252,-0.7694,-0.7138,-0.6613,-0.6181,-0.5752,-0.5057,-0.4292,-0.3591,-0.3188,-0.2755,-0.2252,-0.1614,-0.0941,-0.0235,0.047,0.1142,0.1848,0.2586,0.3355,0.3717,0.4305,0.4849,0.5325,0.5631,0.6096,0.6623,0.7084,0.7361,0.7662,0.8082,0.8439,0.8619,0.8752,0.8778,0.8778,0.8778,0.8778,0.8778,0.8778,0.8778,0.8778,0.8778,0.8778,0.8778,0.8778,0.8778,0.8778,0.8778,0.8778,0.8778,0.8785,0.8791,0.8911,0.9064,0.9524,0.992,1.0029,0.992,0.9492,0.9113,0.8894,0.8501,0.8042,0.4273,0.2708,0.1073,-0.047,-0.2011,-0.3982,-0.5771,-0.7442,-0.8979,-1.004,-1.0744,-1.1428,-1.1996,-1.2459,-1.2981,-1.342,-1.3511,-1.398,-1.4297,-1.4428,-1.4627,-1.4872,-1.5059,-1.5186,-1.5284,-1.5362,-1.542,-1.542,-1.542,-1.542,-1.542,-1.542,-1.542,-1.5362,-1.5284,-1.5117,-1.5009,-1.4832,-1.4398,-1.395,-1.3769,-1.3346,-1.2828,-1.2421,-1.1957,-1.1459,-1.0902,-1.0396,-0.9919,-0.9338,-0.8765,-0.8214,-0.7661,-0.7068,-0.6478,-0.6017,-0.5326,-0.4628,-0.3828,-0.3224,-0.2788,-0.2285,-0.1748,-0.1109,-0.0403,0.0269,0.1008,0.1714,0.2417,0.3062,0.3659,0.4001,0.4526,0.5057,0.5472,0.578,0.6178,0.6725,0.7076,0.7367,0.7693,0.8135,0.8501,0.8639,0.8778,0.8778,0.8778,0.8804,0.8804,0.8804,0.8778,0.8778,0.8778,0.8778,0.8778,0.8778,0.8778,0.8778,0.8778,0.8778,0.8778,0.8778,0.8778,0.8785,0.8898,0.9105,0.9584,0.9913,1.0094,1.0034,0.9722,0.9376,0.9087,0.863,0.8172,0.5071,0.3578,0.1846,0.0201,-0.1473,-0.348,-0.5602,-0.7707,-0.8624,-0.9434,-1.0079,-1.087,-1.1529,-1.212,-1.2582,-1.3033,-1.345,-1.3799,-1.4079,-1.4288,-1.4488,-1.4754,-1.497,-1.5117,-1.5225,-1.5332,-1.5381,-1.542,-1.542,-1.542,-1.542,-1.542,-1.542,-1.5332,-1.5196,-1.5098,-1.5009,-1.4764,-1.4369,-1.398,-1.3739,-1.3285,-1.2797,-1.2367,-1.1872,-1.1341,-1.0807,-1.0269,-0.9786,-0.9242,-0.8765,-0.8144,-0.7554,-0.6999,-0.6309,-0.555,-0.4764,-0.4097,-0.3462,-0.2889,-0.2251,-0.1647,-0.1176,-0.0638,-0.0034,0.0671,0.1407,0.207,0.2725,0.327,0.3801,0.4287,0.4823,0.5264,0.5709,0.6072,0.6421,0.6817,0.7149,0.7473,0.7815,0.8182,0.8553,0.8718,0.8857,0.8857,0.8857,0.8857,0.8857,0.8811,0.8811,0.8778,0.8778,0.8778,0.8778,0.8778,0.8778,0.8778,0.8778,0.8778,0.8778,0.8778,0.8778,0.8818,0.8871,0.9139,0.9613,0.9939,1.0185,1.0047,0.983,0.9504,0.9151,0.8727,0.8242,0.5899,0.4345,0.2711,0.1038,-0.0872,-0.3382,-0.5606,-0.7344,-0.8404,-0.928,-1.0047,-1.0776,-1.1341,-1.1903,-1.2428,-1.2797,-1.3164,-1.3489,-1.3799,-1.407,-1.4348,-1.4547,-1.4754,-1.4961,-1.5108,-1.5254,-1.5342,-1.542,-1.542,-1.542,-1.542,-1.542,-1.542,-1.5313,-1.5176,-1.5068,-1.4941,-1.4695,-1.4249,-1.398,-1.3679,-1.3255,-1.2767,-1.2305,-1.1848,-1.131,-1.0713,-1.0149,-0.9632,-0.9113,-0.8598,-0.8009,-0.7559,-0.6839,-0.6083,-0.4954,-0.4259,-0.3658,-0.2987,-0.2284,-0.1613,-0.0941,-0.0336,0.0034,0.0504,0.1074,0.1801,0.2446,0.3046,0.3611,0.4108,0.4613,0.5063,0.5481,0.5897,0.6276,0.6646,0.7033,0.7365,0.7794,0.8135,0.8368,0.8718,0.885,0.8962,0.8962,0.8936,0.8936,0.891,0.8857,0.8811,0.8804,0.8778,0.8778,0.8778,0.8778,0.8778,0.8778,0.8778,0.8778,0.8778,0.8778,0.8778,0.8891,0.9018,0.9287,0.9635,0.997,1.0345,1.0149,0.9926,0.9568,0.9177,0.8791,0.8366,0.6614,0.5107,0.3507,0.1506,-0.0871,-0.3182,-0.508,-0.6625,-0.7842,-0.8856,-0.9664,-1.0326,-1.0996,-1.1529,-1.2096,-1.256,-1.2867,-1.3338,-1.3692,-1.392,-1.4169,-1.4458,-1.4686,-1.4872,-1.5059,-1.5205,-1.5313,-1.542,-1.542,-1.542,-1.542,-1.542,-1.542,-1.5284,-1.5147,-1.5039,-1.4862,-1.4586,-1.4249,-1.3911,-1.358,-1.3224,-1.2767,-1.2251,-1.1817,-1.1247,-1.0649,-1.0085,-0.9542,-0.8958,-0.8436,-0.7852,-0.7199,-0.6317,-0.5455,-0.4425,-0.3792,-0.319,-0.2554,-0.1849,-0.1109,-0.037,0.0336,0.084,0.1276,0.1813,0.2378,0.2927,0.3473,0.4021,0.4463,0.4888,0.5308,0.5708,0.6073,0.6455,0.6852,0.729,0.7714,0.8195,0.8487,0.8718,0.8903,0.9008,0.9087,0.9087,0.9087,0.9087,0.9008,0.891,0.8831,0.8778,0.8778,0.8778,0.8804,0.8804,0.8778,0.8778,0.8778,0.8778,0.8778,0.8778,0.8778,0.9012,0.9282,0.9518,0.9711,1.0177,1.0466,1.0244,0.9989,0.9664,0.9312,0.8958,0.8528,0.7207,0.5804,0.4107,0.1536,-0.1206,-0.2815,-0.4251,-0.5646,-0.6985,-0.8129,-0.9017,-0.9722,-1.0491,-1.1216,-1.1809,-1.2282,-1.2683,-1.3125,-1.348,-1.3799,-1.4079,-1.4369,-1.4606,-1.4843,-1.5,-1.5167,-1.5284,-1.5362,-1.542,-1.542,-1.542,-1.542,-1.542,-1.5284,-1.5068,-1.5039,-1.4832,-1.4476,-1.416,-1.3881,-1.3511,-1.3155,-1.2736,-1.2158,-1.1755,-1.1286,-1.0656,-1.0053,-0.9478,-0.8861,-0.8247,-0.7629,-0.6642,-0.5657,-0.4761,-0.4028,-0.3424,-0.2721,-0.2083,-0.1378,-0.0638,0.0067,0.0773,0.1479,0.2049,0.2329,0.2808,0.331,0.3862,0.4363,0.4831,0.5245,0.5631,0.6073,0.6475,0.681,0.7166,0.7655,0.8189,0.8566,0.8745,0.8956,0.9054,0.9159,0.9211,0.9211,0.9211,0.9211,0.9159,0.9035,0.8956,0.8883,0.8857,0.8857,0.8831,0.8831,0.8804,0.8778,0.8804,0.8778,0.8778,0.8778,0.8778,0.9018,0.9275,0.9525,0.9807,1.0231,1.0465,1.0238,0.9983,0.9792,0.9472,0.9087,0.863,0.8022,0.6412,0.3504,0.1104,-0.077,-0.2281,-0.3687,-0.5047,-0.6195,-0.7512,-0.8791,-0.9626,-1.0364,-1.1028,-1.1498,-1.1996,-1.2552,-1.2858,-1.3216,-1.358,-1.392,-1.4198,-1.4437,-1.4666,-1.4843,-1.5029,-1.5176,-1.5313,-1.5391,-1.542,-1.542,-1.542,-1.5391,-1.5254,-1.5009,-1.5009,-1.4773,-1.4387,-1.4139,-1.3821,-1.348,-1.3125,-1.2705,-1.2182,-1.1747,-1.1247,-1.0618,-0.9945,-0.9376,-0.8797,-0.8117,-0.7237,-0.6189,-0.5263,-0.4528,-0.3859,-0.309,-0.2318,-0.1546,-0.084,-0.0067,0.0739,0.1512,0.2218,0.2706,0.2858,0.3181,0.3719,0.4222,0.4733,0.5184,0.5585,0.6013,0.6465,0.6885,0.7182,0.7509,0.8076,0.8639,0.885,0.9035,0.9133,0.9237,0.929,0.9342,0.9361,0.9361,0.9361,0.9335,0.9263,0.9218,0.914,0.9008,0.8956,0.8936,0.891,0.891,0.8857,0.8831,0.8831,0.8804,0.8778,0.8818,0.8991,0.9221,0.9518,0.9841,1.0268,1.0367,1.0212,1.0079,0.9888,0.9594,0.9242,0.8753,0.8613,0.6807,0.3685,0.144,-0.0167,-0.1609,-0.3049,-0.4384,-0.5576,-0.6765,-0.8042,-0.9043,-0.9945,-1.0649,-1.1122,-1.1685,-1.2243,-1.259,-1.3011,-1.3398,-1.37,-1.398,-1.4249,-1.4488,-1.4686,-1.4872,-1.5127,-1.5264,-1.5362,-1.542,-1.542,-1.5391,-1.5332,-1.5196,-1.5,-1.4911,-1.4675,-1.4297,-1.4109,-1.3791,-1.342,-1.3033,-1.2652,-1.2158,-1.1654,-1.1185,-1.0586,-0.9907,-0.9268,-0.8501,-0.7661,-0.6638,-0.5653,-0.4791,-0.4061,-0.3324,-0.2552,-0.1814,-0.0974,-0.0168,0.0605,0.1445,0.2218,0.2924,0.3463,0.3658,0.3966,0.4442,0.4796,0.526,0.5692,0.6114,0.6547,0.6982,0.7321,0.7616,0.807,0.8613,0.9001,0.9256,0.9387,0.9532,0.9603,0.9681,0.9706,0.9714,0.9681,0.9681,0.9629,0.9577,0.9524,0.942,0.9297,0.914,0.9087,0.9061,0.9035,0.8982,0.891,0.8883,0.8857,0.8804,0.8838,0.9038,0.9282,0.9567,0.9924,1.0295,1.0392,1.0288,1.0174,1.0047,0.9722,0.9396,0.9011,0.8997,0.7105,0.4257,0.2142,0.0536,-0.0905,-0.2347,-0.3754,-0.4984,-0.6005,-0.699,-0.8296,-0.921,-1.0047,-1.0713,-1.1279,-1.1809,-1.2344,-1.2797,-1.3155,-1.345,-1.3799,-1.41,-1.4369,-1.4567,-1.4775,-1.502,-1.5167,-1.5303,-1.5303,-1.5303,-1.5303,-1.5225,-1.5098,-1.4941,-1.4754,-1.4517,-1.4219,-1.395,-1.3649,-1.3307,-1.2942,-1.2521,-1.2058,-1.156,-1.1059,-1.0491,-0.9849,-0.9139,-0.8204,-0.7167,-0.6115,-0.5219,-0.4392,-0.3589,-0.2854,-0.2049,-0.1209,-0.0336,0.0437,0.1344,0.2186,0.2924,0.3546,0.4094,0.4497,0.4813,0.514,0.5471,0.5786,0.6225,0.6615,0.7052,0.7542,0.783,0.8117,0.8659,0.914,0.9394,0.964,0.9777,0.9921,0.9999,1.0051,1.0076,1.0084,1.0084,1.0058,1.0025,0.9947,0.9895,0.9766,0.9636,0.948,0.929,0.9211,0.9185,0.9113,0.9035,0.8956,0.8936,0.8936,0.899,0.9119,0.9364,0.969,1.0001,1.0339,1.0352,1.0364,1.0269,1.0142,0.9881,0.9562,0.93,0.9227,0.6822,0.4662,0.2878,0.1273,-0.0268,-0.1777,-0.3222,-0.4417,-0.554,-0.6527,-0.7507,-0.8581,-0.9875,-1.0548,-1.1115,-1.1622,-1.212,-1.2521,-1.2889,-1.3268,-1.361,-1.395,-1.4249,-1.4458,-1.4695,-1.4902,-1.5029,-1.5176,-1.5147,-1.5088,-1.5088,-1.5088,-1.4941,-1.4784,-1.4567,-1.4389,-1.4061,-1.3731,-1.3398,-1.3042,-1.2705,-1.2421,-1.1926,-1.1404,-1.087,-1.0269,-0.9524,-0.885,-0.7977,-0.6835,-0.5752,-0.4824,-0.4025,-0.3188,-0.235,-0.1579,-0.0638,0.0235,0.1041,0.195,0.2922,0.3647,0.4257,0.4782,0.527,0.5592,0.595,0.6257,0.6433,0.6804,0.716,0.7595,0.8156,0.8553,0.8909,0.9335,0.9603,0.9844,1.0043,1.0205,1.0308,1.0411,1.0437,1.0462,1.0462,1.0437,1.0437,1.0411,1.0334,1.0257,1.0102,0.9981,0.9681,0.9439,0.9342,0.929,0.9237,0.9192,0.914,0.9113,0.914,0.9189,0.9315,0.9597,0.9947,1.0193,1.0441,1.0497,1.0523,1.0364,1.0206,0.9977,0.9786,0.9524]}]]